[[{"header":{"parameterUnit":"m.s-1","parameterCategory":1,"la1":30.6,"la2":29.2853,"lo1":-89.7004,"lo2":-87.6739,"dy":0.0162,"dx":0.0183,"nx":112,"ny":82,"refTime":"2024-05-21T12:00:00:Z","depth":0,"parameterNumber":2,"parameterNumberName":"U-component_of_WINDS"},"data":[0.0,0.0,0.0,0.0,0.0,0.0,0.0,0.0,0.0,0.0,0.0,0.0,0.0,0.0,0.0,0.0,0.0,0.0,0.0,0.0,0.0,0.0,0.0,0.0,0.0,0.0,0.0,0.0,0.0,0.0,0.0,0.0,0.0,0.0,0.0,0.0,0.0,0.0,0.0,0.0,0.0,0.0,0.0,0.0,0.0,0.0,0.0,0.0,0.0,0.0,0.0,0.0,0.0,0.0,0.0,0.0,0.0,0.0,0.0,0.0,0.0,0.0,0.0,0.0,0.0,0.0,0.0,0.0,0.0,0.0,0.0,0.0,0.0,0.0,0.0,0.0,0.0,0.0,0.0,0.0,0.0,0.0,0.0,0.0,0.0,0.0,0.0,0.0,0.0,0.0,0.0,-3.3494,-3.855,-4.1876,-4.2555,-4.1993,-3.7872,-2.9185,0.0,0.0,0.0,0.0,0.0,0.0,0.0,0.0,0.0,0.0,0.0,0.0,0.0,0.0,0.0,0.0,0.0,0.0,0.0,0.0,0.0,0.0,0.0,0.0,0.0,0.0,0.0,0.0,0.0,0.0,0.0,0.0,0.0,0.0,0.0,0.0,0.0,0.0,0.0,0.0,0.0,0.0,0.0,0.0,0.0,0.0,0.0,0.0,0.0,0.0,0.0,0.0,0.0,0.0,0.0,0.0,0.0,0.0,0.0,0.0,0.0,0.0,0.0,0.0,0.0,0.0,0.0,0.0,0.0,0.0,0.0,0.0,0.0,0.0,0.0,0.0,0.0,0.0,0.0,0.0,0.0,0.0,0.0,0.0,0.0,0.0,0.0,0.0,0.0,0.0,0.0,0.0,0.0,0.0,0.0,0.0,0.0,0.0,0.0,0.0,0.0,0.0,0.0,0.0,-3.102,-4.0235,-4.1464,-4.1898,-4.2705,-4.2038,-3.7927,-2.9298,0.0,0.0,0.0,0.0,0.0,0.0,0.0,0.0,0.0,0.0,0.0,0.0,0.0,0.0,0.0,0.0,0.0,0.0,0.0,0.0,0.0,0.0,0.0,0.0,0.0,0.0,0.0,0.0,0.0,0.0,0.0,0.0,0.0,0.0,0.0,0.0,0.0,0.0,0.0,0.0,0.0,0.0,0.0,0.0,0.0,0.0,0.0,0.0,0.0,0.0,0.0,0.0,0.0,0.0,0.0,0.0,0.0,0.0,0.0,0.0,0.0,0.0,0.0,0.0,0.0,0.0,0.0,0.0,0.0,0.0,0.0,0.0,0.0,0.0,0.0,0.0,0.0,0.0,0.0,0.0,0.0,0.0,0.0,0.0,0.0,0.0,0.0,0.0,0.0,0.0,0.0,0.0,0.0,0.0,0.0,0.0,0.0,0.0,0.0,0.0,0.0,0.0,0.0,-2.8985,-3.4547,-4.2552,-4.2306,-4.192,-4.2705,-4.2061,-3.7947,-2.9346,-2.8021,0.0,0.0,0.0,0.0,0.0,0.0,0.0,0.0,0.0,0.0,0.0,0.0,0.0,0.0,0.0,0.0,0.0,0.0,0.0,0.0,0.0,0.0,0.0,0.0,0.0,0.0,0.0,0.0,0.0,0.0,0.0,0.0,0.0,0.0,0.0,0.0,0.0,0.0,0.0,0.0,0.0,0.0,0.0,0.0,0.0,0.0,0.0,0.0,0.0,0.0,0.0,0.0,0.0,0.0,0.0,0.0,0.0,0.0,0.0,0.0,0.0,0.0,0.0,0.0,0.0,0.0,0.0,0.0,0.0,0.0,0.0,0.0,0.0,0.0,0.0,0.0,0.0,0.0,0.0,0.0,0.0,0.0,0.0,0.0,0.0,0.0,0.0,0.0,0.0,0.0,0.0,0.0,0.0,0.0,0.0,0.0,0.0,0.0,0.0,0.0,0.0,0.0,-3.367,-3.7251,-4.3254,-4.2517,-4.185,-4.2482,-4.1266,-3.7071,-2.9047,-2.7093,0.0,0.0,0.0,0.0,0.0,0.0,0.0,0.0,0.0,0.0,0.0,0.0,0.0,0.0,0.0,0.0,0.0,0.0,0.0,0.0,0.0,0.0,0.0,0.0,0.0,0.0,0.0,0.0,0.0,0.0,0.0,0.0,0.0,0.0,0.0,0.0,0.0,0.0,0.0,0.0,0.0,0.0,0.0,0.0,0.0,0.0,0.0,0.0,0.0,0.0,0.0,0.0,0.0,0.0,0.0,0.0,0.0,0.0,0.0,0.0,0.0,0.0,0.0,0.0,0.0,0.0,0.0,0.0,0.0,0.0,0.0,0.0,0.0,0.0,0.0,0.0,0.0,0.0,0.0,0.0,0.0,0.0,0.0,0.0,0.0,0.0,0.0,0.0,0.0,0.0,0.0,0.0,0.0,0.0,0.0,0.0,0.0,0.0,0.0,0.0,0.0,0.0,-3.3441,-3.7812,-4.3325,-4.2517,-4.1639,-4.1674,-3.8965,-3.4544,-2.8187,-2.4283,0.0,0.0,0.0,0.0,0.0,0.0,0.0,0.0,0.0,0.0,0.0,0.0,0.0,0.0,0.0,0.0,0.0,0.0,0.0,0.0,0.0,0.0,0.0,0.0,0.0,0.0,0.0,0.0,0.0,0.0,0.0,0.0,0.0,0.0,0.0,0.0,0.0,0.0,0.0,0.0,0.0,0.0,0.0,0.0,0.0,0.0,0.0,0.0,0.0,0.0,0.0,0.0,0.0,0.0,0.0,0.0,0.0,0.0,0.0,0.0,0.0,0.0,0.0,0.0,0.0,0.0,0.0,0.0,0.0,0.0,0.0,0.0,0.0,0.0,0.0,0.0,0.0,0.0,0.0,0.0,0.0,0.0,0.0,0.0,0.0,0.0,0.0,0.0,0.0,0.0,0.0,0.0,0.0,0.0,0.0,0.0,0.0,0.0,0.0,0.0,0.0,0.0,-3.3441,-3.7883,0.0,-4.2517,-4.1604,-4.1604,-4.0095,-3.5878,-2.8187,0.0,0.0,0.0,0.0,0.0,0.0,0.0,0.0,0.0,0.0,0.0,0.0,0.0,0.0,0.0,0.0,0.0,0.0,0.0,0.0,0.0,0.0,0.0,0.0,0.0,0.0,0.0,0.0,0.0,0.0,0.0,0.0,0.0,0.0,0.0,0.0,0.0,0.0,0.0,0.0,0.0,0.0,0.0,0.0,0.0,0.0,0.0,0.0,0.0,0.0,0.0,0.0,0.0,0.0,0.0,0.0,0.0,0.0,0.0,0.0,0.0,0.0,0.0,0.0,0.0,0.0,0.0,0.0,0.0,0.0,0.0,0.0,0.0,0.0,0.0,0.0,0.0,0.0,0.0,0.0,0.0,0.0,0.0,0.0,0.0,0.0,0.0,0.0,0.0,0.0,0.0,0.0,0.0,0.0,0.0,0.0,0.0,0.0,0.0,0.0,0.0,0.0,-2.9211,-3.4372,-3.9182,0.0,-4.2622,-4.1885,-4.1639,-3.9779,-3.5492,-2.8152,0.0,0.0,0.0,0.0,0.0,0.0,0.0,0.0,0.0,0.0,0.0,0.0,0.0,0.0,0.0,0.0,0.0,0.0,0.0,0.0,0.0,0.0,0.0,0.0,0.0,0.0,0.0,0.0,0.0,0.0,0.0,0.0,0.0,0.0,0.0,0.0,0.0,0.0,0.0,0.0,0.0,0.0,0.0,0.0,0.0,0.0,0.0,0.0,0.0,0.0,0.0,0.0,0.0,0.0,0.0,0.0,0.0,0.0,0.0,0.0,0.0,0.0,0.0,0.0,0.0,0.0,0.0,0.0,0.0,0.0,0.0,0.0,0.0,0.0,0.0,0.0,0.0,0.0,0.0,0.0,0.0,0.0,0.0,0.0,0.0,0.0,0.0,0.0,0.0,0.0,0.0,0.0,0.0,0.0,0.0,0.0,0.0,0.0,0.0,0.0,0.0,0.0,-2.8789,-3.6338,-4.192,-4.2705,-4.2798,-4.2482,-4.1674,-3.7331,-3.2634,0.0,0.0,0.0,0.0,0.0,0.0,0.0,0.0,0.0,0.0,0.0,0.0,0.0,0.0,0.0,0.0,0.0,0.0,0.0,0.0,0.0,0.0,0.0,0.0,0.0,0.0,0.0,0.0,0.0,0.0,0.0,0.0,0.0,0.0,0.0,0.0,0.0,0.0,0.0,0.0,0.0,0.0,0.0,0.0,0.0,0.0,0.0,0.0,0.0,0.0,0.0,0.0,0.0,0.0,0.0,0.0,0.0,0.0,0.0,0.0,0.0,0.0,0.0,0.0,0.0,0.0,0.0,0.0,0.0,0.0,0.0,0.0,0.0,0.0,0.0,0.0,0.0,0.0,0.0,0.0,0.0,0.0,0.0,0.0,0.0,0.0,0.0,0.0,0.0,0.0,0.0,0.0,0.0,0.0,0.0,0.0,0.0,0.0,0.0,0.0,0.0,0.0,0.0,-2.8789,-3.6338,-4.192,-4.2705,-4.2798,-4.2482,-4.1674,-3.8783,-3.4331,-2.8082,0.0,0.0,0.0,0.0,0.0,0.0,0.0,0.0,0.0,0.0,0.0,0.0,0.0,0.0,0.0,0.0,0.0,0.0,0.0,0.0,0.0,0.0,0.0,0.0,0.0,0.0,0.0,0.0,0.0,0.0,0.0,0.0,0.0,0.0,0.0,0.0,0.0,0.0,0.0,0.0,0.0,0.0,0.0,0.0,0.0,0.0,0.0,0.0,0.0,0.0,0.0,0.0,0.0,0.0,0.0,0.0,0.0,0.0,0.0,0.0,0.0,0.0,0.0,0.0,0.0,0.0,0.0,0.0,0.0,0.0,0.0,0.0,0.0,0.0,0.0,0.0,0.0,0.0,0.0,0.0,0.0,0.0,0.0,0.0,0.0,0.0,0.0,0.0,0.0,0.0,0.0,0.0,0.0,0.0,0.0,0.0,0.0,0.0,0.0,0.0,0.0,0.0,-2.8438,-3.6408,-4.2131,-4.2306,-4.2622,-4.2482,-4.1674,-3.9399,-3.547,-2.94,0.0,0.0,0.0,0.0,0.0,0.0,0.0,0.0,0.0,0.0,0.0,0.0,0.0,0.0,0.0,0.0,0.0,0.0,0.0,0.0,0.0,0.0,0.0,0.0,0.0,0.0,0.0,0.0,0.0,0.0,0.0,0.0,0.0,0.0,0.0,0.0,0.0,0.0,0.0,0.0,0.0,0.0,0.0,0.0,0.0,0.0,0.0,0.0,0.0,0.0,0.0,0.0,0.0,0.0,0.0,0.0,0.0,0.0,0.0,0.0,0.0,0.0,0.0,0.0,0.0,0.0,0.0,0.0,0.0,0.0,0.0,0.0,0.0,0.0,0.0,0.0,0.0,0.0,0.0,0.0,0.0,0.0,0.0,0.0,0.0,0.0,0.0,0.0,0.0,0.0,0.0,0.0,0.0,0.0,0.0,0.0,0.0,0.0,0.0,0.0,0.0,0.0,-2.7982,-3.6584,-4.2517,-4.171,-4.2319,-4.2459,-4.1674,-3.9442,-3.6066,-3.1411,0.0,0.0,0.0,0.0,0.0,0.0,0.0,0.0,0.0,0.0,0.0,0.0,0.0,0.0,0.0,0.0,0.0,0.0,0.0,0.0,0.0,0.0,0.0,0.0,0.0,0.0,0.0,0.0,0.0,0.0,0.0,0.0,0.0,0.0,0.0,0.0,0.0,0.0,0.0,0.0,0.0,0.0,0.0,0.0,0.0,0.0,0.0,0.0,0.0,0.0,0.0,0.0,0.0,0.0,0.0,0.0,0.0,0.0,0.0,0.0,-2.591,0.0,0.0,0.0,0.0,0.0,0.0,0.0,0.0,0.0,0.0,0.0,0.0,0.0,0.0,0.0,0.0,0.0,0.0,0.0,0.0,0.0,0.0,0.0,0.0,0.0,0.0,0.0,0.0,0.0,0.0,0.0,0.0,0.0,0.0,0.0,0.0,0.0,0.0,0.0,0.0,0.0,-2.8607,-3.6895,-4.2517,-4.171,-4.2216,-4.2356,-4.1652,-3.9264,-3.6127,-3.2196,-2.7914,0.0,0.0,0.0,0.0,0.0,0.0,0.0,0.0,0.0,0.0,0.0,0.0,0.0,0.0,0.0,0.0,0.0,0.0,0.0,0.0,0.0,0.0,0.0,0.0,0.0,0.0,0.0,0.0,0.0,0.0,0.0,0.0,0.0,0.0,0.0,0.0,0.0,0.0,0.0,0.0,0.0,0.0,0.0,0.0,0.0,0.0,0.0,0.0,0.0,0.0,0.0,0.0,0.0,0.0,0.0,0.0,0.0,0.0,0.0,0.0,-2.6923,0.0,0.0,0.0,0.0,0.0,0.0,0.0,0.0,0.0,0.0,0.0,0.0,0.0,0.0,0.0,0.0,0.0,0.0,0.0,0.0,0.0,0.0,0.0,0.0,0.0,0.0,0.0,0.0,0.0,0.0,0.0,0.0,0.0,0.0,0.0,0.0,0.0,0.0,0.0,0.0,-2.9327,-3.6895,-4.2061,-4.1639,-4.1911,-4.1936,-4.155,-3.9927,-3.7624,-3.4438,-3.0595,0.0,0.0,0.0,0.0,0.0,0.0,0.0,0.0,0.0,0.0,0.0,0.0,0.0,0.0,0.0,0.0,0.0,0.0,0.0,0.0,0.0,0.0,0.0,0.0,0.0,0.0,0.0,0.0,0.0,0.0,0.0,0.0,0.0,0.0,0.0,0.0,0.0,0.0,0.0,0.0,0.0,0.0,0.0,0.0,0.0,0.0,0.0,0.0,0.0,0.0,0.0,0.0,0.0,-4.0115,-4.082,-3.9243,-4.1452,-4.1197,-3.8777,-3.3945,-3.3333,-3.5278,-2.9397,0.0,0.0,0.0,0.0,0.0,0.0,0.0,0.0,0.0,0.0,0.0,0.0,0.0,0.0,0.0,0.0,0.0,0.0,0.0,0.0,0.0,0.0,0.0,0.0,-3.1972,-3.1765,0.0,0.0,0.0,0.0,0.0,0.0,0.0,0.0,0.0,0.0,0.0,0.0,-3.0222,-3.6926,-4.156,-4.156,-4.156,-4.1538,-4.1448,-4.0704,-3.9255,-3.6873,-3.3423,-3.0039,0.0,0.0,0.0,0.0,0.0,0.0,0.0,0.0,0.0,0.0,0.0,0.0,0.0,0.0,0.0,0.0,0.0,0.0,0.0,0.0,0.0,0.0,0.0,0.0,0.0,0.0,0.0,0.0,0.0,0.0,0.0,0.0,-2.0069,-2.3251,0.0,0.0,0.0,0.0,0.0,0.0,0.0,0.0,0.0,0.0,0.0,0.0,0.0,-3.5634,-3.7946,-4.2782,-4.5175,-4.5156,-4.8498,-4.9102,-4.727,-4.7663,-4.6743,-4.4628,-4.1882,0.0,-3.8809,-3.5678,0.0,0.0,0.0,0.0,0.0,0.0,0.0,0.0,0.0,0.0,0.0,0.0,0.0,0.0,0.0,0.0,0.0,0.0,0.0,0.0,0.0,0.0,-3.7801,-3.7456,-3.7064,-3.6581,0.0,-3.1266,-2.7021,-2.6504,-2.5443,0.0,0.0,0.0,0.0,0.0,0.0,0.0,-3.1463,-3.7393,-4.1426,-4.1426,-4.1426,-4.1471,-4.156,-4.0704,-3.9421,-3.7728,-3.5307,-3.2209,-2.828,-2.664,0.0,0.0,0.0,0.0,0.0,0.0,0.0,0.0,0.0,0.0,0.0,0.0,0.0,0.0,0.0,0.0,0.0,0.0,0.0,0.0,0.0,0.0,0.0,0.0,0.0,0.0,0.0,0.0,0.0,-1.9339,-2.3529,-2.4526,-2.6026,-2.5764,0.0,0.0,0.0,0.0,0.0,0.0,0.0,0.0,0.0,-3.8221,-4.0303,-4.2355,-4.4411,-4.795,-5.0156,-5.1029,-5.2507,-5.2921,-5.2419,-5.263,-5.1697,-4.977,-4.87,-4.7227,-4.5126,-3.9651,-3.7151,-3.6388,0.0,0.0,0.0,0.0,-2.8802,-2.8789,-3.0837,-3.2496,0.0,-3.1699,0.0,0.0,0.0,0.0,0.0,0.0,0.0,0.0,0.0,0.0,-3.872,-3.9664,-3.9963,-3.9928,-3.9514,-3.6374,-3.2869,0.0,-2.9316,-2.7571,-2.3459,0.0,0.0,0.0,0.0,0.0,-3.4333,-3.8614,-4.1403,-4.1403,-4.1403,-4.1403,-4.1368,-4.0931,-3.9961,-3.8356,-3.6957,-3.4668,-3.1182,-2.9642,-2.6447,0.0,0.0,0.0,0.0,0.0,0.0,0.0,0.0,0.0,0.0,0.0,0.0,0.0,0.0,0.0,0.0,0.0,0.0,0.0,0.0,0.0,0.0,0.0,0.0,0.0,0.0,0.0,0.0,-2.3221,-2.6776,-2.6614,-2.9739,-3.049,0.0,0.0,0.0,0.0,0.0,0.0,-3.7683,-3.8787,-4.0979,-4.4554,-4.6604,-4.8401,-5.0091,-5.2344,-5.4187,-5.5578,-5.563,-5.5639,-5.5609,-5.5926,-5.504,-5.3264,-5.3074,-5.2271,-5.0637,-4.4091,-4.1462,-4.1287,-3.8715,-3.6153,-3.4159,-3.6241,-3.6102,-3.5258,-3.7828,-3.9328,-3.9721,-3.7258,-3.6132,-3.5111,-3.1489,0.0,0.0,0.0,0.0,-3.2559,-3.5801,-3.7823,-3.9376,-4.1101,-4.193,-4.2171,-4.1619,-4.0273,-3.8112,0.0,-3.3352,-3.1386,-2.6454,0.0,0.0,0.0,0.0,-3.4445,-3.6623,-3.9491,-4.1312,-4.1312,-4.1335,-4.13,-4.1209,-4.1152,-4.0435,-3.8765,-3.8231,-3.6679,-3.3759,-3.2207,-2.9259,-2.4691,0.0,0.0,0.0,0.0,0.0,0.0,0.0,0.0,0.0,0.0,0.0,0.0,0.0,0.0,0.0,0.0,0.0,0.0,0.0,0.0,0.0,0.0,0.0,0.0,0.0,0.0,0.0,0.0,0.0,-3.1541,-3.5371,0.0,0.0,0.0,0.0,-3.5334,-3.7032,-4.0453,-4.6073,-4.574,-4.7206,-5.1292,-5.2322,-5.3583,-5.5218,-5.6907,-5.8147,-5.878,-5.8972,-5.8231,-5.6734,-5.6925,-5.6026,-5.427,-5.3718,-5.3674,-5.3745,-5.0352,-4.7979,-4.6264,-4.4611,-4.341,-4.2511,-4.122,-4.16,-4.2649,-4.1988,-4.2758,-4.3862,-4.3034,-4.0308,-3.6822,-3.3662,-3.2697,0.0,0.0,-3.5925,-3.8525,-4.017,-4.1757,-4.293,-4.3069,-4.3103,-4.3138,-4.3069,-4.1861,-4.048,0.0,-3.756,-3.5525,-3.38,0.0,-3.2317,-3.1577,-3.3544,-3.5683,-3.7258,-3.9593,-4.1117,-4.1117,-4.1175,-4.1209,-4.1209,-4.1209,-4.0515,-3.8876,-3.8881,-3.7783,-3.52,-3.3786,-3.1827,-2.923,-2.568,0.0,0.0,0.0,0.0,0.0,0.0,0.0,0.0,0.0,0.0,0.0,0.0,0.0,0.0,0.0,0.0,0.0,0.0,0.0,0.0,0.0,0.0,0.0,0.0,0.0,0.0,0.0,0.0,-3.5071,-3.9427,0.0,-3.8701,-3.999,-4.1304,-4.213,-4.4284,-4.6943,-5.0108,-5.0964,-5.2543,-5.5095,-5.6434,-5.7413,-5.7976,-5.914,-5.9816,-6.004,-6.0116,-5.9938,-5.9523,-5.8747,-5.7591,-5.6122,-5.4902,-5.4146,-5.3752,-5.293,-5.1416,-4.9343,-4.7422,-4.6151,-4.5476,-4.597,-4.6151,-4.6209,-4.6906,-4.7182,-4.6906,-4.5182,-4.3044,-4.0963,-3.9859,-3.9549,-3.9583,-3.9894,-4.0722,-4.1688,-4.224,-4.3138,-4.3793,-4.331,-4.3552,-4.3793,-4.331,-4.2758,-4.2309,-4.1999,-4.0101,-3.7698,-3.5214,-3.618,-3.6546,-3.4451,-3.6416,-3.8535,-3.9674,-4.0585,-4.1093,-4.1093,-4.114,-4.1163,-4.1163,-4.0574,-3.9778,-3.873,-3.7871,-3.6728,-3.5269,-3.3867,-3.1999,-2.9626,-2.7778,-2.413,0.0,0.0,0.0,0.0,0.0,0.0,0.0,0.0,0.0,0.0,0.0,0.0,0.0,0.0,0.0,0.0,0.0,0.0,0.0,0.0,0.0,0.0,0.0,0.0,0.0,0.0,-3.6186,-3.8112,-4.2731,-4.5209,-4.3806,-4.5458,-4.6936,-4.7725,-4.9865,-5.1888,-5.3644,-5.4969,-5.6154,-5.7314,-5.8651,-5.9178,-5.8915,-5.9741,-6.0154,-6.0154,-6.0154,-6.0244,-6.0348,-5.9316,-5.789,-5.6212,-5.558,-5.4543,-5.3389,-5.4056,-5.3393,-5.1879,-5.0556,-4.9716,-4.9285,-4.9985,-4.9721,-4.902,-4.9453,-4.9252,-4.8499,-4.6741,-4.5527,-4.4621,-4.4078,-4.394,-4.3871,-4.3655,-4.3759,-4.394,-4.394,-4.4285,-4.4527,-4.4044,-4.432,-4.4527,-4.4044,-4.3552,-4.3276,-4.3517,-4.1895,-3.9664,-3.7146,-3.818,-3.841,-3.5731,-3.6968,-3.8328,-3.8671,-3.942,-3.9905,-3.9905,-4.0597,-4.1047,-4.1047,-3.9744,-3.8836,-3.8594,-3.6803,-3.5578,-3.5214,-3.3121,-3.1062,-2.9246,-2.6883,-2.3619,-1.9425,0.0,0.0,0.0,0.0,0.0,0.0,0.0,0.0,0.0,0.0,0.0,0.0,0.0,0.0,0.0,0.0,0.0,0.0,0.0,0.0,0.0,0.0,0.0,-2.8763,-3.5038,-3.999,-4.0966,-4.5359,-4.8063,-4.7274,-4.9415,-5.118,-5.1968,-5.3583,-5.5197,-5.6812,-5.76,-5.7995,-5.7995,-5.8802,-5.8877,-5.8108,-5.8952,-5.9365,-5.9365,-5.9365,-5.9272,-5.9059,-5.8572,-5.694,-5.4648,-5.5836,-5.508,-5.3054,-5.3992,-5.4227,-5.3927,-5.4163,-5.425,-5.4116,-5.3061,-5.2213,-5.1251,-4.9406,-4.8775,-4.8706,-4.7948,-4.7707,-4.7396,-4.5914,-4.5466,-4.5328,-4.4587,-4.4906,-4.5432,-4.5397,-4.5397,-4.5397,-4.5397,-4.5397,-4.5397,-4.5397,-4.4285,-4.3483,-4.4207,-4.3103,-4.1561,-4.0043,-3.9181,-3.7939,-3.5697,-3.5387,0.0,-3.4407,-3.6236,-3.7616,-3.7616,-3.9514,-4.0825,-4.0894,-3.8789,-3.7754,-3.8525,-3.5835,-3.4486,-3.5145,-3.1702,-2.9349,-2.8454,-2.3267,-2.096,-2.1762,0.0,0.0,0.0,0.0,0.0,0.0,0.0,0.0,0.0,0.0,0.0,0.0,0.0,0.0,0.0,0.0,0.0,0.0,0.0,0.0,0.0,0.0,-3.5807,-3.6434,-4.0315,-4.4106,-4.6786,-4.9903,-5.1759,-5.1534,-5.317,-5.4317,-5.4579,-5.6136,-5.7037,-5.6887,-5.6512,-5.6269,-5.6269,-5.7112,-5.7713,-5.8108,-6.0116,-6.1093,-6.1093,-6.1093,-6.1073,-6.0996,-5.9901,-5.9001,-5.8307,-5.7734,-5.7097,-5.649,-5.6382,-5.6302,-5.6,-5.4197,-5.3212,-5.2765,-5.2705,-5.2409,-5.1647,-4.9048,-4.8819,-4.9562,-4.8741,-4.812,-4.7603,-4.7189,-4.7052,-4.6914,-4.6182,-4.6113,-4.6121,-4.5535,-4.5397,-4.5397,-4.5397,-4.5397,-4.5397,-4.5397,-4.5087,-4.4872,-4.5079,-4.432,-4.3172,-4.163,-4.1181,-4.0687,-3.9514,-3.9341,0.0,-3.9065,-3.9583,-3.9963,-3.9963,-3.9065,-3.91,-4.0756,-3.7789,-3.6387,-3.7719,-3.5497,-3.4461,-3.5145,-3.2631,-3.0594,-2.9213,-2.6128,-2.4109,0.0,0.0,0.0,0.0,0.0,0.0,0.0,0.0,0.0,0.0,0.0,0.0,0.0,0.0,0.0,0.0,0.0,0.0,0.0,0.0,0.0,0.0,-3.5983,-4.1191,-4.3407,-4.5397,-4.7687,-5.0691,-5.2322,-5.3337,-5.3658,-5.4859,-5.5593,-5.5593,-5.7132,-5.7901,-5.745,-5.76,-5.7225,-5.6174,-5.7638,-5.8164,-5.76,-5.9703,-6.0755,-6.0755,-6.0755,-6.0755,-6.0698,-5.9723,-5.8756,-5.7827,-5.7629,-5.6998,-5.6134,-5.6592,-5.674,0.0,0.0,0.0,0.0,0.0,-5.2178,-5.1459,-4.9526,-4.9573,-5.0355,-4.9562,-4.901,-4.8596,-4.8258,-4.7286,-4.6182,-4.5768,-4.4941,-4.4251,-4.4423,-4.4492,-4.463,-4.5259,-4.5397,-4.5397,-4.5397,-4.4906,-4.4665,-4.5259,-4.4561,0.0,-4.3069,-4.1895,-4.0457,-3.8789,-3.8513,-3.841,-3.8099,-3.8893,-3.9479,-3.9479,-3.9134,-3.9479,-4.0791,-3.7996,0.0,0.0,0.0,-3.3716,-3.2835,-3.1524,0.0,0.0,0.0,0.0,0.0,0.0,0.0,0.0,-2.4007,-2.3052,0.0,0.0,0.0,0.0,0.0,0.0,0.0,0.0,0.0,0.0,0.0,0.0,0.0,0.0,0.0,0.0,-4.0203,-4.5359,-4.9377,-4.9903,-5.0729,-5.2961,-5.3374,-5.375,-5.4484,-5.5272,-5.5781,-5.5893,-5.7432,-5.8333,-5.8221,0.0,0.0,0.0,0.0,-5.9027,-5.6925,-5.8502,-5.929,-5.929,-5.929,-5.929,-5.9272,-5.8888,-5.7556,-5.5639,-5.6841,-5.6175,-5.4391,-5.598,-5.6456,-5.6083,-5.5462,-5.5196,-5.4884,-5.2837,-5.1766,-5.1198,-5.0275,0.0,0.0,-5.0252,-5.0011,-4.9873,-4.9154,-4.7079,-4.4932,-4.4829,-4.3345,-4.2102,-4.3379,-4.3655,-4.3931,-4.5225,-4.5466,-4.5397,-4.5397,-4.4354,-4.3837,-4.5156,-4.4354,-4.3621,-4.4207,-4.1964,-3.9146,-3.6387,-3.5904,-3.5594,-3.4959,-3.665,-3.7892,-3.7892,0.0,0.0,-4.0894,-3.872,-3.7719,-3.8548,-3.5904,-3.3041,-3.0144,-3.011,-2.911,-2.6887,-2.6971,-2.8315,-3.1045,-3.1115,-3.1967,-3.3331,-2.7142,-2.5729,0.0,0.0,0.0,0.0,0.0,0.0,0.0,0.0,0.0,0.0,0.0,0.0,0.0,0.0,0.0,-3.9276,-4.4496,-4.9265,-5.2097,-5.2473,-5.266,-5.3149,-5.4334,-5.518,-5.533,-5.6136,-5.6925,-5.7545,-5.9178,-5.9816,-5.9102,-5.8126,-5.7413,-5.6925,-5.6699,-5.6662,-5.6887,-5.8502,-5.929,-5.929,0.0,0.0,-5.929,-5.9215,-5.8915,-5.8522,-5.8743,-5.8609,-5.8179,-5.8175,-5.7895,-5.7389,-5.5968,-5.5221,-5.4603,-5.2183,-5.1939,-5.2418,-4.9622,-4.9931,-5.1327,-5.0339,-5.0011,-4.9976,-4.9838,-4.9355,0.0,-4.8114,-4.7603,-4.7189,-4.6906,-4.6389,-4.601,-4.632,-4.588,-4.5397,-4.5397,-4.519,-4.5052,-4.5328,-4.5156,-4.4837,-4.438,-4.331,-4.2102,-4.0894,-4.0204,-3.9756,-3.9618,-3.9963,-4.0239,-4.0239,-3.8996,-3.8893,-4.0756,-3.8215,-3.7111,-3.8491,-3.687,-3.5076,-3.3283,-3.3766,-3.3317,-3.1627,-3.2214,-3.2543,-3.2493,-3.319,-3.3732,-3.4013,-3.2213,-3.1742,0.0,0.0,0.0,0.0,0.0,0.0,0.0,0.0,0.0,0.0,0.0,-3.1845,0.0,0.0,-3.9951,-4.2782,-4.6073,-4.9415,-5.2736,-5.3883,-5.4409,-5.4409,-5.4747,-5.5142,-5.5555,-5.6399,-5.7225,-5.8033,-5.9253,-5.9778,-5.9328,-5.8539,-5.7713,-5.6925,-5.7263,-5.7263,-5.6887,-5.8502,-5.929,-5.929,-5.929,-5.929,-5.929,-5.929,-5.929,-5.9272,-5.9045,-5.8947,-5.8927,-5.8439,-5.8113,-5.7771,-5.6731,-5.6062,-5.5508,-5.3537,-5.3106,-5.3207,-5.1115,-5.1049,-5.1736,-5.0863,-5.0562,-5.0493,-5.0114,-4.9217,-4.8217,-4.781,-4.6872,-4.6079,-4.6431,-4.6259,-4.619,-4.6975,-4.6535,-4.5983,-4.5983,-4.5673,-4.5397,-4.5397,-4.5397,-4.5259,-4.4906,-4.4242,-4.3345,-4.2206,-4.1378,-4.0894,-4.0894,-4.0894,-4.0894,-4.0894,-3.9894,-3.9652,-4.0791,-3.9112,-3.8318,-3.9077,-3.8077,-3.6939,-3.5856,-3.5766,-3.5387,-3.4628,-3.4628,-3.4628,-3.4594,-3.5108,-3.559,-3.5998,-3.573,-3.5196,0.0,0.0,0.0,0.0,0.0,0.0,0.0,0.0,-3.0122,-3.1543,-3.4452,-3.6928,-3.7589,-3.9826,-4.2674,-4.5899,-4.7425,-4.9415,-5.2961,-5.4559,-5.5405,-5.5593,-5.5047,-5.4972,-5.5781,-5.6474,-5.73,-5.8276,-5.8915,-5.929,-5.929,-5.929,-5.8727,-5.7413,-5.8614,-5.8764,-5.7638,-5.8915,-5.9553,-5.9553,-5.9553,-5.9478,-5.929,-5.929,-5.929,-5.9272,-5.8908,-5.873,-5.8689,-5.8311,-5.8157,-5.8113,-5.7593,-5.7254,-5.6881,-5.5407,-5.4691,-5.4291,-5.3241,-5.2726,-5.2468,-5.1741,-5.1395,-5.1153,-5.0564,-4.9056,-4.7515,-4.7306,-4.5986,-4.4949,-4.6002,-4.619,-4.6362,-4.7603,-4.7251,-4.6596,-4.6596,-4.5949,-4.5397,-4.5397,-4.5397,-4.5397,-4.5397,-4.4803,-4.3828,-4.2447,-4.1585,-4.1067,-4.0929,-4.0894,-4.0894,-4.0894,-4.0894,-4.0894,-4.0894,-4.0308,-3.9871,-3.9698,-3.9146,-3.8456,-3.7754,-3.7077,-3.6732,-3.6732,-3.6146,-3.6146,-3.6732,-3.6851,-3.7269,-3.7965,-3.7999,-3.738,-2.5326,-2.5096,-2.5437,-2.5366,-2.7756,-3.0646,0.0,0.0,-3.7841,-3.8636,-4.1335,-4.3805,-4.4388,-4.6644,-4.8566,-4.9002,-5.0992,-5.2923,-5.4108,-5.4409,-5.4822,-5.5518,-5.5518,-5.5818,-5.6662,-5.6849,-5.7525,-5.9065,-5.9253,-5.929,-5.929,-5.929,-5.9215,-5.9027,-5.9215,-5.9591,-6.0191,-6.0379,-6.0454,-6.0454,-6.0454,-6.0041,-5.929,-5.929,-5.929,-5.929,-5.9253,-5.9234,-5.9215,-5.9178,-5.9159,-5.912,-5.8628,-5.8402,-5.8208,-5.6737,-5.6421,-5.6505,-5.4726,-5.408,-5.3911,-5.3169,-5.2404,-5.1815,-5.1801,-5.145,-5.0828,-4.9881,-4.9785,-4.9885,-4.9567,-4.8947,-4.8465,-4.8637,-4.7603,-4.6596,-4.6596,-4.5949,-4.5397,-4.5397,-4.5397,-4.5397,-4.5397,-4.4803,-4.4035,-4.3172,-4.2378,-4.1654,-4.0998,-4.0894,-4.0894,-4.0894,-4.0894,-4.0894,-4.0894,-4.0825,-4.048,-3.9733,-3.9629,-3.925,-3.8491,-3.8387,-3.8318,-3.8318,-3.8249,-3.8249,-3.8318,-3.8375,-3.8432,-3.8501,-3.8646,-3.8738,-2.9988,-3.0792,0.0,0.0,-3.4332,-3.7462,-3.842,-4.0296,-4.2161,-4.3312,-4.5306,-4.6826,-4.7035,-4.7507,-4.8549,0.0,-5.096,-5.1818,-5.4071,-5.4409,-5.4334,-5.4221,-5.332,-5.3282,-5.4597,-5.6061,-5.6962,-5.715,-5.8464,-5.929,-5.929,-5.929,-5.929,-5.929,-5.9778,-6.0229,-6.0604,-6.1055,-6.128,-6.128,-6.083,-6.0417,-6.0041,-5.9515,-5.929,-5.929,-5.929,-5.929,-5.929,-5.929,-5.929,-5.9253,-5.877,-5.875,-5.8831,-5.7485,-5.713,-5.7132,-5.6,-5.5659,-5.5434,-5.4162,-5.3218,-5.2467,-5.1708,-5.1325,-5.1044,-5.0592,-5.0647,-5.0749,-5.0537,-4.9992,-4.9528,-4.9528,-4.87,-4.7741,-4.7327,-4.6665,-4.5949,-4.55,-4.5397,-4.5397,-4.5397,-4.5121,-4.4699,-4.3966,-4.2792,-4.1723,-4.0998,-4.0894,-4.0894,-4.0894,-4.0894,-4.0894,-4.0894,-4.0894,-4.0756,-4.0446,-4.0411,-4.0273,-3.9963,-3.9491,-3.925,-3.925,-3.8801,-3.8594,-3.8594,-3.8661,-3.8948,-3.9363,-3.9408,-3.9807,-3.2244,0.0,0.0,-3.6323,-3.9569,-4.2728,-4.2871,-4.3995,-4.5316,-4.6311,-4.735,-4.806,-4.8069,-4.776,0.0,-5.1312,-5.1024,-5.1373,-5.4033,-5.4221,-5.3658,-5.2623,-5.1233,-5.0466,-5.0767,-5.3883,-5.5986,-5.6269,-5.8164,-5.929,-5.929,-5.929,-5.9403,-5.9666,-6.0266,-6.083,-6.128,-6.1881,-6.2144,-6.2144,-6.1318,-6.083,-6.0567,-5.9703,-5.929,-5.929,-5.929,-5.929,-5.929,-5.929,-5.929,-5.9272,-5.8927,-5.9006,-5.9197,-5.828,-5.7845,-5.7637,-5.6957,-5.6763,-5.6551,-5.5399,-5.4469,-5.3635,-5.2488,-5.1988,-5.1657,-5.1008,-5.091,-5.0964,-5.0675,-5.0291,-5.0011,-5.0011,-4.939,-4.8603,-4.7844,-4.7113,-4.6389,-4.5569,-4.5397,-4.5397,-4.5397,-4.5397,-4.5121,-4.4414,-4.3345,-4.2309,-4.1343,-4.1032,-4.0894,-4.0894,-4.0894,-4.0894,-4.0894,-4.0894,-4.0894,-4.0894,-4.0894,-4.0894,-4.0894,-4.0342,-4.0008,-4.0008,-3.9514,-3.9238,-3.9238,-3.934,-3.9662,-4.0181,-4.0204,-4.0631,0.0,0.0,-3.6203,-3.7916,-4.1391,-4.4657,-4.5476,-4.6818,-4.7795,-4.7438,-4.7378,-4.7548,-4.7925,-4.8616,-4.9732,-5.1499,-5.2398,-5.3256,-5.4242,-5.3733,-5.2623,-5.097,-5.0053,-4.8288,0.0,-4.994,-5.4597,-5.777,-5.884,-5.929,-5.929,-5.929,-5.9703,-6.0529,-6.0604,-6.1393,-6.3008,-6.3045,-6.3045,-6.3045,-6.2181,-6.1355,-6.0567,-5.9703,-5.929,-5.929,-5.929,-5.929,-5.929,-5.929,-5.929,-5.929,-5.9272,-5.9272,-5.929,-5.9253,-5.8967,-5.8439,-5.7425,-5.7091,-5.7091,-5.7029,-5.6486,-5.5654,-5.4919,-5.4487,-5.379,-5.1457,-5.1166,-5.1322,-5.0291,-5.0011,-5.0011,-5.0011,-4.939,-4.8603,-4.7844,-4.7113,-4.6389,-4.5569,-4.5397,-4.5397,-4.5397,-4.5397,-4.5121,-4.4414,-4.4276,-4.369,-4.2171,-4.1343,-4.0894,-4.0894,-4.0894,-4.0894,-4.0894,-4.0894,-4.0894,-4.0894,-4.0894,-4.0894,-4.0894,-4.0894,-4.086,-4.086,-4.086,-4.0825,-4.0825,-4.0825,-4.086,-4.086,-4.1012,-4.1093,0.0,0.0,-4.034,-4.1485,-4.4408,-4.7233,-4.8106,-4.821,-4.8154,-4.846,-4.6706,-4.5071,-4.5091,-4.4766,-4.5397,-4.8153,-4.8348,-4.9609,-5.3808,-5.133,-4.9903,-5.2097,-4.9678,0.0,0.0,0.0,0.0,-5.3132,-5.6512,-5.8727,-5.9253,-5.929,-5.9703,-6.0567,-6.113,-6.1956,-6.3083,-6.3608,-6.3909,-6.3871,-6.2482,-6.1393,-6.0567,-5.9703,-5.929,-5.929,-5.929,-5.929,-5.929,-5.929,-5.929,-5.929,-5.929,-5.929,-5.929,-5.929,-5.9215,-5.8986,-5.8524,-5.8354,-5.8267,-5.7606,-5.6806,-5.6043,-5.5235,-5.4496,-5.3694,-5.2881,-5.239,-5.2078,-5.1676,-5.1322,-5.0991,-5.062,-5.0327,-4.9833,-4.8681,-4.8224,-4.7672,-4.6431,-4.619,-4.6017,-4.55,-4.5397,-4.5121,-4.4414,-4.3448,-4.2585,-4.2068,-4.1378,-4.0894,-4.0894,-4.0894,-4.0894,-4.0894,-4.0894,-4.0894,-4.0894,-4.0894,-4.0894,-4.0894,-4.0894,-4.0894,-4.0894,-4.0894,-4.0894,-4.0894,-4.0894,-4.0894,-4.0894,-4.0976,-4.1023,-3.6298,-3.9675,-4.2713,-4.4787,-4.7107,-4.8902,-4.9126,-4.8853,-4.8404,-4.782,-4.6146,-4.4347,-4.2943,-4.2335,-4.3149,-4.6473,-4.6486,-4.804,-5.362,-5.1405,-4.9978,-5.2059,-4.994,0.0,0.0,0.0,0.0,-5.1646,-5.5085,-5.7432,-5.7938,-5.7976,-5.8915,-6.098,-6.1543,-6.2369,-6.3533,-6.4021,-6.4134,-6.3834,-6.2444,-6.1393,-6.0567,-5.9703,-5.884,-5.8051,-5.8915,-5.8802,-5.8051,-5.8915,-5.929,-5.929,-5.929,-5.929,-5.929,-5.929,-5.929,-5.9272,-5.9063,-5.9004,-5.8885,-5.8172,-5.7602,-5.7019,-5.62,-5.546,-5.4688,-5.3922,-5.3298,-5.2723,-5.2246,-5.1848,-5.15,-5.1175,-5.1096,-5.0726,-4.9388,-4.9077,-4.8605,-4.6899,-4.6596,-4.6355,-4.5535,-4.5397,-4.5225,-4.4768,-4.363,-4.262,-4.2043,-4.1378,-4.0894,-4.0894,-4.0894,-4.0894,-4.0894,-4.0894,-4.0894,-4.0894,-4.0894,-4.0894,-4.0894,-4.0894,-4.0894,-4.0894,-4.0894,-4.0894,-4.0894,-4.0894,-4.0894,-4.0894,-4.0894,-4.0976,-4.033,-4.2325,-4.3554,-4.7667,-4.9252,-4.9568,-4.8684,-4.8831,-4.8403,-4.5579,-4.5475,-4.4756,0.0,0.0,-4.2534,-4.6073,-4.654,-4.8247,-5.3528,-5.3524,-5.2435,0.0,0.0,0.0,0.0,0.0,0.0,-5.3261,0.0,-5.5743,-5.5781,-5.5781,-5.7638,-6.1656,-6.1806,-6.2595,-6.4284,-6.4284,-6.3909,-6.3158,-6.2219,-6.1393,-6.0642,-5.9703,-5.8014,-5.5931,-5.8276,-5.7976,-5.5968,-5.8351,-5.929,-5.929,-5.929,-5.929,-5.929,-5.929,-5.929,-5.9272,-5.9082,-5.9004,-5.8965,-5.8781,-5.8719,-5.857,-5.779,-5.7348,-5.6688,-5.4671,-5.3882,-5.3362,-5.2075,-5.1712,-5.1676,-5.1651,-5.1662,-5.1358,-4.9978,-4.9732,-4.9188,-4.7165,-4.6719,-4.6382,-4.5535,-4.5397,-4.5397,-4.5423,-4.4794,-4.3759,-4.2275,-4.1412,-4.0987,-4.0918,-4.0918,-4.0918,-4.0918,-4.0894,-4.0894,-4.0894,-4.0894,-4.0894,-4.0894,-4.0894,-4.0894,-4.0918,-4.0918,-4.0918,-4.0918,-4.0918,-4.0894,-4.0894,-4.0894,-4.0894,-3.9985,-4.4005,-4.8216,-4.9304,-4.9678,-4.973,-4.9381,-4.7898,-4.5902,-4.3227,-4.0342,-3.7241,0.0,0.0,0.0,-4.0768,-4.1531,0.0,-5.1464,-5.0767,0.0,0.0,0.0,-5.3111,-5.4521,-5.5986,0.0,0.0,-5.6211,-5.7695,-5.8314,-5.8351,-5.9403,-6.1731,-6.1806,-6.2595,-6.4284,-6.4284,-6.4192,-6.3984,-6.2482,-6.1693,-6.143,-5.9966,-5.8952,-5.8389,-5.9027,-5.8952,-5.8427,-5.9027,-5.929,-5.929,-5.929,-5.929,-5.929,-5.929,-5.929,-5.929,-5.9234,-5.9215,-5.9178,-5.8984,-5.8905,-5.8848,-5.85,-5.7934,-5.7279,-5.673,-5.5523,-5.4354,-5.3989,-5.3339,-5.2694,-5.2291,-5.2654,-5.2714,-5.1383,-5.1566,-5.1505,-4.9756,-4.8201,-4.6812,-4.5614,-4.5397,-4.5476,-4.5675,-4.5066,-4.4193,-4.3024,-4.2375,-4.1777,-4.1186,-4.1117,-4.1117,-4.1117,-4.0989,-4.0894,-4.0894,-4.0894,-4.0894,-4.0894,-4.0894,-4.0965,-4.1117,-4.1117,-4.1117,-4.1117,-4.1117,-4.1059,-4.0894,-4.0894,-4.0894,-4.3712,-4.6918,-5.0004,-5.0386,-5.0169,-4.9304,-4.7287,-4.542,-4.2929,-3.8782,-3.6329,0.0,0.0,0.0,0.0,0.0,0.0,0.0,-5.0365,-5.0434,-5.0654,0.0,-5.3524,0.0,-5.7187,-5.8164,-5.8051,0.0,-5.6832,-5.7207,-5.7676,-5.7676,-5.8952,-6.1693,-6.1806,-6.2595,-6.4284,-6.4284,-6.4284,-6.4304,-6.2595,-6.1806,-6.1731,-6.0041,-5.8727,-5.7751,0.0,-5.8689,-5.7751,-5.884,-5.929,-5.929,-5.929,-5.929,-5.929,-5.929,-5.929,-5.929,-5.929,-5.929,-5.9272,-5.9159,-5.912,-5.9101,-5.9022,-5.8587,-5.808,-5.7744,-5.6803,-5.5751,-5.501,-5.4391,-5.3822,-5.3167,-5.336,-5.3412,-5.2408,-5.2497,-5.221,-5.0355,-4.8769,-4.7378,-4.6224,-4.5945,-4.5895,-4.5945,-4.5621,-4.5047,-4.4133,-4.3184,-4.2277,-4.1473,-4.1277,-4.1209,-4.1209,-4.1035,-4.0894,-4.0894,-4.0989,-4.1035,-4.1035,-4.1152,-4.1267,-4.1368,-4.1255,-4.1209,-4.1209,-4.1094,-4.1012,-4.0894,-4.0894,-4.0942,-4.8377,-4.967,-5.0237,-5.0853,-5.0386,-4.8615,-4.442,-4.2509,-3.9929,-3.4056,0.0,-3.203,-2.8181,0.0,-3.326,-3.7511,0.0,-4.436,-4.9102,-5.1003,-5.2193,-5.2961,-5.3921,-5.5535,-5.8014,-5.8577,-5.8952,-5.929,-5.73,-5.6081,-5.6081,-5.6081,-5.7863,-6.1693,-6.1919,-6.2707,-6.4284,-6.4284,-6.4247,-6.4096,-6.2557,-6.1731,-6.1581,-6.0004,-5.8126,-5.6194,-5.8389,0.0,-5.6269,-5.8427,-5.929,-5.929,-5.929,-5.929,-5.929,-5.929,-5.929,-5.929,-5.929,-5.929,-5.929,-5.929,-5.929,-5.929,-5.929,-5.9178,-5.8894,-5.8183,-5.7711,-5.7049,-5.5599,-5.5022,-5.4668,-5.398,-5.3868,-5.3809,-5.3244,-5.2978,-5.2222,-5.0209,-4.9081,-4.8133,-4.7218,-4.6788,-4.6495,-4.6363,-4.6266,-4.5996,-4.527,-4.3909,-4.269,-4.1894,-4.1461,-4.1255,-4.1255,-4.1059,-4.0894,-4.0894,-4.1071,-4.1209,-4.1209,-4.1471,-4.1604,-4.1648,-4.1413,-4.13,-4.13,-4.1129,-4.1012,-4.0989,-4.0989,-4.1105,-4.684,-4.8755,-5.0853,-5.027,-4.9476,-4.8048,-4.5136,-4.1567,0.0,0.0,0.0,-2.7477,-2.6063,-2.766,0.0,-3.572,0.0,0.0,0.0,0.0,-5.1968,0.0,0.0,0.0,0.0,0.0,0.0,0.0,0.0,-5.8652,-5.8652,-5.8652,-5.9628,-6.1731,-6.2482,-6.3345,-6.4284,-6.4284,-6.3946,-6.3308,-6.2257,-6.143,-6.0792,-5.9778,-5.9065,-5.8689,-5.9102,0.0,-5.8689,-5.9102,-5.929,-5.929,-5.929,-5.929,-5.929,-5.929,-5.929,-5.929,-5.929,-5.929,-5.929,-5.929,-5.929,-5.929,-5.929,-5.9272,-5.9197,-5.9084,-5.7941,-5.6687,-5.6388,-5.5155,-5.398,-5.3831,-5.4314,-5.4592,-5.3809,-5.3622,-5.3188,-5.1715,-5.0712,-4.9763,-4.8568,-4.746,-4.6796,-4.7013,-4.673,-4.633,-4.5734,-4.4711,-4.3726,-4.2913,-4.2044,-4.1538,-4.1538,-4.1152,-4.0894,-4.0894,-4.1071,-4.1209,-4.1209,-4.1471,-4.1692,-4.1831,-4.1788,-4.1788,-4.1788,-4.1744,-4.1635,-4.1493,-4.1493,-4.1493,-4.704,-4.891,-5.1008,-5.012,-4.8905,-4.6552,-4.1285,0.0,0.0,0.0,0.0,-2.3094,-2.2222,0.0,0.0,0.0,0.0,0.0,0.0,0.0,0.0,0.0,0.0,0.0,0.0,0.0,0.0,0.0,0.0,-5.7938,-5.9215,-5.9741,-6.0342,-6.1168,-6.1994,-6.282,-6.3683,-6.3233,-6.3008,-6.3083,-6.1806,-6.098,-6.0567,-5.9703,-5.929,-5.929,-5.929,0.0,-5.7488,-5.8764,-5.8539,-5.7488,-5.8802,-5.929,-5.929,-5.929,-5.929,-5.929,-5.929,-5.929,-5.929,-5.929,-5.929,-5.929,-5.929,-5.929,-5.929,-5.929,-5.8371,-5.7285,-5.6873,-5.5752,-5.4614,-5.4221,-5.439,-5.4558,-5.4056,-5.3963,-5.3647,-5.2567,-5.1619,-5.0636,-4.9615,-4.8311,-4.7385,-4.7406,-4.7084,-4.674,-4.6462,-4.5637,-4.4565,-4.3248,-4.2657,-4.2159,-4.1639,-4.1403,-4.1267,-4.1267,-4.1436,-4.1569,-4.1569,-4.1809,-4.2016,-4.2121,-4.1959,-4.1895,-4.1895,-4.1766,-4.1714,-4.1604,-4.1604,-4.167,-4.7861,-4.9493,-5.0969,-4.9887,-4.8438,-4.532,-3.7782,-3.3817,0.0,0.0,-2.0514,-2.0054,-1.9856,0.0,0.0,0.0,0.0,0.0,0.0,0.0,0.0,0.0,0.0,0.0,0.0,0.0,0.0,0.0,0.0,0.0,-5.9215,-5.9966,-6.0417,-6.0604,-6.1205,-6.1956,-6.282,-6.2144,-6.2069,-6.2557,-6.1243,-6.0492,-6.0304,-5.9628,-5.929,-5.929,-5.929,0.0,0.0,-5.8258,-5.7845,-5.5856,-5.8333,-5.9272,-5.929,-5.929,-5.929,-5.929,-5.929,-5.929,-5.929,-5.929,-5.929,-5.929,-5.929,-5.929,-5.929,-5.929,-5.8614,-5.7713,-5.7075,-5.6136,-5.518,-5.4559,-5.4409,-5.4375,-5.4198,-5.4163,-5.3975,-5.3322,-5.2228,-5.1245,-5.0592,-4.9178,-4.8021,-4.7862,-4.7506,-4.7232,-4.7143,-4.6635,-4.5638,-4.392,-4.3363,-4.2736,-4.1763,-4.1626,-4.1604,-4.1604,-4.1766,-4.1895,-4.1895,-4.2163,-4.2308,-4.2308,-4.2065,-4.198,-4.198,-4.1845,-4.1758,-4.1758,-4.1758,-4.1845,-4.8832,-5.0425,-5.0814,-4.9143,-4.7994,-4.5492,-3.8568,0.0,0.0,-2.3863,-2.0872,-1.9896,-2.2119,-2.3835,0.0,0.0,0.0,0.0,0.0,0.0,0.0,0.0,0.0,0.0,0.0,0.0,0.0,0.0,0.0,0.0,-5.929,-5.9365,-5.9778,-6.0567,-6.068,-6.1093,-6.1919,-6.1844,-6.1468,-6.083,-6.068,-6.0191,-5.9403,-5.9328,-5.929,-5.929,-5.929,0.0,0.0,-5.8222,-5.7772,-5.5856,-5.8259,-5.9253,-5.929,-5.929,-5.929,-5.929,-5.929,-5.929,-5.929,-5.929,-5.929,-5.929,-5.929,-5.929,-5.929,-5.929,-5.8201,-5.7,-5.6925,-5.5723,-5.4484,-5.4409,-5.4409,-5.4409,-5.4392,-5.4392,-5.4354,-5.4279,-5.2932,-5.1807,-5.1731,-5.0067,-4.8729,-4.8711,-4.8328,-4.7979,-4.7591,-4.7806,-4.7425,-4.5981,-4.4185,-4.2745,-4.1945,-4.1714,-4.1604,-4.1604,-4.1766,-4.1895,-4.1895,-4.2163,-4.2308,-4.2308,-4.2287,-4.2267,-4.2267,-4.2246,-4.2246,-4.2246,-4.2246,-4.2246,-4.5048,-4.8161,-5.0775,-4.9027,-4.7545,-4.4466,-3.6591,0.0,-2.7517,-2.1851,-1.9458,-1.8852,-2.0356,-2.185,-2.4208,-2.8366,-2.8924,-3.1945,0.0,0.0,0.0,0.0,0.0,0.0,0.0,0.0,0.0,0.0,0.0,0.0,-5.9159,-5.929,-5.9478,-5.9816,-5.9816,-6.0229,-6.1055,-6.0567,-6.0417,-6.0604,-6.0079,-5.9628,-5.929,-5.929,-5.929,-5.929,-5.929,0.0,0.0,-5.7566,-5.6873,-5.3706,-5.766,-5.9215,-5.9253,-5.9272,-5.929,-5.929,-5.929,-5.929,-5.929,-5.929,-5.929,-5.929,-5.929,-5.929,-5.929,-5.929,-5.8126,-5.6887,-5.6887,-5.5648,-5.4409,-5.4409,-5.4409,-5.4409,-5.4409,-5.4409,-5.4409,-5.4409,-5.3057,-5.1893,-5.1893,-5.0172,-4.8799,-4.8799,-4.8477,-4.8119,-4.7999,-4.8117,-4.7806,-4.6752,-4.5464,-4.4265,-4.3089,-4.2588,-4.2236,-4.2037,-4.21,-4.2163,-4.2163,-4.2246,-4.2374,-4.2596,-4.2394,-4.2394,-4.2596,-4.2394,-4.2308,-4.2308,-4.2308,-4.2308,-4.2403,-4.6408,-5.0064,-4.8599,-4.6535,-4.2845,0.0,0.0,-2.6088,-2.0376,-1.8693,-1.8442,-1.9013,-2.0224,-2.2325,-2.603,-2.7127,-3.0548,-3.9229,0.0,0.0,0.0,0.0,0.0,0.0,0.0,0.0,0.0,0.0,0.0,0.0,-5.9215,-5.9234,-5.929,-5.929,-5.9591,-6.0229,-5.9591,-5.9591,-6.0229,-5.9553,-5.8878,-5.8202,-5.8878,-5.8822,-5.8203,-5.8915,0.0,0.0,-5.7398,-5.6631,-5.3227,-5.7492,-5.9176,-5.9196,-5.9272,-5.9272,-5.929,-5.929,-5.929,-5.929,-5.929,-5.929,-5.929,-5.929,-5.929,-5.929,-5.929,-5.8126,-5.6774,-5.6286,-5.5272,-5.4409,-5.4409,-5.4409,-5.4409,-5.4409,-5.4409,-5.4409,-5.4409,-5.3057,-5.1893,-5.1893,-5.0293,-4.9006,-4.9006,-4.8783,-4.8532,-4.8421,-4.8495,-4.8274,-4.7426,-4.6544,-4.537,-4.3924,-4.3107,-4.2596,-4.2454,-4.2454,-4.2514,-4.2632,-4.2632,-4.2674,-4.281,-4.2557,-4.2534,-4.2655,-4.2414,-4.2308,-4.2308,-4.2308,-4.2308,-4.233,-4.6014,-4.841,-4.7539,-4.4777,-4.065,0.0,-2.9924,-2.536,-2.0254,-1.9145,-1.9087,-1.9104,-1.9742,-2.1691,-2.5895,-2.7274,-3.0368,-3.7689,0.0,0.0,0.0,0.0,0.0,0.0,0.0,0.0,0.0,0.0,0.0,0.0,-5.9004,-5.9082,-5.929,-5.929,-5.929,-5.929,-5.929,-5.929,-5.9328,-5.9234,-5.7922,-5.5617,-5.7921,-5.7696,0.0,0.0,0.0,0.0,-5.7896,-5.7449,-5.5511,-5.7951,-5.9039,-5.9196,-5.9196,-5.9253,-5.929,-5.929,-5.929,-5.929,-5.929,-5.929,-5.929,-5.929,-5.929,-5.929,-5.929,-5.8126,-5.6512,-5.4859,-5.4409,-5.4409,-5.4409,-5.4409,-5.4409,-5.4409,-5.4409,-5.4409,-5.4409,-5.3057,-5.1893,-5.1893,-5.0579,-4.949,-4.949,-4.9474,-4.9311,-4.885,-4.9193,-4.9144,-4.8272,-4.7107,-4.5762,-4.4229,-4.3001,-4.2454,-4.2772,-4.2791,-4.2977,-4.3353,-4.337,-4.3195,-4.281,-4.281,-4.2635,-4.2308,-4.2308,-4.2308,-4.2308,-4.2308,-4.2308,-3.5193,-3.8549,-4.1131,-3.9082,-3.7756,-3.5542,-3.0146,-2.7411,-2.4869,-2.0828,-1.9527,-1.9278,-1.987,-2.0144,-2.1879,-2.6713,-2.767,0.0,0.0,0.0,0.0,0.0,0.0,0.0,0.0,0.0,0.0,0.0,0.0,0.0,0.0,-5.8982,-5.9063,-5.9234,-5.9234,-5.9234,-5.9234,-5.9234,-5.9196,-5.9082,-5.9063,-5.7772,-5.5491,-5.792,-5.7696,0.0,0.0,0.0,0.0,-5.7876,-5.7446,-5.5491,-5.7931,-5.894,-5.9,-5.9061,-5.9063,-5.9082,-5.9082,-5.914,-5.9234,-5.9234,-5.9272,-5.929,-5.929,-5.929,-5.9065,-5.7976,-5.73,-5.6512,-5.4822,-5.4409,-5.4409,-5.4409,-5.4409,-5.4409,-5.4409,-5.4409,-5.4409,-5.4409,-5.3057,-5.1893,-5.1893,-5.0579,-4.949,-4.949,-4.9978,-5.0284,-5.0134,-5.0215,-5.0199,-4.9948,-4.834,-4.6732,-4.5388,-4.3907,-4.3087,-4.3195,-4.3212,-4.3265,-4.3387,-4.3141,-4.3069,-4.3212,-4.2713,-4.2498,-4.2655,-4.2655,-4.2655,-4.2655,-4.2655,-4.2498,0.0,-3.3649,-3.6039,-3.4459,-3.3328,-3.1573,-2.7731,-2.5428,-2.343,-2.0931,-2.0219,-2.0169,-2.0359,-2.0888,-2.2291,-2.545,-2.7536,0.0,0.0,0.0,0.0,0.0,0.0,0.0,0.0,0.0,0.0,0.0,0.0,0.0,0.0,-5.8862,-5.8962,-5.9098,-5.91,-5.9119,-5.9119,-5.9119,-5.91,-5.9004,-5.8982,-5.7694,-5.5417,-5.7804,-5.756,0.0,0.0,0.0,0.0,-5.8189,-5.7888,-5.666,-5.8223,-5.8859,-5.8899,-5.8942,-5.9002,-5.9004,-5.9004,-5.9043,-5.9119,-5.9119,-5.914,-5.9103,-5.884,-5.8803,-5.8577,-5.7263,-5.6662,-5.6099,-5.4747,-5.4409,-5.4409,-5.4409,-5.4409,-5.4409,-5.4409,-5.4409,-5.4409,-5.4409,-5.3057,-5.1893,-5.1893,-5.0579,-4.949,-4.949,-5.0166,-5.0707,-5.0707,-5.0707,-5.066,-5.0492,-4.8816,-4.7353,-4.6558,-4.487,-4.3769,-4.3664,-4.3627,-4.3693,-4.3823,-4.3574,-4.349,-4.3627,-4.3178,-4.2977,-4.3032,-4.3032,-4.2959,-4.281,-4.281,-4.2635,0.0,-3.0424,0.0,0.0,-3.0595,-2.8406,-2.6667,-2.3857,0.0,-2.0568,-2.1104,-2.1485,-2.0814,-2.2052,-2.3202,-2.3346,-2.7456,0.0,0.0,0.0,0.0,0.0,0.0,0.0,0.0,0.0,0.0,0.0,0.0,0.0,0.0,-5.8698,-5.8777,-5.8879,-5.8942,-5.8965,-5.8984,-5.8984,-5.891,-5.8703,-5.8828,-5.7501,-5.5006,-5.755,-5.736,0.0,0.0,0.0,0.0,-5.8698,-5.8698,-5.8698,-5.8698,-5.8797,-5.8879,-5.8879,-5.8922,-5.8965,-5.8965,-5.8984,-5.8984,-5.891,-5.8929,-5.878,-5.8053,-5.7959,-5.792,-5.7037,-5.6211,-5.5405,-5.4597,-5.4409,-5.4409,-5.4409,-5.4409,-5.4409,-5.4409,-5.4409,-5.4409,-5.4409,-5.3057,-5.1893,-5.1893,-5.0579,-4.949,-4.949,-5.0241,-5.0782,-5.0782,-5.0782,-5.0654,-5.0259,-4.879,-4.7785,-4.7661,-4.5855,-4.4549,-4.415,-4.4129,-4.4229,-4.4468,-4.4468,-4.4325,-4.3986,-4.3955,-4.3812,-4.3422,-4.3422,-4.3248,-4.2885,-4.2885,-4.2713,-2.0027,0.0,-2.4251,-2.3591,-2.3472,-2.3081,0.0,-2.0831,-2.0668,-2.0443,0.0,0.0,-2.3179,-2.4768,-2.6533,0.0,0.0,0.0,0.0,0.0,0.0,0.0,0.0,0.0,0.0,0.0,0.0,0.0,0.0,0.0,0.0,-5.8698,-5.8698,-5.8777,-5.876,-5.8821,-5.894,-5.894,-5.7931,-5.5953,-5.7847,-5.6472,-5.2456,-5.6729,-5.736,0.0,0.0,0.0,-5.8698,-5.8698,-5.8698,-5.8698,-5.8698,-5.8698,-5.8777,-5.8777,-5.8739,-5.8781,-5.8781,-5.8821,-5.8848,-5.8255,-5.807,-5.794,-5.7192,-5.7417,-5.7641,-5.6288,-5.5743,-5.5405,-5.4597,-5.4409,-5.4409,-5.4409,-5.4409,-5.4409,-5.4409,-5.4409,-5.4409,-5.4409,-5.3057,-5.1893,-5.1893,-5.0579,-4.949,-4.949,-5.0729,-5.163,-5.163,-5.163,-5.1598,-5.1478,-5.0054,-4.8781,-4.8106,-4.6797,-4.5765,-4.5342,-4.5296,-4.5063,-4.4519,-4.4266,-4.4064,-4.3986,-4.3693,-4.3644,-4.386,-4.386,-4.3828,-4.371,-4.371,-4.3526,-1.7077,-1.9757,-2.2286,-2.22,-2.2547,-2.2738,-2.2194,0.0,0.0,0.0,0.0,0.0,0.0,0.0,0.0,0.0,0.0,0.0,0.0,0.0,0.0,0.0,0.0,0.0,0.0,0.0,0.0,0.0,0.0,0.0,0.0,-5.8698,-5.8698,-5.8698,-5.8698,-5.8719,-5.8818,-5.8818,-5.7513,-5.5057,-5.7509,-5.6729,-5.32,-5.6989,-5.7992,0.0,0.0,0.0,-5.8624,-5.7472,-5.7695,-5.8698,-5.8698,-5.8698,-5.8698,-5.8698,-5.8698,-5.8698,-5.8698,-5.8516,-5.8206,-5.7782,-5.7392,-5.6964,-5.6239,-5.6314,-5.6519,-5.5803,-5.533,-5.4972,-5.4521,-5.4409,-5.4409,-5.4409,-5.4409,-5.4409,-5.4409,-5.4409,-5.4409,-5.4409,-5.3057,-5.1893,-5.1893,-5.0579,-4.949,-4.949,-5.0879,-5.1893,-5.1893,-5.2231,-5.2494,-5.2494,-5.1029,-4.9865,-4.9393,-4.8396,-4.7205,-4.5796,-4.5697,-4.5359,-4.4519,-4.4325,-4.4237,-4.4237,-4.4033,-4.4033,-4.4237,-4.4237,-4.4162,-4.3986,-4.3986,-4.3758,-1.6693,-2.0039,-2.3309,-2.3806,-2.4185,-2.4603,-2.5024,0.0,0.0,0.0,0.0,0.0,0.0,0.0,0.0,0.0,0.0,0.0,0.0,0.0,0.0,0.0,0.0,0.0,0.0,0.0,0.0,0.0,0.0,0.0,0.0,-5.8825,-5.8825,-5.8801,-5.8801,-5.876,-5.8698,-5.8698,-5.7472,-5.5057,-5.7509,-5.7398,-5.5075,-5.7583,-5.8698,-5.8586,0.0,0.0,-5.8549,-5.6432,-5.6803,-5.8698,-5.8698,-5.8698,-5.8698,-5.8698,-5.8698,-5.8698,-5.8549,-5.8066,-5.7472,-5.7212,-5.6655,-5.5969,-5.5247,-5.5025,-5.5081,-5.53,-5.4883,-5.4375,-5.4375,-5.4375,-5.4375,-5.4375,-5.4375,-5.4375,-5.4375,-5.4375,-5.4392,-5.4392,-5.304,-5.1893,-5.1893,-5.0579,-4.9527,-4.9678,-5.0954,-5.1968,-5.2081,-5.2736,-5.3186,-5.3186,-5.1834,-5.082,-5.0707,-5.0091,-4.8664,-4.6223,-4.6073,-4.566,-4.4707,-4.467,-4.4632,-4.4482,-4.4482,-4.4482,-4.4482,-4.4482,-4.4354,-4.4101,-4.4101,-4.3908,-1.8142,-2.1403,-2.3767,-2.2427,-2.3728,-2.4997,-2.3692,0.0,0.0,0.0,0.0,0.0,0.0,0.0,0.0,0.0,0.0,0.0,0.0,0.0,0.0,0.0,0.0,0.0,0.0,0.0,0.0,0.0,0.0,0.0,0.0,-5.9432,-5.9467,-5.9122,-5.9122,-5.8986,-5.8698,-5.8698,-5.7472,-5.5057,-5.7509,-5.7398,-5.5075,-5.7583,-5.8698,-5.8698,0.0,-5.8364,-5.8661,-5.8289,-5.8364,-5.8698,-5.8698,-5.8698,-5.8698,-5.8698,-5.8698,-5.8624,-5.7918,-5.7621,-5.7286,-5.5837,-5.5317,-5.5077,-5.441,-5.4168,-5.4205,-5.4296,-5.4257,-5.4163,-5.4308,-5.4235,-5.4145,-5.4145,-5.4145,-5.4145,-5.4145,-5.4235,-5.4326,-5.4326,-5.299,-5.1893,-5.1893,-5.0579,-4.9715,-5.0391,-5.1292,-5.2156,-5.2923,-5.3111,-5.3186,-5.3186,-5.2306,-5.1442,-5.0782,-5.0595,-4.9715,-4.7913,-4.78,-4.7124,-4.5585,-4.551,-4.5209,-4.4519,-4.4482,-4.4482,-4.4482,-4.4482,-4.4468,-4.4411,-4.4411,-4.4397,-1.6784,-1.9929,-2.3032,-2.3645,-2.5725,-2.8124,-3.0153,-2.7073,0.0,0.0,0.0,0.0,0.0,0.0,0.0,0.0,0.0,0.0,0.0,0.0,0.0,0.0,0.0,0.0,0.0,0.0,0.0,0.0,0.0,0.0,0.0,0.0,-5.9744,-5.9537,-5.952,-5.9343,-5.8967,-5.8967,-5.7617,-5.5057,-5.7509,-5.7398,-5.5075,-5.7583,-5.8698,-5.8624,0.0,-5.7472,-5.8624,-5.7249,-5.7509,-5.8698,-5.8698,-5.8698,-5.8698,-5.8698,-5.8438,-5.7992,-5.7621,-5.6915,-5.6023,-5.5243,-5.4723,-5.4277,-5.4,-5.3907,-5.3926,-5.4037,-5.4055,-5.4109,-5.4182,-5.4127,-5.4109,-5.4109,-5.4109,-5.4109,-5.4109,-5.4127,-5.4218,-5.429,-5.2977,-5.1865,-5.1877,-5.0579,-4.9753,-5.0595,-5.1367,-5.2193,-5.3074,-5.3599,-5.3846,-5.3846,-5.3095,-5.2456,-5.2097,-5.1233,-4.9994,-4.8288,-4.78,-4.7199,-4.6448,-4.596,-4.5547,-4.5172,-4.4707,-4.4482,-4.4482,-4.4482,-4.4482,-4.4482,-4.4482,-4.4482,-1.6353,-1.8917,-2.2138,-2.5135,0.0,-2.997,-3.5525,-3.0933,0.0,0.0,0.0,0.0,0.0,0.0,0.0,0.0,0.0,0.0,0.0,0.0,0.0,0.0,0.0,0.0,0.0,0.0,0.0,0.0,0.0,0.0,0.0,0.0,-6.0015,-5.9937,-5.9937,-5.9723,-5.9361,-5.9252,-5.8072,-5.5912,-5.7806,-5.7695,-5.5949,-5.7843,-5.8698,-5.8586,-5.6692,-5.6952,-5.8549,-5.6655,-5.6989,-5.8698,-5.8698,-5.8586,-5.8438,-5.8438,-5.7918,-5.7212,-5.6989,-5.606,-5.4983,-5.4797,-5.4314,-5.3794,-5.3794,-5.3794,-5.3813,-5.3926,-5.4,-5.4036,-5.4055,-5.4055,-5.4036,-5.4036,-5.4036,-5.4036,-5.4036,-5.4073,-5.4089,-5.3993,-5.281,-5.1774,-5.1652,-5.0429,-4.9828,-5.0842,-5.1518,-5.2268,-5.3337,-5.4033,-5.4409,-5.4409,-5.3846,-5.3412,-5.3224,-5.1646,-5.0144,-4.8852,-4.8025,-4.75,-4.7274,-4.6448,-4.5923,-4.5697,-4.4909,-4.4482,-4.4482,-4.4482,-4.4482,-4.4482,-4.4482,-4.4482,-1.9454,-2.0308,-2.1509,-2.5757,-2.633,-2.7637,-3.4356,-3.0498,0.0,-3.63,0.0,0.0,0.0,0.0,0.0,0.0,0.0,0.0,0.0,0.0,0.0,0.0,0.0,0.0,0.0,0.0,0.0,0.0,0.0,0.0,0.0,0.0,0.0,-6.0279,-6.0265,-6.0121,-5.9777,-5.9397,-5.8932,-5.8438,-5.8624,-5.8624,-5.8438,-5.8624,-5.8698,-5.8698,-5.8512,-5.8549,-5.8698,-5.8512,-5.8549,-5.8698,-5.8698,-5.8252,-5.7583,-5.7583,-5.71,-5.6283,-5.5466,-5.5094,-5.4871,-5.4128,-5.3868,-5.3794,-5.3794,-5.3794,-5.3794,-5.3794,-5.3813,-5.3832,-5.3982,-5.3926,-5.3813,-5.3813,-5.3813,-5.3813,-5.3813,-5.3963,-5.3885,-5.312,-5.2398,-5.1652,-5.0917,-5.0053,-5.0016,-5.1593,-5.1855,-5.2494,-5.4108,-5.4371,-5.4409,-5.4409,-5.4334,-5.3996,-5.3261,-5.1646,-5.067,-5.0519,-4.9753,-4.8964,-4.8138,-4.735,-4.6523,-4.5735,-4.4909,-4.4482,-4.4482,-4.4482,-4.4482,-4.4482,-4.4482,-4.4482,-1.7825,-1.9223,-2.1584,-2.6414,-2.6984,0.0,0.0,-3.4563,-3.4011,-4.1548,-3.9379,0.0,0.0,0.0,0.0,0.0,0.0,0.0,0.0,0.0,0.0,0.0,0.0,0.0,0.0,0.0,0.0,0.0,0.0,0.0,0.0,0.0,0.0,-6.061,-6.0597,-6.0468,-6.0121,-5.9962,-5.9723,-5.9381,-5.8905,-5.8698,-5.8698,-5.8698,-5.8698,-5.8698,-5.8698,-5.8698,-5.8698,-5.8698,-5.8401,-5.7918,-5.7398,-5.7026,-5.6766,-5.6766,-5.6209,-5.5466,-5.5112,-5.4686,-5.4203,-5.3905,-5.3794,-5.3794,-5.3794,-5.3794,-5.3794,-5.3794,-5.3794,-5.3794,-5.3869,-5.3813,-5.3794,-5.3794,-5.3794,-5.3794,-5.3794,-5.3479,-5.3069,-5.2826,-5.1777,-5.0837,-5.0567,-4.9867,-4.9937,-5.1586,-5.186,-5.2531,-5.4183,-5.4409,-5.4409,-5.4409,-5.4409,-5.4071,-5.3261,-5.2623,-5.1797,-5.0782,-4.994,-4.934,-4.9002,-4.8213,-4.7575,-4.7274,-4.5923,-4.5247,-4.5247,-4.4745,-4.4482,-4.4482,-4.4482,-4.4482,-1.7515,-1.9066,-2.1936,-2.6569,0.0,0.0,-3.7294,-3.7213,-3.7247,-4.386,-4.2617,0.0,0.0,0.0,0.0,0.0,0.0,0.0,0.0,0.0,0.0,0.0,0.0,0.0,0.0,0.0,0.0,0.0,0.0,0.0,0.0,0.0,0.0,0.0,-6.0012,-5.9891,-5.9664,-5.98,-5.9645,-5.9117,-5.88,-5.8723,-5.8865,-5.8865,-5.8784,-5.8698,-5.8438,-5.8326,-5.8326,-5.8066,-5.7621,-5.7063,-5.6506,-5.6134,-5.5874,-5.5874,-5.5354,-5.4611,-5.4611,-5.4277,-5.3794,-5.3794,-5.3794,-5.3794,-5.3794,-5.3794,-5.3794,-5.3794,-5.3794,-5.3794,-5.3794,-5.3794,-5.3794,-5.3794,-5.3794,-5.3794,-5.3794,-5.3181,-5.2549,-5.2362,-5.1243,-5.0271,-5.0056,-4.9583,-4.9744,-5.1166,-5.1403,-5.1924,-5.3365,-5.3553,-5.3665,-5.3907,-5.4204,-5.4183,-5.3637,-5.3337,-5.2698,-5.1571,-5.0691,-5.0016,-4.9527,-4.8664,-4.8176,-4.8176,-4.6561,-4.5697,-4.5697,-4.4895,-4.4482,-4.4482,-4.4482,-4.4482,-1.9452,-2.0456,-2.256,0.0,0.0,0.0,-3.8732,-3.7592,-3.6259,-4.2301,0.0,0.0,0.0,0.0,0.0,0.0,0.0,0.0,0.0,0.0,0.0,0.0,0.0,0.0,0.0,0.0,0.0,0.0,0.0,0.0,0.0,0.0,0.0,-5.8319,-5.8319,-5.8319,-5.8319,-5.8745,-5.856,-5.7707,-5.8243,-5.874,-5.9178,-5.9178,-5.8988,-5.8624,-5.7843,-5.7472,-5.7435,-5.6617,-5.6283,-5.6283,-5.6283,-5.5763,-5.4983,-5.4983,-5.45,-5.3794,-5.3794,-5.3794,-5.3794,-5.3794,-5.3794,-5.3794,-5.3794,-5.3794,-5.3794,-5.3794,-5.3794,-5.3794,-5.3794,-5.3794,-5.3794,-5.3794,-5.3794,-5.3794,-5.3794,-5.32,-5.2454,-5.1654,-5.0885,-5.0131,-4.9326,-4.9214,-4.9459,-5.0281,-5.0393,-5.0708,-5.1585,-5.1697,-5.2051,-5.2922,-5.3832,-5.4409,-5.4409,-5.3658,-5.3224,-5.3186,-5.2381,-5.118,-4.9565,-4.8664,-4.8213,-4.8213,-4.6561,-4.5697,-4.5697,-4.4909,-4.4482,-4.4519,-4.4482,-4.4482,-2.0852,-2.2203,0.0,0.0,0.0,0.0,0.0,-3.7756,0.0,0.0,0.0,0.0,0.0,0.0,0.0,0.0,0.0,0.0,0.0,0.0,0.0,0.0,0.0,0.0,0.0,0.0,0.0,0.0,0.0,0.0,0.0,0.0,-5.7702,-5.828,-5.8319,-5.8319,-5.8319,-5.8431,-5.8395,-5.8127,-5.8272,-5.8158,-5.7796,-5.7796,-5.7592,-5.7286,-5.7061,-5.6835,-5.658,-5.5763,-5.5391,-5.5354,-5.476,-5.4388,-5.4166,-5.4166,-5.4017,-5.3794,-5.3794,-5.3794,-5.3794,-5.3794,-5.3794,-5.3794,-5.3794,-5.3794,-5.3794,-5.3794,-5.3794,-5.3794,-5.3794,-5.3794,-5.3794,-5.3794,-5.3794,-5.3645,-5.3088,-5.2326,-5.1527,-5.0672,-4.9872,-4.9274,-4.905,-4.9064,-4.9396,-5.0196,-5.0359,-5.0708,-5.1585,-5.2217,-5.2718,-5.296,-5.3832,-5.4409,-5.4409,-5.4183,-5.3808,-5.3224,-5.2961,-5.2059,-5.0391,-5.0106,-4.9678,-4.9114,-4.7462,-4.6599,-4.6599,-4.5195,-4.4782,-4.5322,-4.4745,-4.4782,-2.3417,0.0,0.0,0.0,0.0,0.0,0.0,0.0,0.0,0.0,0.0,0.0,0.0,0.0,0.0,0.0,0.0,0.0,0.0,0.0,0.0,0.0,0.0,0.0,0.0,0.0,0.0,0.0,0.0,0.0,0.0,-5.6628,-5.6819,-5.7307,-5.7302,-5.728,-5.728,-5.7627,-5.7627,-5.728,-5.7627,-5.7388,-5.6605,-5.7043,-5.6979,-5.6519,-5.6183,-5.5753,-5.528,-5.476,-5.4537,-5.45,-5.398,-5.3794,-5.3794,-5.3794,-5.3794,-5.3794,-5.3794,-5.3794,-5.3794,-5.3794,-5.3794,-5.3794,-5.3794,-5.3794,-5.3794,-5.3794,-5.3571,-5.3311,-5.3311,-5.3088,-5.294,-5.3237,-5.3311,-5.3088,-5.2308,-5.1454,-5.0748,-5.019,-4.9447,-4.889,-4.889,-4.8962,-4.9199,-4.9646,-4.9772,-5.0121,-5.1031,-5.1939,-5.2626,-5.296,-5.3832,-5.4409,-5.4409,-5.4409,-5.4016,-5.3157,-5.317,-5.2456,-5.0719,-5.0676,-5.0316,-4.9527,-4.7838,-4.7012,-4.7012,-4.5308,-4.4909,-4.5697,-4.5209,-4.5435,-2.645,0.0,0.0,0.0,0.0,0.0,0.0,0.0,0.0,0.0,0.0,0.0,0.0,0.0,0.0,0.0,0.0,0.0,0.0,0.0,0.0,0.0,0.0,0.0,0.0,0.0,0.0,0.0,0.0,0.0,0.0,-5.5913,-5.5827,-5.5914,-5.5766,-5.5703,-5.5703,-5.6483,-5.6483,-5.5703,-5.6522,-5.6472,-5.5698,-5.6681,-5.679,-5.6121,-5.5262,-5.45,-5.3794,-5.3794,-5.3794,-5.3794,-5.3794,-5.3794,-5.3794,-5.3794,-5.3794,-5.3794,-5.3794,-5.3794,-5.3794,-5.3794,-5.3794,-5.3794,-5.372,-5.3683,-5.3683,-5.3608,-5.3051,-5.2494,-5.2494,-5.1936,-5.1565,-5.2234,-5.2419,-5.2271,-5.1454,-5.0673,-5.0079,-5.0005,-4.941,-4.889,-4.889,-4.889,-4.889,-4.889,-4.889,-4.9222,-5.0053,-5.1014,-5.1901,-5.2701,-5.374,-5.4409,-5.4409,-5.4409,-5.3999,-5.3035,-5.3082,-5.2386,-5.0675,-5.0644,-5.0316,-4.9527,-4.795,-4.7087,-4.7012,-4.5383,-4.5021,-4.581,-4.5735,-4.6223,0.0,-2.8734,0.0,0.0,0.0,0.0,0.0,0.0,0.0,0.0,0.0,0.0,0.0,0.0,0.0,0.0,0.0,0.0,0.0,0.0,0.0,0.0,0.0,0.0,0.0,0.0,0.0,0.0,0.0,0.0,-5.6117,-5.5968,-5.5895,-5.5914,-5.5766,-5.5703,-5.5703,-5.5895,-5.5895,0.0,-5.5895,-5.5769,-5.5389,-5.5856,-5.5706,-5.5072,-5.4353,-5.398,-5.3794,-5.3794,-5.3794,-5.3794,-5.3794,-5.3794,-5.3794,-5.3794,-5.3794,-5.3794,-5.3794,-5.3794,-5.3794,-5.3794,-5.3794,-5.3683,-5.3051,-5.2865,-5.2717,-5.2085,-5.1788,-5.1676,-5.1676,-5.1528,-5.1268,-5.0748,-5.1156,-5.1454,-5.0636,-5.0302,-4.9968,-4.9299,-4.9039,-4.889,-4.889,-4.889,-4.889,-4.889,-4.889,-4.8964,-4.9185,-5.0182,-5.0976,-5.118,-5.3127,-5.4409,-5.4409,-5.4409,-5.3907,-5.2755,-5.2698,-5.2098,-5.0675,-5.0644,-5.0316,-4.9527,-4.8476,-4.7612,-4.7012,-4.596,-4.5885,-4.6711,-4.6035,-4.6523,0.0,0.0,0.0,0.0,0.0,0.0,0.0,0.0,0.0,0.0,0.0,0.0,0.0,0.0,0.0,0.0,0.0,0.0,0.0,0.0,0.0,0.0,0.0,0.0,0.0,0.0,0.0,0.0,0.0,-5.6126,-5.6117,-5.5986,-5.5923,-5.5904,-5.5807,-5.5735,-5.5703,-5.5703,-5.5703,-5.5703,-5.5703,-5.5649,-5.5485,-5.5326,-5.5105,-5.4776,-5.4245,-5.4035,-5.4017,-5.387,-5.3794,-5.3794,-5.3794,-5.3794,-5.3794,-5.3794,-5.3794,-5.3794,-5.3794,-5.3571,-5.3237,-5.3237,-5.2977,-5.2568,-5.2159,-5.2048,-5.1936,-5.1528,-5.1119,-5.0785,-5.0785,-5.0488,-5.0079,-4.9633,-5.019,-5.0562,-4.9745,-4.9596,-4.9447,-4.9002,-4.889,-4.889,-4.889,-4.889,-4.889,-4.889,-4.889,-4.889,-4.889,-4.9463,-5.0182,-5.1068,-5.2347,-5.3089,-5.3089,-5.3089,-5.2718,-5.1755,-5.1731,-5.1241,-4.999,-4.9996,-4.9872,-4.9527,-4.8618,-4.7965,-4.75,-4.6277,-4.6315,-4.7515,-4.6682,-4.7237,0.0,0.0,0.0,0.0,0.0,0.0,0.0,0.0,0.0,0.0,0.0,0.0,0.0,0.0,0.0,0.0,0.0,0.0,0.0,0.0,0.0,0.0,0.0,0.0,0.0,0.0,0.0,0.0,0.0,-5.566,-5.5668,-5.5617,-5.5525,-5.5486,-5.5393,-5.543,-5.5472,-5.5472,-5.5549,-5.5703,-5.5703,-5.5703,-5.5692,-5.5185,-5.4938,-5.4866,-5.4528,-5.438,-5.4364,-5.4089,-5.3963,-5.3963,-5.3963,-5.3963,-5.3963,-5.3795,-5.3758,-5.3721,-5.3535,-5.3033,-5.2456,-5.2401,-5.1936,-5.1379,-5.1231,-5.1193,-5.1156,-5.1008,-5.045,-4.9893,-4.9893,-4.941,-4.889,-4.889,-4.941,-4.9707,-4.9039,-4.889,-4.889,-4.889,-4.889,-4.889,-4.889,-4.889,-4.889,-4.889,-4.889,-4.889,-4.889,-4.889,-4.9517,-5.1068,-5.1235,-5.1235,-5.1235,-5.1235,-5.0976,-5.0423,-5.0488,-5.0148,-4.9235,-4.9375,-4.9492,-4.9443,-4.8706,-4.8134,-4.7872,-4.6615,-4.6667,-4.7888,-4.7417,-4.8025,0.0,0.0,0.0,0.0,0.0,0.0,0.0,0.0,0.0,0.0,0.0,0.0,0.0,0.0,0.0,0.0,0.0,0.0,0.0,0.0,0.0,0.0,0.0,0.0,0.0,0.0,0.0,0.0,0.0,-5.3977,-5.4012,-5.3902,-5.3829,-5.3837,-5.3703,-5.3957,-5.4664,-5.4664,-5.5011,-5.5703,-5.5703,-5.5703,-5.5703,-5.5599,-5.5461,-5.5223,-5.488,-5.4731,-5.4731,-5.4685,-5.467,-5.467,-5.467,-5.467,-5.4556,-5.3838,-5.352,-5.3414,-5.2419,-5.2019,-5.1857,-5.1636,-5.1491,-5.1268,-5.0488,-5.0265,-5.0116,-4.9447,-4.915,-4.9076,-4.9076,-4.9002,-4.889,-4.889,-4.9002,-4.9039,-4.8927,-4.889,-4.889,-4.889,-4.889,-4.889,-4.889,-4.889,-4.889,-4.889,-4.889,-4.889,-4.889,-4.889,-4.9019,-4.9259,-4.9259,-4.9259,-4.9259,-4.9259,-4.9222,-4.913,-4.9148,-4.9142,-4.9115,-4.9853,-4.994,-4.9246,-4.9118,-4.8354,-4.6897,-4.7483,-4.7513,-4.7079,-4.7733,-4.8551,0.0,0.0,0.0,0.0,0.0,0.0,0.0,0.0,0.0,0.0,0.0,0.0,0.0,0.0,0.0,0.0,0.0,0.0,0.0,0.0,0.0,0.0,0.0,0.0,0.0,0.0,0.0,0.0,0.0,-5.3613,-5.3575,-5.3584,-5.3553,-5.3491,-5.3409,-5.3513,-5.3822,-5.381,-5.3933,-5.4318,-5.4318,-5.4318,-5.4318,-5.4318,-5.4765,-5.5497,-5.5198,-5.4798,-5.4351,-5.4145,-5.3768,-5.3337,-5.3337,-5.3337,-5.3299,-5.292,-5.2689,-5.2482,-5.1984,-5.1391,-5.0847,-5.0727,-5.0376,-4.993,-4.9559,-4.9447,-4.9336,-4.9002,-4.889,-4.889,-4.889,-4.889,-4.889,-4.889,-4.889,-4.889,-4.889,-4.889,-4.889,-4.889,-4.889,-4.889,-4.889,-4.889,-4.889,-4.889,-4.889,-4.889,-4.889,-4.889,-4.889,-4.889,-4.889,-4.889,-4.889,-4.889,-4.889,-4.889,-4.889,-4.8907,-4.9013,-4.9416,-4.9504,-4.9168,-4.9131,-4.8588,-4.7442,-4.7847,-4.7878,-4.7604,-4.7972,-4.8618,0.0,0.0,0.0,0.0,0.0,0.0,0.0,0.0,0.0,0.0,0.0,0.0,0.0,0.0,0.0,0.0,0.0,0.0,0.0,0.0,0.0,0.0,0.0,0.0,0.0,0.0,0.0,0.0,0.0,-5.2923,-5.2894,-5.2901,-5.2933,-5.2872,-5.2793,-5.2833,-5.3002,-5.3137,-5.3203,-5.3203,-5.3203,-5.3203,-5.3203,-5.3203,-5.3895,-5.5038,-5.486,-5.4393,-5.3757,-5.3518,-5.3044,-5.246,-5.246,-5.246,-5.2422,-5.2232,-5.1964,-5.1699,-5.1381,-5.0691,-4.9904,-4.9799,-4.941,-4.889,-4.889,-4.889,-4.889,-4.889,-4.889,-4.889,-4.889,-4.889,-4.889,-4.889,-4.889,-4.889,-4.889,-4.889,-4.889,-4.889,-4.889,-4.889,-4.889,-4.889,-4.889,-4.889,-4.889,-4.889,-4.889,-4.889,-4.889,-4.889,-4.889,-4.889,-4.889,-4.889,-4.889,-4.889,-4.889,-4.889,-4.889,-4.8996,-4.9068,-4.9068,-4.8844,-4.8468,-4.7937,-4.7954,-4.7949,-4.8012,-4.8268,-4.8765,0.0,0.0,0.0,0.0,0.0,0.0,0.0,0.0,0.0,0.0,0.0,0.0,0.0,0.0,0.0,0.0,0.0,0.0,0.0,0.0,0.0,0.0,0.0,0.0,0.0,0.0,0.0,0.0,0.0,-5.1231,-5.1225,-5.1164,-5.1143,-5.1132,-5.1053,-5.1399,-5.2153,-5.2868,-5.3203,-5.3203,-5.3203,-5.3203,-5.3203,-5.3203,-5.3241,-5.3318,-5.3308,-5.3297,-5.3259,-5.321,-5.32,-5.3161,-5.3161,-5.3161,-5.3046,-5.2239,-5.1754,-5.1356,-5.0301,-4.9692,-4.9358,-4.9068,-4.8927,-4.889,-4.889,-4.889,-4.889,-4.889,-4.889,-4.889,-4.889,-4.889,-4.889,-4.889,-4.889,-4.889,-4.889,-4.889,-4.889,-4.889,-4.889,-4.889,-4.889,-4.889,-4.889,-4.889,-4.889,-4.889,-4.889,-4.889,-4.889,-4.889,-4.889,-4.889,-4.889,-4.889,-4.889,-4.889,-4.889,-4.889,-4.889,-4.8927,-4.889,-4.889,-4.8147,-4.7738,-4.7718,-4.7802,-4.7798,-4.7835,-4.8716,-4.9176,0.0,0.0,0.0,0.0,0.0,0.0,0.0,0.0,0.0,0.0,0.0,0.0,0.0,0.0,0.0,0.0,0.0,0.0,0.0,0.0,0.0,0.0,0.0,0.0,0.0,0.0,0.0,0.0,0.0,-4.9386,-5.1004,-4.9517,-4.9343,-5.0939,-5.0995,-5.1068,-5.1275,-5.1509,-5.1655,-5.1587,-5.1587,-5.1587,-5.1587,-5.1587,-5.1587,-5.1587,-5.1587,-5.1895,-5.2385,-5.2385,-5.2049,-5.1587,-5.1587,-5.1587,-5.1548,-5.1241,-5.0943,-5.0615,-5.0214,-4.9884,-4.9622,-4.9521,-4.9377,-4.9348,-5.0071,-4.9648,-4.9053,-4.9791,-4.945,-4.889,-4.889,-4.889,-4.889,-4.889,-4.889,-4.889,-4.889,-4.889,-4.889,-4.889,-4.889,-4.889,-4.889,-4.889,-4.889,-4.889,-4.889,-4.889,-4.889,-4.889,-4.889,-4.889,-4.889,-4.889,-4.889,-4.889,-4.889,-4.889,-4.889,-4.889,-4.889,-4.889,-4.889,-4.889,-4.811,-4.7718,-4.7748,-4.7781,-4.7851,-4.7954,-4.8742,-4.9148,-2.0187,0.0,0.0,0.0,0.0,0.0,0.0,0.0,0.0,0.0,0.0,0.0,0.0,0.0,0.0,0.0,0.0,0.0,0.0,0.0,0.0,0.0,0.0,0.0,0.0,0.0,0.0,0.0,0.0,0.0,-5.1024,-4.9478,-4.9298,-5.0903,-5.1002,-5.0959,-5.0825,-5.0791,-5.0785,-5.0721,-5.0721,-5.0712,-5.0712,-5.0712,-5.0712,-5.0712,-5.0712,-5.101,-5.151,-5.151,-5.1164,-5.0712,-5.0712,-5.0712,-5.0712,-5.0712,-5.0493,-5.0195,-5.0195,-5.0038,-4.9841,-5.0158,-5.0133,-5.0153,-5.1178,-5.0832,-5.0183,-5.0945,-5.0343,-4.945,-4.945,-4.9179,-4.889,-4.889,-4.889,-4.889,-4.889,-4.889,-4.889,-4.889,-4.889,-4.889,-4.889,-4.889,-4.889,-4.889,-4.889,-4.889,-4.889,-4.889,-4.889,-4.889,-4.889,-4.889,-4.889,-4.889,-4.889,-4.889,-4.889,-4.889,-4.889,-4.889,-4.889,-4.889,-4.837,-4.8127,-4.8157,-4.7897,-4.7967,-4.8315,-4.8824,-4.9047,0.0,0.0,0.0,0.0,0.0,0.0,0.0,0.0,0.0,0.0,0.0,0.0,0.0,0.0,0.0,0.0,0.0,0.0,0.0,0.0,0.0,0.0,0.0,0.0,0.0,0.0,0.0,0.0,-5.0959,-5.0985,-5.1062,-5.1027,-5.099,-5.0906,-5.0981,-5.0981,-5.0898,-5.0825,-5.0821,-5.0812,-5.0721,-5.0712,-5.0712,-5.0712,-5.0712,-5.075,-5.0712,-5.0712,-5.075,-5.0712,-5.0712,-5.0712,-5.0712,-5.0712,-5.0712,-5.0712,-5.0493,-5.0206,-5.0256,-5.0088,-5.002,-5.0882,-5.1147,-5.1285,-5.2134,-5.2309,-5.2309,-5.2347,-5.1525,-5.0664,-5.0664,-4.9845,-4.8999,-4.8999,-4.8982,-4.8982,-4.8982,-4.8927,-4.889,-4.889,-4.889,-4.889,-4.889,-4.889,-4.889,-4.889,-4.889,-4.889,-4.889,-4.889,-4.889,-4.889,-4.889,-4.889,-4.889,-4.889,-4.889,-4.889,-4.889,-4.889,-4.889,-4.889,-4.889,-4.889,-4.889,-4.889,-4.889,-4.8073,-4.811,-4.889,-4.889,-4.889,-1.6875,0.0,0.0,0.0,0.0,0.0,0.0,0.0,0.0,0.0,0.0,0.0,0.0,0.0,0.0,0.0,0.0,0.0,0.0,0.0,0.0,0.0,0.0,0.0,0.0,0.0,0.0,0.0,-4.8138,-4.8236,-5.0048,-5.0692,-5.1041,-5.1102,-5.0981,-5.0921,-5.0898,-5.0825,-5.0785,-5.0712,-5.0721,-5.0712,-5.0712,-5.0712,-5.101,-5.1548,-5.0933,-5.101,-5.151,-5.0933,-5.0712,-5.0712,-5.0712,-5.0712,-5.0712,-5.0712,-5.0634,-5.065,-5.1226,-5.1376,-5.1475,-5.2329,-5.2482,-5.2526,-5.3587,-5.3162,-5.2465,-5.3289,-5.2724,-5.184,-5.184,-5.1616,-5.1367,-5.1367,-5.0929,-5.0557,-5.0557,-4.9683,-4.889,-4.889,-4.889,-4.889,-4.889,-4.889,-4.889,-4.889,-4.889,-4.889,-4.889,-4.889,-4.889,-4.889,-4.889,-4.889,-4.889,-4.889,-4.889,-4.889,-4.889,-4.889,-4.889,-4.889,-4.889,-4.889,-4.889,-4.889,-4.889,-4.8073,-4.811,-4.889,-4.889,-4.889,-1.8631,-1.9218,0.0,0.0,0.0,0.0,0.0,0.0,0.0,0.0,0.0,0.0,0.0,0.0,0.0,0.0,0.0,0.0,0.0,0.0,0.0,0.0,0.0,0.0,0.0,0.0,0.0,-4.8577,-4.7627,-4.7693,-4.9207,-4.975,-5.0022,-5.0073,-5.0305,-5.0395,-5.0357,-5.067,-5.0794,-5.073,-5.0693,-5.0712,-5.0712,-5.0712,-5.0971,-5.1356,-5.0894,-5.1164,-5.1846,-5.1395,-5.101,-5.075,-5.1087,-5.101,-5.0712,-5.0712,-5.0894,-5.1279,-5.1731,-5.2154,-5.2577,-5.3472,-5.3656,-5.3694,-5.4709,-5.4411,-5.3862,-5.4518,-5.3874,-5.2916,-5.2413,-5.2295,-5.2205,-5.193,-5.151,-5.1035,-5.0381,-4.9504,-4.889,-4.889,-4.889,-4.889,-4.889,-4.889,-4.889,-4.889,-4.889,-4.889,-4.889,-4.889,-4.889,-4.889,-4.889,-4.889,-4.889,-4.889,-4.889,-4.889,-4.889,-4.889,-4.889,-4.889,-4.889,-4.889,-4.889,-4.889,-4.889,-4.8444,-4.8444,-4.889,-4.889,-4.889,-2.1443,-2.2147,-2.3633,0.0,0.0,0.0,-2.6313,-2.8477,0.0,0.0,0.0,0.0,0.0,0.0,0.0,0.0,0.0,0.0,0.0,0.0,0.0,0.0,0.0,0.0,0.0,-4.8204,-4.8204,-4.8204,-4.8314,-4.843,-4.8586,-4.8586,-4.8573,-4.8509,-4.9239,-4.9593,-4.9482,-5.0254,-5.0675,-5.0666,-5.0692,-5.0721,-5.0712,-5.0712,-5.075,-5.0827,-5.075,-5.1164,-5.1885,-5.1885,-5.1548,-5.1048,-5.1779,-5.1625,-5.0981,-5.0981,-5.1433,-5.2038,-5.2154,-5.2615,-5.3356,-5.4203,-5.4434,-5.4472,-5.5203,-5.5434,-5.5434,-5.5549,-5.4841,-5.3823,-5.293,-5.2658,-5.2503,-5.1878,-5.1721,-5.1315,-4.9952,-4.9666,-4.9666,-4.9666,-4.9233,-4.889,-4.889,-4.889,-4.889,-4.889,-4.889,-4.889,-4.889,-4.889,-4.889,-4.889,-4.889,-4.889,-4.889,-4.889,-4.889,-4.889,-4.889,-4.889,-4.889,-4.889,-4.889,-4.889,-4.889,-4.889,-4.889,-4.889,-4.889,-4.889,-4.889,-4.889,-2.3945,-2.3904,-2.3902,-2.2889,0.0,0.0,0.0,-2.2317,0.0,0.0,0.0,0.0,0.0,0.0,0.0,0.0,0.0,0.0,0.0,0.0,0.0,0.0,0.0,0.0,0.0,-4.6496,-4.6496,-4.6496,-4.7129,-4.781,-4.8469,-4.8508,-4.8559,-4.8582,-4.8684,-4.8722,-4.8709,-4.9451,-4.9798,-4.9761,-5.0447,-5.0749,-5.0712,-5.0712,-5.1048,-5.1625,-5.0971,-5.1164,-5.1885,-5.1885,-5.2231,-5.2741,-5.2895,-5.2856,-5.2702,-5.2702,-5.2818,-5.3049,-5.3741,-5.3626,-5.3356,-5.4203,-5.4049,-5.3472,-5.3626,-5.3703,-5.3818,-5.4549,-5.4556,-5.4485,-5.494,-5.5044,-5.4994,-5.4856,-5.4806,-5.4756,-5.4417,-5.4367,-5.4367,-5.4367,-5.142,-4.889,-4.889,-4.889,-4.889,-4.889,-4.889,-4.889,-4.889,-4.889,-4.889,-4.889,-4.889,-4.889,-4.889,-4.889,-4.889,-4.889,-4.889,-4.889,-4.889,-4.889,-4.889,-4.889,-4.889,-4.889,-4.889,-4.889,-4.889,-4.889,-4.889,-4.889,-2.6054,-2.6014,-2.6131,-2.5311,0.0,0.0,0.0,0.0,0.0,0.0,0.0,0.0,0.0,0.0,0.0,0.0,0.0,0.0,0.0,0.0,0.0,0.0,0.0,0.0,0.0,-4.5991,-4.6002,-4.6002,-4.6413,-4.6829,-4.7218,-4.7251,-4.7262,-4.7317,-4.7642,-4.7837,-4.7837,-4.8614,-4.898,-4.8971,-4.9798,-5.019,-5.015,-5.0565,-5.0961,-5.127,-5.0866,-5.1164,-5.1885,-5.1885,-5.2423,-5.3203,-5.3203,-5.2933,-5.2577,-5.3049,-5.3472,-5.3867,-5.3879,-5.3859,-5.3867,-5.3879,-5.3589,-5.3213,-5.3224,-5.3273,-5.3378,-5.3793,-5.3889,-5.4072,-5.4867,-5.4972,-5.5011,-5.5549,-5.5703,-5.5703,-5.5703,-5.5703,-5.5703,-5.5703,-5.3836,-5.2309,-5.2309,-5.2309,-5.1525,-4.9233,-4.889,-4.889,-4.889,-4.889,-4.889,-4.889,-4.889,-4.889,-4.889,-4.889,-4.889,-4.889,-4.889,-4.889,-4.889,-4.889,-4.889,-4.889,-4.889,-4.889,-4.889,-4.889,-4.889,-4.889,-4.889,-4.889,0.0,0.0,0.0,0.0,0.0,-2.6562,0.0,0.0,0.0,-2.7634,0.0,0.0,0.0,0.0,0.0,0.0,0.0,0.0,0.0,0.0,0.0,0.0,0.0,0.0,0.0,-4.4665,-4.5108,-4.5924,-4.5536,-4.5497,-4.5963,-4.6002,-4.6002,-4.6002,-4.6645,-4.6964,-4.6964,-4.7797,-4.8181,-4.8167,-4.8987,-4.939,-4.9412,-5.019,-5.0533,-5.0488,-5.0644,-5.1087,-5.1703,-5.1703,-5.2136,-5.2791,-5.3059,-5.279,-5.2261,-5.2964,-5.3666,-5.4197,-5.3542,-5.3639,-5.3966,-5.331,-5.2935,-5.2772,-5.2809,-5.2889,-5.2931,-5.3047,-5.3106,-5.3281,-5.4091,-5.4311,-5.4549,-5.5472,-5.5703,-5.5703,-5.5703,-5.5703,-5.5703,-5.5703,-5.5703,-5.5703,-5.5703,-5.5703,-5.4367,-5.0397,-4.9791,-4.972,-4.9558,-4.9558,-4.9558,-4.9558,-4.9342,-4.9233,-4.9233,-4.9036,-4.889,-4.889,-4.889,-4.889,-4.889,-4.889,-4.889,-4.889,-4.889,-4.889,-4.889,-4.889,-4.889,-4.889,-4.889,-4.889,0.0,0.0,0.0,0.0,-2.9295,0.0,0.0,0.0,-2.5115,-2.3161,0.0,0.0,0.0,0.0,0.0,0.0,0.0,0.0,0.0,0.0,0.0,0.0,0.0,0.0,0.0,-3.9922,-4.1956,-4.573,-4.3904,-4.3632,-4.5885,-4.6002,-4.6002,-4.6002,-4.6108,-4.6147,-4.6147,-4.699,-4.7416,-4.7353,-4.8212,-4.8604,-4.8562,-4.9373,-4.9735,-4.9765,-5.0473,-5.0859,-5.1009,-5.1009,-5.1073,-5.1322,-5.2656,-5.3176,-5.3137,-5.3253,-5.3386,-5.3494,-5.3426,-5.2962,-5.2451,-5.2351,-5.1802,-5.1145,-5.1153,-5.1161,-5.1323,-5.2119,-5.2313,-5.2506,-5.3301,-5.4487,-5.5549,-5.5665,-5.5703,-5.5703,-5.5703,-5.5703,-5.5703,-5.5703,-5.5703,-5.5703,-5.5703,-5.5703,-5.5082,-5.325,-5.2992,-5.2696,-5.1997,-5.1892,-5.1892,-5.1892,-5.0998,-5.0397,-5.0397,-4.9504,-4.889,-4.889,-4.889,-4.889,-4.889,-4.889,-4.889,-4.889,-4.889,-4.889,-4.889,-4.889,-4.889,-4.889,-4.889,-4.889,0.0,0.0,0.0,0.0,0.0,0.0,-2.7265,0.0,-2.4804,0.0,0.0,0.0,0.0,0.0,0.0,0.0,0.0,0.0,0.0,0.0,0.0,0.0,0.0,0.0,0.0,0.0,0.0,0.0,-4.1607,-4.1646,-4.3709,-4.5186,-4.6002,-4.6002,-4.6002,-4.6002,-4.6002,-4.6346,-4.653,-4.6502,-4.7394,-4.7791,-4.7785,-4.8597,-4.9211,-4.9629,-4.9975,-5.0383,-5.0846,-5.0846,-5.0855,-5.0902,-5.1556,-5.2162,-5.2735,-5.3198,-5.3378,-5.3335,-5.2926,-5.2524,-5.2136,-5.1594,-5.12,-5.0974,-5.0974,-5.1002,-5.1146,-5.1407,-5.1509,-5.1695,-5.2492,-5.2837,-5.3151,-5.3807,-5.4853,-5.5703,-5.5703,-5.5703,-5.5703,-5.5703,-5.5703,-5.5703,-5.5703,-5.5703,-5.5193,-5.3709,-5.3505,-5.3198,-5.2399,-5.2295,-5.2295,-5.2295,-5.1878,-5.1578,-5.1578,-5.0557,-4.9898,-4.9898,-4.9271,-4.889,-4.889,-4.889,-4.889,-4.889,-4.889,-4.889,-4.889,-4.889,-4.889,-4.889,-4.889,-4.889,-3.7226,0.0,0.0,0.0,0.0,0.0,0.0,0.0,0.0,0.0,0.0,0.0,0.0,0.0,0.0,0.0,0.0,0.0,0.0,0.0,0.0,0.0,0.0,0.0,0.0,0.0,0.0,0.0,0.0,-3.9431,-4.2078,-4.4409,-4.5769,-4.6002,-4.6002,-4.6002,-4.6002,-4.6002,-4.6002,-4.6002,-4.6657,-4.6957,-4.6973,-4.7791,-4.8444,-4.897,-4.9421,-4.9969,-5.0541,-5.0764,-5.088,-5.0888,-5.0888,-5.1307,-5.1974,-5.2546,-5.2748,-5.2702,-5.2186,-5.1978,-5.1818,-5.1199,-5.1002,-5.105,-5.105,-5.1121,-5.119,-5.1063,-5.105,-5.1192,-5.1756,-5.1499,-5.1256,-5.2102,-5.3412,-5.4486,-5.4486,-5.5132,-5.5703,-5.5703,-5.5703,-5.5703,-5.5703,-5.5703,-5.5253,-5.396,-5.3759,-5.348,-5.2666,-5.2564,-5.2564,-5.2564,-5.227,-5.2077,-5.2077,-5.104,-5.0365,-5.0272,-4.9492,-4.8993,-4.889,-4.889,-4.889,-4.889,-4.889,-4.889,-4.889,-4.889,-4.889,-4.889,-4.889,-4.889,0.0,0.0,0.0,-3.4687,0.0,0.0,0.0,0.0,-2.7929,0.0,0.0,0.0,0.0,0.0,-2.5273,-2.4414,0.0,0.0,0.0,0.0,0.0,0.0,0.0,0.0,0.0,0.0,0.0,0.0,0.0,0.0,-4.1922,-4.386,-4.5181,-4.5963,-4.6002,-4.6002,-4.6002,-4.6002,-4.6002,-4.6002,-4.6041,-4.6041,-4.6074,-4.6934,-4.7344,-4.7454,-4.9012,-4.9741,-4.9892,-5.0671,-5.102,-5.1094,-5.1094,-5.1094,-5.1125,-5.1097,-5.1132,-5.1192,-5.1223,-5.1235,-5.1235,-5.1196,-5.1196,-5.1196,-5.1196,-5.1196,-5.1202,-5.1196,-5.1196,-5.1196,-5.1235,-5.1196,-5.1196,-5.1235,-5.1307,-5.134,-5.134,-5.3658,-5.5703,-5.5703,-5.5703,-5.5703,-5.5703,-5.5703,-5.5434,-5.4577,-5.4462,-5.4154,-5.3297,-5.3182,-5.3182,-5.3182,-5.2181,-5.1544,-5.1544,-5.0494,-4.9703,-4.9468,-4.9399,-4.9241,-4.8907,-4.889,-4.889,-4.889,-4.889,-4.889,-4.889,-4.889,-4.889,-4.889,-4.889,-4.889,0.0,0.0,-4.6015,-4.1367,0.0,0.0,0.0,0.0,0.0,0.0,0.0,0.0,0.0,0.0,-2.5429,-2.4531,-2.371,0.0,0.0,0.0,0.0,0.0,0.0,0.0,0.0,0.0,0.0,0.0,-3.1273,0.0,0.0,-4.0912,-4.3204,-4.3476,-4.5108,-4.6002,-4.6002,-4.6002,-4.6002,-4.6002,-4.6002,-4.6002,-4.6002,-4.6302,-4.6746,-4.735,-4.7869,-4.8729,-4.9741,-5.0037,-5.0448,-5.0983,-5.0983,-5.0983,-5.0983,-5.1027,-5.1094,-5.1082,-5.1121,-5.1145,-5.1202,-5.1202,-5.1202,-5.1202,-5.1202,-5.1202,-5.1202,-5.1202,-5.1202,-5.1202,-5.1202,-5.1202,-5.1202,-5.1202,-5.1202,-5.1202,-5.1202,-5.2013,-5.2717,-5.2717,-5.2717,-5.2717,-5.2717,-5.3511,-5.4159,-5.4185,-5.3857,-5.3549,-5.3241,-5.3203,-5.3203,-5.3203,-5.2871,-5.2626,-5.2626,-5.1567,-5.0583,-4.9717,-4.9651,-4.9506,-4.9257,-4.9241,-4.9127,-4.889,-4.889,-4.889,-4.889,-4.889,-4.889,-4.889,-4.889,-4.889,-4.9219,-4.9961,0.0,-4.5625,-4.3398,0.0,-3.5195,0.0,0.0,0.0,0.0,0.0,0.0,0.0,-2.7422,-2.5625,-2.4375,-2.25,0.0,0.0,0.0,0.0,0.0,0.0,0.0,0.0,-2.3978,-2.7343,0.0,0.0,0.0,0.0,-4.1883,-4.2194,-4.4681,-4.6002,-4.6002,-4.6002,-4.6002,-4.6002,-4.6002,-4.6002,-4.6002,-4.6002,-4.6302,-4.6862,-4.7162,-4.805,-4.9315,-4.9572,-5.0162,-5.0898,-5.0898,-5.0898,-5.0906,-5.102,-5.1094,-5.1082,-5.1108,-5.1139,-5.1202,-5.1202,-5.1202,-5.1202,-5.1202,-5.1202,-5.1202,-5.1202,-5.1202,-5.1202,-5.1202,-5.1202,-5.1202,-5.1202,-5.1202,-5.1202,-5.1202,-5.1202,-5.1202,-5.1202,-5.1202,-5.1202,-5.1202,-5.1932,-5.2812,-5.3579,-5.3433,-5.2972,-5.2395,-5.2318,-5.2318,-5.2318,-5.2318,-5.2318,-5.2318,-5.1655,-5.0853,-5.0012,-4.9949,-4.983,-4.9558,-4.9544,-4.9454,-4.9236,-4.9405,-4.9487,-4.9487,-4.9388,-4.9336,-4.9336,-4.9039,-4.889]},{"header":{"parameterUnit":"m.s-1","parameterCategory":1,"la1":30.6,"la2":29.2853,"lo1":-89.7004,"lo2":-87.6739,"dy":0.0162,"dx":0.0183,"nx":112,"ny":82,"refTime":"2024-05-21T12:00:00:Z","depth":0,"parameterNumber":3,"parameterNumberName":"V-component_of_WINDS"},"data":[0.0,0.0,0.0,0.0,0.0,0.0,0.0,0.0,0.0,0.0,0.0,0.0,0.0,0.0,0.0,0.0,0.0,0.0,0.0,0.0,0.0,0.0,0.0,0.0,0.0,0.0,0.0,0.0,0.0,0.0,0.0,0.0,0.0,0.0,0.0,0.0,0.0,0.0,0.0,0.0,0.0,0.0,0.0,0.0,0.0,0.0,0.0,0.0,0.0,0.0,0.0,0.0,0.0,0.0,0.0,0.0,0.0,0.0,0.0,0.0,0.0,0.0,0.0,0.0,0.0,0.0,0.0,0.0,0.0,0.0,0.0,0.0,0.0,0.0,0.0,0.0,0.0,0.0,0.0,0.0,0.0,0.0,0.0,0.0,0.0,0.0,0.0,0.0,0.0,0.0,0.0,-1.6336,-1.8802,-2.0537,-2.1102,-2.0652,-1.8676,-1.4911,0.0,0.0,0.0,0.0,0.0,0.0,0.0,0.0,0.0,0.0,0.0,0.0,0.0,0.0,0.0,0.0,0.0,0.0,0.0,0.0,0.0,0.0,0.0,0.0,0.0,0.0,0.0,0.0,0.0,0.0,0.0,0.0,0.0,0.0,0.0,0.0,0.0,0.0,0.0,0.0,0.0,0.0,0.0,0.0,0.0,0.0,0.0,0.0,0.0,0.0,0.0,0.0,0.0,0.0,0.0,0.0,0.0,0.0,0.0,0.0,0.0,0.0,0.0,0.0,0.0,0.0,0.0,0.0,0.0,0.0,0.0,0.0,0.0,0.0,0.0,0.0,0.0,0.0,0.0,0.0,0.0,0.0,0.0,0.0,0.0,0.0,0.0,0.0,0.0,0.0,0.0,0.0,0.0,0.0,0.0,0.0,0.0,0.0,0.0,0.0,0.0,0.0,0.0,0.0,-1.5171,-1.9624,-2.0223,-2.0492,-2.0886,-2.056,-1.8652,-1.4687,0.0,0.0,0.0,0.0,0.0,0.0,0.0,0.0,0.0,0.0,0.0,0.0,0.0,0.0,0.0,0.0,0.0,0.0,0.0,0.0,0.0,0.0,0.0,0.0,0.0,0.0,0.0,0.0,0.0,0.0,0.0,0.0,0.0,0.0,0.0,0.0,0.0,0.0,0.0,0.0,0.0,0.0,0.0,0.0,0.0,0.0,0.0,0.0,0.0,0.0,0.0,0.0,0.0,0.0,0.0,0.0,0.0,0.0,0.0,0.0,0.0,0.0,0.0,0.0,0.0,0.0,0.0,0.0,0.0,0.0,0.0,0.0,0.0,0.0,0.0,0.0,0.0,0.0,0.0,0.0,0.0,0.0,0.0,0.0,0.0,0.0,0.0,0.0,0.0,0.0,0.0,0.0,0.0,0.0,0.0,0.0,0.0,0.0,0.0,0.0,0.0,0.0,0.0,-1.4176,-1.685,-2.0754,-2.0634,-2.0446,-2.0886,-2.0514,-1.8611,-1.4591,-1.4009,0.0,0.0,0.0,0.0,0.0,0.0,0.0,0.0,0.0,0.0,0.0,0.0,0.0,0.0,0.0,0.0,0.0,0.0,0.0,0.0,0.0,0.0,0.0,0.0,0.0,0.0,0.0,0.0,0.0,0.0,0.0,0.0,0.0,0.0,0.0,0.0,0.0,0.0,0.0,0.0,0.0,0.0,0.0,0.0,0.0,0.0,0.0,0.0,0.0,0.0,0.0,0.0,0.0,0.0,0.0,0.0,0.0,0.0,0.0,0.0,0.0,0.0,0.0,0.0,0.0,0.0,0.0,0.0,0.0,0.0,0.0,0.0,0.0,0.0,0.0,0.0,0.0,0.0,0.0,0.0,0.0,0.0,0.0,0.0,0.0,0.0,0.0,0.0,0.0,0.0,0.0,0.0,0.0,0.0,0.0,0.0,0.0,0.0,0.0,0.0,0.0,0.0,-1.6422,-1.8168,-2.1097,-2.0737,-2.0412,-2.072,-2.0183,-1.8181,-1.4403,-1.3508,0.0,0.0,0.0,0.0,0.0,0.0,0.0,0.0,0.0,0.0,0.0,0.0,0.0,0.0,0.0,0.0,0.0,0.0,0.0,0.0,0.0,0.0,0.0,0.0,0.0,0.0,0.0,0.0,0.0,0.0,0.0,0.0,0.0,0.0,0.0,0.0,0.0,0.0,0.0,0.0,0.0,0.0,0.0,0.0,0.0,0.0,0.0,0.0,0.0,0.0,0.0,0.0,0.0,0.0,0.0,0.0,0.0,0.0,0.0,0.0,0.0,0.0,0.0,0.0,0.0,0.0,0.0,0.0,0.0,0.0,0.0,0.0,0.0,0.0,0.0,0.0,0.0,0.0,0.0,0.0,0.0,0.0,0.0,0.0,0.0,0.0,0.0,0.0,0.0,0.0,0.0,0.0,0.0,0.0,0.0,0.0,0.0,0.0,0.0,0.0,0.0,0.0,-1.6356,-1.8442,-2.1131,-2.0737,-2.0309,-2.0326,-1.911,-1.7035,-1.3939,-1.214,0.0,0.0,0.0,0.0,0.0,0.0,0.0,0.0,0.0,0.0,0.0,0.0,0.0,0.0,0.0,0.0,0.0,0.0,0.0,0.0,0.0,0.0,0.0,0.0,0.0,0.0,0.0,0.0,0.0,0.0,0.0,0.0,0.0,0.0,0.0,0.0,0.0,0.0,0.0,0.0,0.0,0.0,0.0,0.0,0.0,0.0,0.0,0.0,0.0,0.0,0.0,0.0,0.0,0.0,0.0,0.0,0.0,0.0,0.0,0.0,0.0,0.0,0.0,0.0,0.0,0.0,0.0,0.0,0.0,0.0,0.0,0.0,0.0,0.0,0.0,0.0,0.0,0.0,0.0,0.0,0.0,0.0,0.0,0.0,0.0,0.0,0.0,0.0,0.0,0.0,0.0,0.0,0.0,0.0,0.0,0.0,0.0,0.0,0.0,0.0,0.0,0.0,-1.6356,-1.8477,0.0,-2.0737,-2.0292,-2.0292,-1.9555,-1.7596,-1.3939,0.0,0.0,0.0,0.0,0.0,0.0,0.0,0.0,0.0,0.0,0.0,0.0,0.0,0.0,0.0,0.0,0.0,0.0,0.0,0.0,0.0,0.0,0.0,0.0,0.0,0.0,0.0,0.0,0.0,0.0,0.0,0.0,0.0,0.0,0.0,0.0,0.0,0.0,0.0,0.0,0.0,0.0,0.0,0.0,0.0,0.0,0.0,0.0,0.0,0.0,0.0,0.0,0.0,0.0,0.0,0.0,0.0,0.0,0.0,0.0,0.0,0.0,0.0,0.0,0.0,0.0,0.0,0.0,0.0,0.0,0.0,0.0,0.0,0.0,0.0,0.0,0.0,0.0,0.0,0.0,0.0,0.0,0.0,0.0,0.0,0.0,0.0,0.0,0.0,0.0,0.0,0.0,0.0,0.0,0.0,0.0,0.0,0.0,0.0,0.0,0.0,0.0,-1.4247,-1.6764,-1.911,0.0,-2.0788,-2.0429,-2.0309,-1.9401,-1.7407,-1.3921,0.0,0.0,0.0,0.0,0.0,0.0,0.0,0.0,0.0,0.0,0.0,0.0,0.0,0.0,0.0,0.0,0.0,0.0,0.0,0.0,0.0,0.0,0.0,0.0,0.0,0.0,0.0,0.0,0.0,0.0,0.0,0.0,0.0,0.0,0.0,0.0,0.0,0.0,0.0,0.0,0.0,0.0,0.0,0.0,0.0,0.0,0.0,0.0,0.0,0.0,0.0,0.0,0.0,0.0,0.0,0.0,0.0,0.0,0.0,0.0,0.0,0.0,0.0,0.0,0.0,0.0,0.0,0.0,0.0,0.0,0.0,0.0,0.0,0.0,0.0,0.0,0.0,0.0,0.0,0.0,0.0,0.0,0.0,0.0,0.0,0.0,0.0,0.0,0.0,0.0,0.0,0.0,0.0,0.0,0.0,0.0,0.0,0.0,0.0,0.0,0.0,0.0,-1.4042,-1.7723,-2.0446,-2.0886,-2.0874,-2.072,-2.0326,-1.8359,-1.6138,0.0,0.0,0.0,0.0,0.0,0.0,0.0,0.0,0.0,0.0,0.0,0.0,0.0,0.0,0.0,0.0,0.0,0.0,0.0,0.0,0.0,0.0,0.0,0.0,0.0,0.0,0.0,0.0,0.0,0.0,0.0,0.0,0.0,0.0,0.0,0.0,0.0,0.0,0.0,0.0,0.0,0.0,0.0,0.0,0.0,0.0,0.0,0.0,0.0,0.0,0.0,0.0,0.0,0.0,0.0,0.0,0.0,0.0,0.0,0.0,0.0,0.0,0.0,0.0,0.0,0.0,0.0,0.0,0.0,0.0,0.0,0.0,0.0,0.0,0.0,0.0,0.0,0.0,0.0,0.0,0.0,0.0,0.0,0.0,0.0,0.0,0.0,0.0,0.0,0.0,0.0,0.0,0.0,0.0,0.0,0.0,0.0,0.0,0.0,0.0,0.0,0.0,0.0,-1.4042,-1.7723,-2.0446,-2.0886,-2.0874,-2.072,-2.0326,-1.9125,-1.7024,-1.3887,0.0,0.0,0.0,0.0,0.0,0.0,0.0,0.0,0.0,0.0,0.0,0.0,0.0,0.0,0.0,0.0,0.0,0.0,0.0,0.0,0.0,0.0,0.0,0.0,0.0,0.0,0.0,0.0,0.0,0.0,0.0,0.0,0.0,0.0,0.0,0.0,0.0,0.0,0.0,0.0,0.0,0.0,0.0,0.0,0.0,0.0,0.0,0.0,0.0,0.0,0.0,0.0,0.0,0.0,0.0,0.0,0.0,0.0,0.0,0.0,0.0,0.0,0.0,0.0,0.0,0.0,0.0,0.0,0.0,0.0,0.0,0.0,0.0,0.0,0.0,0.0,0.0,0.0,0.0,0.0,0.0,0.0,0.0,0.0,0.0,0.0,0.0,0.0,0.0,0.0,0.0,0.0,0.0,0.0,0.0,0.0,0.0,0.0,0.0,0.0,0.0,0.0,-1.387,-1.7757,-2.0549,-2.0634,-2.0788,-2.072,-2.0326,-1.9376,-1.754,-1.4658,0.0,0.0,0.0,0.0,0.0,0.0,0.0,0.0,0.0,0.0,0.0,0.0,0.0,0.0,0.0,0.0,0.0,0.0,0.0,0.0,0.0,0.0,0.0,0.0,0.0,0.0,0.0,0.0,0.0,0.0,0.0,0.0,0.0,0.0,0.0,0.0,0.0,0.0,0.0,0.0,0.0,0.0,0.0,0.0,0.0,0.0,0.0,0.0,0.0,0.0,0.0,0.0,0.0,0.0,0.0,0.0,0.0,0.0,0.0,0.0,0.0,0.0,0.0,0.0,0.0,0.0,0.0,0.0,0.0,0.0,0.0,0.0,0.0,0.0,0.0,0.0,0.0,0.0,0.0,0.0,0.0,0.0,0.0,0.0,0.0,0.0,0.0,0.0,0.0,0.0,0.0,0.0,0.0,0.0,0.0,0.0,0.0,0.0,0.0,0.0,0.0,0.0,-1.3648,-1.7843,-2.0737,-2.0343,-2.0698,-2.0766,-2.0326,-1.929,-1.7835,-1.5789,0.0,0.0,0.0,0.0,0.0,0.0,0.0,0.0,0.0,0.0,0.0,0.0,0.0,0.0,0.0,0.0,0.0,0.0,0.0,0.0,0.0,0.0,0.0,0.0,0.0,0.0,0.0,0.0,0.0,0.0,0.0,0.0,0.0,0.0,0.0,0.0,0.0,0.0,0.0,0.0,0.0,0.0,0.0,0.0,0.0,0.0,0.0,0.0,0.0,0.0,0.0,0.0,0.0,0.0,0.0,0.0,0.0,0.0,0.0,0.0,-1.2186,0.0,0.0,0.0,0.0,0.0,0.0,0.0,0.0,0.0,0.0,0.0,0.0,0.0,0.0,0.0,0.0,0.0,0.0,0.0,0.0,0.0,0.0,0.0,0.0,0.0,0.0,0.0,0.0,0.0,0.0,0.0,0.0,0.0,0.0,0.0,0.0,0.0,0.0,0.0,0.0,0.0,-1.4146,-1.8095,-2.0737,-2.0343,-2.0819,-2.0888,-2.0371,-1.9737,-1.8408,-1.614,-1.4223,0.0,0.0,0.0,0.0,0.0,0.0,0.0,0.0,0.0,0.0,0.0,0.0,0.0,0.0,0.0,0.0,0.0,0.0,0.0,0.0,0.0,0.0,0.0,0.0,0.0,0.0,0.0,0.0,0.0,0.0,0.0,0.0,0.0,0.0,0.0,0.0,0.0,0.0,0.0,0.0,0.0,0.0,0.0,0.0,0.0,0.0,0.0,0.0,0.0,0.0,0.0,0.0,0.0,0.0,0.0,0.0,0.0,0.0,0.0,0.0,-1.3497,0.0,0.0,0.0,0.0,0.0,0.0,0.0,0.0,0.0,0.0,0.0,0.0,0.0,0.0,0.0,0.0,0.0,0.0,0.0,0.0,0.0,0.0,0.0,0.0,0.0,0.0,0.0,0.0,0.0,0.0,0.0,0.0,0.0,0.0,0.0,0.0,0.0,0.0,0.0,0.0,-1.4542,-1.8095,-2.0514,-2.0309,-2.0554,-2.068,-2.049,-2.007,-1.917,-1.7594,-1.5757,0.0,0.0,0.0,0.0,0.0,0.0,0.0,0.0,0.0,0.0,0.0,0.0,0.0,0.0,0.0,0.0,0.0,0.0,0.0,0.0,0.0,0.0,0.0,0.0,0.0,0.0,0.0,0.0,0.0,0.0,0.0,0.0,0.0,0.0,0.0,0.0,0.0,0.0,0.0,0.0,0.0,0.0,0.0,0.0,0.0,0.0,0.0,0.0,0.0,0.0,0.0,0.0,0.0,-1.1598,-1.3165,-1.5162,-1.5395,-1.6384,-1.7774,-1.6924,-1.6574,-1.6497,-1.4577,0.0,0.0,0.0,0.0,0.0,0.0,0.0,0.0,0.0,0.0,0.0,0.0,0.0,0.0,0.0,0.0,0.0,0.0,0.0,0.0,0.0,0.0,0.0,0.0,-1.7,-1.689,0.0,0.0,0.0,0.0,0.0,0.0,0.0,0.0,0.0,0.0,0.0,0.0,-1.511,-1.821,-2.0382,-2.0382,-2.0382,-2.0428,-2.0609,-2.035,-1.984,-1.9093,-1.726,-1.5471,0.0,0.0,0.0,0.0,0.0,0.0,0.0,0.0,0.0,0.0,0.0,0.0,0.0,0.0,0.0,0.0,0.0,0.0,0.0,0.0,0.0,0.0,0.0,0.0,0.0,0.0,0.0,0.0,0.0,0.0,0.0,0.0,-0.5968,-0.6915,0.0,0.0,0.0,0.0,0.0,0.0,0.0,0.0,0.0,0.0,0.0,0.0,0.0,-1.0218,-1.0657,-1.2217,-1.3221,-1.3698,-1.4654,-1.6489,-1.8978,-1.8835,-2.0143,-2.2372,-2.1225,0.0,-1.7891,-1.7113,0.0,0.0,0.0,0.0,0.0,0.0,0.0,0.0,0.0,0.0,0.0,0.0,0.0,0.0,0.0,0.0,0.0,0.0,0.0,0.0,0.0,0.0,-2.0099,-1.9916,-1.9655,-1.9399,0.0,-1.6581,-1.433,-1.4055,-1.3386,0.0,0.0,0.0,0.0,0.0,0.0,0.0,-1.6118,-1.8848,-2.0654,-2.0654,-2.0654,-2.0564,-2.0382,-2.035,-2.0032,-1.9224,-1.8038,-1.6633,-1.4958,-1.3794,0.0,0.0,0.0,0.0,0.0,0.0,0.0,0.0,0.0,0.0,0.0,0.0,0.0,0.0,0.0,0.0,0.0,0.0,0.0,0.0,0.0,0.0,0.0,0.0,0.0,0.0,0.0,0.0,0.0,-0.5682,-0.6942,-0.7149,-0.7586,-0.7509,0.0,0.0,0.0,0.0,0.0,0.0,0.0,0.0,0.0,-1.0689,-1.1509,-1.2145,-1.263,-1.375,-1.456,-1.5055,-1.5429,-1.7259,-2.0187,-1.9743,-2.0952,-2.3407,-2.2838,-2.2022,-2.0983,-1.9661,-1.9237,-1.9094,0.0,0.0,0.0,0.0,-1.4715,-1.4827,-1.6138,-1.7097,0.0,-1.6766,0.0,0.0,0.0,0.0,0.0,0.0,0.0,0.0,0.0,0.0,-2.0534,-2.1089,-2.1193,-2.1174,-2.0955,-1.9289,-1.7477,0.0,-1.5506,-1.4544,-1.2375,0.0,0.0,0.0,0.0,0.0,-1.7541,-1.9463,-2.0699,-2.0699,-2.0699,-2.0699,-2.0682,-2.0855,-2.0692,-1.9967,-1.9187,-1.7999,-1.6406,-1.5389,-1.3658,0.0,0.0,0.0,0.0,0.0,0.0,0.0,0.0,0.0,0.0,0.0,0.0,0.0,0.0,0.0,0.0,0.0,0.0,0.0,0.0,0.0,0.0,0.0,0.0,0.0,0.0,0.0,0.0,-0.6741,-0.7805,-0.7663,-0.8528,-0.8743,0.0,0.0,0.0,0.0,0.0,0.0,-1.0583,-1.0985,-1.1557,-1.2408,-1.3199,-1.3879,-1.4363,-1.5009,-1.5666,-1.6199,-1.6017,-1.761,-2.0584,-1.9942,-2.099,-2.3367,-2.3699,-2.3959,-2.395,-2.2224,-2.1699,-2.178,-2.0208,-1.887,-1.7877,-1.8615,-1.8544,-1.8305,-1.9797,-2.0637,-2.0898,-1.9706,-1.9161,-1.8669,-1.6743,0.0,0.0,0.0,0.0,-1.7312,-1.9036,-2.0058,-2.0882,-2.1797,-2.2236,-2.2364,-2.2071,-2.1357,-2.0264,0.0,-1.7734,-1.6688,-1.4066,0.0,0.0,0.0,0.0,-1.7836,-1.8812,-2.0067,-2.088,-2.088,-2.0835,-2.0817,-2.0997,-2.1195,-2.1049,-2.0449,-1.9955,-1.9043,-1.7715,-1.6721,-1.511,-1.2717,0.0,0.0,0.0,0.0,0.0,0.0,0.0,0.0,0.0,0.0,0.0,0.0,0.0,0.0,0.0,0.0,0.0,0.0,0.0,0.0,0.0,0.0,0.0,0.0,0.0,0.0,0.0,0.0,0.0,-0.9044,-1.0143,0.0,0.0,0.0,0.0,-1.0132,-1.0444,-1.1409,-1.3211,-1.2954,-1.3369,-1.4708,-1.4941,-1.5365,-1.5899,-1.6385,-1.7017,-1.7901,-1.7258,-1.8221,-2.058,-1.9809,-2.0808,-2.3106,-2.4269,-2.5386,-2.6141,-2.4899,-2.4315,-2.4148,-2.3347,-2.2779,-2.2307,-2.1572,-2.1771,-2.2379,-2.2208,-2.2675,-2.3261,-2.2821,-2.1376,-1.9527,-1.7899,-1.7385,0.0,0.0,-1.9051,-2.0484,-2.1302,-2.2144,-2.2767,-2.284,-2.2858,-2.2876,-2.284,-2.2199,-2.1467,0.0,-1.9971,-1.8889,-1.7972,0.0,-1.7183,-1.6745,-1.7789,-1.8923,-1.9706,-2.0721,-2.1347,-2.1347,-2.115,-2.0997,-2.0997,-2.0997,-2.081,-2.0238,-1.9972,-1.946,-1.8667,-1.7494,-1.6436,-1.5501,-1.344,0.0,0.0,0.0,0.0,0.0,0.0,0.0,0.0,0.0,0.0,0.0,0.0,0.0,0.0,0.0,0.0,0.0,0.0,0.0,0.0,0.0,0.0,0.0,0.0,0.0,0.0,0.0,0.0,-1.0056,-1.1305,0.0,-1.1143,-1.1467,-1.1844,-1.2081,-1.2646,-1.3295,-1.4014,-1.4433,-1.488,-1.5473,-1.6049,-1.6463,-1.6624,-1.6958,-1.7293,-1.7642,-1.738,-1.8254,-2.0061,-2.0515,-2.1532,-2.3032,-2.4588,-2.5393,-2.5495,-2.5673,-2.5916,-2.6098,-2.4884,-2.4281,-2.4053,-2.4122,-2.4281,-2.4505,-2.4941,-2.5087,-2.4941,-2.4024,-2.2887,-2.1723,-2.1138,-2.0973,-2.0991,-2.1156,-2.1595,-2.2108,-2.24,-2.2876,-2.3224,-2.2968,-2.3096,-2.3224,-2.2968,-2.2675,-2.2437,-2.2272,-2.1266,-2.0044,-1.8724,-1.9237,-1.9381,-1.8078,-1.921,-2.0382,-2.0818,-2.1184,-2.1392,-2.1392,-2.1302,-2.1257,-2.1257,-2.1121,-2.0873,-2.0431,-1.9714,-1.9119,-1.8704,-1.7677,-1.6613,-1.5587,-1.4653,-1.2695,0.0,0.0,0.0,0.0,0.0,0.0,0.0,0.0,0.0,0.0,0.0,0.0,0.0,0.0,0.0,0.0,0.0,0.0,0.0,0.0,0.0,0.0,0.0,0.0,0.0,0.0,-1.0419,-1.0929,-1.2253,-1.2964,-1.2613,-1.3089,-1.3459,-1.3685,-1.4299,-1.4756,-1.5003,-1.5632,-1.6036,-1.6097,-1.6679,-1.6969,-1.6894,-1.713,-1.7249,-1.7249,-1.7249,-1.7916,-1.9172,-2.0424,-2.1285,-2.1859,-2.4311,-2.5001,-2.4613,-2.5856,-2.6766,-2.7151,-2.5968,-2.5468,-2.5451,-2.5882,-2.5883,-2.5791,-2.6225,-2.6188,-2.5855,-2.4918,-2.4207,-2.3663,-2.3437,-2.3363,-2.3327,-2.3151,-2.3206,-2.3363,-2.3363,-2.3547,-2.3675,-2.3419,-2.3565,-2.3675,-2.3419,-2.3096,-2.295,-2.3078,-2.2217,-2.1089,-1.9751,-2.0301,-2.0369,-1.8749,-1.9502,-2.0272,-2.0292,-2.063,-2.0884,-2.0884,-2.1246,-2.1482,-2.1482,-2.1021,-2.0649,-2.0521,-1.9312,-1.862,-1.8724,-1.7334,-1.6213,-1.5387,-1.4257,-1.2492,-1.0058,0.0,0.0,0.0,0.0,0.0,0.0,0.0,0.0,0.0,0.0,0.0,0.0,0.0,0.0,0.0,0.0,0.0,0.0,0.0,0.0,0.0,0.0,0.0,-0.8248,-1.0171,-1.1609,-1.1747,-1.3007,-1.3782,-1.3556,-1.4169,-1.4676,-1.4902,-1.5365,-1.5828,-1.6291,-1.6517,-1.6698,-1.6698,-1.6861,-1.6883,-1.6731,-1.6904,-1.7023,-1.7023,-1.7023,-1.7346,-1.8056,-1.9456,-1.9884,-1.9688,-2.3414,-2.4379,-2.3552,-2.5536,-2.6668,-2.7182,-2.671,-2.6533,-2.654,-2.6818,-2.6676,-2.6325,-2.6063,-2.6002,-2.5966,-2.5561,-2.5433,-2.5267,-2.4477,-2.4238,-2.4165,-2.3645,-2.3877,-2.422,-2.4202,-2.4202,-2.4202,-2.4202,-2.4202,-2.4202,-2.4202,-2.3547,-2.3059,-2.3444,-2.2858,-2.2098,-2.1291,-2.0833,-2.0173,-1.8981,-1.8815,0.0,-1.8246,-1.9216,-1.9948,-1.9948,-2.0955,-2.165,-2.1687,-2.057,-2.0021,-2.0484,-1.8804,-1.8096,-1.8687,-1.6591,-1.5359,-1.5129,-1.2404,-1.1086,-1.1238,0.0,0.0,0.0,0.0,0.0,0.0,0.0,0.0,0.0,0.0,0.0,0.0,0.0,0.0,0.0,0.0,0.0,0.0,0.0,0.0,0.0,0.0,-1.0183,-1.0404,-1.1608,-1.2699,-1.3416,-1.4309,-1.4781,-1.4716,-1.5246,-1.5639,-1.5715,-1.6097,-1.6355,-1.6312,-1.6204,-1.6201,-1.6201,-1.6377,-1.6549,-1.6731,-1.7238,-1.7518,-1.7518,-1.7518,-1.7585,-1.7851,-1.9031,-1.9527,-1.9509,-2.1371,-2.2061,-2.1897,-2.3426,-2.4117,-2.4422,-2.5561,-2.6603,-2.7395,-2.7,-2.7065,-2.7173,-2.5737,-2.5753,-2.6353,-2.5984,-2.5653,-2.5378,-2.5157,-2.5084,-2.501,-2.4556,-2.4519,-2.4587,-2.4275,-2.4202,-2.4202,-2.4202,-2.4202,-2.4202,-2.4202,-2.4036,-2.3859,-2.3969,-2.3565,-2.2895,-2.2135,-2.1896,-2.1577,-2.0955,-2.0863,0.0,-2.0717,-2.0991,-2.1193,-2.1193,-2.0717,-2.0735,-2.1614,-2.004,-1.9347,-2.0003,-1.8775,-1.8227,-1.8687,-1.7259,-1.6181,-1.5533,-1.3929,-1.2819,0.0,0.0,0.0,0.0,0.0,0.0,0.0,0.0,0.0,0.0,0.0,0.0,0.0,0.0,0.0,0.0,0.0,0.0,0.0,0.0,0.0,0.0,-1.0276,-1.1811,-1.2447,-1.3017,-1.3674,-1.4536,-1.4941,-1.5231,-1.5386,-1.5731,-1.6007,-1.6007,-1.645,-1.6603,-1.6474,-1.6517,-1.6409,-1.6108,-1.6527,-1.6678,-1.6517,-1.712,-1.7421,-1.7421,-1.7421,-1.7421,-1.7477,-1.8687,-1.902,-1.8719,-2.0975,-2.1666,-2.1408,-2.3224,-2.4085,0.0,0.0,0.0,0.0,0.0,-2.6658,-2.7361,-2.5919,-2.6082,-2.6774,-2.6353,-2.6059,-2.5839,-2.5727,-2.5142,-2.4556,-2.4335,-2.3895,-2.3529,-2.362,-2.3657,-2.373,-2.4128,-2.4202,-2.4202,-2.4202,-2.3877,-2.3749,-2.4128,-2.3694,0.0,-2.284,-2.2217,-2.1511,-2.057,-2.0424,-2.0369,-2.0204,-2.0625,-2.0936,-2.0936,-2.0753,-2.0936,-2.1632,-2.0149,0.0,0.0,0.0,-1.788,-1.7458,-1.6762,0.0,0.0,0.0,0.0,0.0,0.0,0.0,0.0,-1.1904,-1.1368,0.0,0.0,0.0,0.0,0.0,0.0,0.0,0.0,0.0,0.0,0.0,0.0,0.0,0.0,0.0,0.0,-1.1575,-1.3007,-1.4159,-1.4309,-1.4546,-1.5124,-1.5242,-1.5349,-1.5623,-1.5849,-1.6061,-1.6093,-1.6536,-1.6796,-1.6763,0.0,0.0,0.0,0.0,-1.6926,-1.6323,-1.6775,-1.7001,-1.7001,-1.7001,-1.7001,-1.7066,-1.8215,-1.8285,-1.761,-2.097,-2.1845,-2.1152,-2.3475,-2.4841,-2.5485,-2.5057,-2.4791,-2.4723,-2.4779,-2.5739,-2.6936,-2.6172,0.0,0.0,-2.6719,-2.6591,-2.6518,-2.6205,-2.5032,-2.3828,-2.3773,-2.2986,-2.2327,-2.3004,-2.3151,-2.3297,-2.411,-2.4238,-2.4202,-2.4202,-2.3584,-2.3308,-2.4073,-2.3584,-2.3133,-2.3444,-2.2254,-2.0814,-1.9347,-1.9091,-1.8926,-1.8539,-1.9436,-2.0095,-2.0095,0.0,0.0,-2.1687,-2.0534,-2.0003,-2.0442,-1.9091,-1.7568,-1.6028,-1.601,-1.5478,-1.4334,-1.4341,-1.4976,-1.6161,-1.6197,-1.642,-1.6754,-1.3496,-1.2653,0.0,0.0,0.0,0.0,0.0,0.0,0.0,0.0,0.0,0.0,0.0,0.0,0.0,0.0,0.0,-1.1262,-1.2759,-1.4126,-1.4877,-1.4984,-1.5038,-1.5177,-1.558,-1.5888,-1.5931,-1.6097,-1.6323,-1.6569,-1.6969,-1.7152,-1.6947,-1.6667,-1.6463,-1.6323,-1.6258,-1.6247,-1.6312,-1.6775,-1.7001,-1.7001,0.0,0.0,-1.7001,-1.726,-1.7312,-1.7127,-1.7889,-1.8058,-1.7995,-1.9536,-2.0929,-2.2389,-2.5359,-2.6044,-2.5245,-2.4611,-2.5122,-2.5921,-2.4876,-2.5304,-2.6435,-2.6555,-2.6591,-2.6573,-2.6499,-2.6243,0.0,-2.5582,-2.5378,-2.5157,-2.4941,-2.4666,-2.4464,-2.4629,-2.4459,-2.4202,-2.4202,-2.4091,-2.4018,-2.4165,-2.4073,-2.384,-2.3535,-2.2968,-2.2327,-2.1687,-2.1321,-2.1083,-2.101,-2.1193,-2.1339,-2.1339,-2.068,-2.0625,-2.1614,-2.0319,-1.9732,-2.0466,-1.9604,-1.865,-1.7697,-1.7954,-1.7715,-1.6817,-1.7128,-1.7258,-1.7186,-1.737,-1.7513,-1.7565,-1.6281,-1.5739,0.0,0.0,0.0,0.0,0.0,0.0,0.0,0.0,0.0,0.0,0.0,-0.8831,0.0,0.0,-1.1173,-1.2217,-1.3211,-1.4169,-1.5059,-1.5451,-1.5601,-1.5601,-1.5698,-1.5877,-1.5996,-1.6172,-1.6409,-1.6709,-1.699,-1.7141,-1.7012,-1.6786,-1.6549,-1.6323,-1.642,-1.642,-1.6312,-1.6775,-1.7001,-1.7001,-1.7001,-1.7001,-1.7001,-1.7001,-1.7001,-1.7066,-1.77,-1.8022,-1.8086,-1.9483,-2.0436,-2.1384,-2.4008,-2.496,-2.4859,-2.5036,-2.5758,-2.6528,-2.5904,-2.6292,-2.7004,-2.6902,-2.6885,-2.6848,-2.6646,-2.6169,-2.5637,-2.5488,-2.4922,-2.45,-2.4753,-2.4661,-2.4624,-2.4977,-2.4808,-2.4514,-2.4514,-2.4349,-2.4202,-2.4202,-2.4202,-2.4128,-2.3877,-2.3462,-2.2986,-2.2382,-2.1943,-2.1687,-2.1687,-2.1687,-2.1687,-2.1687,-2.1156,-2.1028,-2.1632,-2.0796,-2.0374,-2.0778,-2.0246,-1.9641,-1.9015,-1.9017,-1.8815,-1.8412,-1.8412,-1.8412,-1.8394,-1.8423,-1.8428,-1.849,-1.8156,-1.774,0.0,0.0,0.0,0.0,0.0,0.0,0.0,0.0,-0.6885,-0.7828,-0.891,-0.9938,-1.0912,-1.1185,-1.1734,-1.3107,-1.3599,-1.4169,-1.5124,-1.5645,-1.5953,-1.6007,-1.5785,-1.5763,-1.6061,-1.6194,-1.6431,-1.671,-1.6894,-1.7001,-1.7001,-1.7001,-1.684,-1.6463,-1.6807,-1.685,-1.6527,-1.6894,-1.7077,-1.7077,-1.7077,-1.7055,-1.7001,-1.7001,-1.7001,-1.7066,-1.815,-1.8588,-1.8716,-1.9865,-2.0309,-2.0436,-2.1748,-2.2625,-2.3343,-2.5177,-2.6159,-2.6626,-2.6981,-2.7301,-2.7459,-2.7078,-2.6897,-2.677,-2.6462,-2.5469,-2.4537,-2.5021,-2.4258,-2.3461,-2.4395,-2.4624,-2.4716,-2.5378,-2.5124,-2.4776,-2.4776,-2.4496,-2.4202,-2.4202,-2.4202,-2.4202,-2.4202,-2.3822,-2.3242,-2.251,-2.2053,-2.1778,-2.1705,-2.1687,-2.1687,-2.1687,-2.1687,-2.1687,-2.1687,-2.1376,-2.12,-2.1108,-2.0814,-2.0448,-2.0021,-1.9714,-1.9531,-1.9531,-1.9219,-1.9219,-1.9531,-1.9388,-1.9349,-1.9448,-1.9466,-1.9046,-0.269,-0.2638,-0.2758,-0.303,-0.3747,-0.4512,0.0,0.0,-0.8346,-0.941,-1.069,-1.1891,-1.299,-1.3485,-1.3869,-1.4051,-1.4622,-1.5113,-1.5515,-1.5601,-1.572,-1.5985,-1.5985,-1.6072,-1.6247,-1.6301,-1.6495,-1.6937,-1.699,-1.7001,-1.7001,-1.7001,-1.698,-1.6926,-1.698,-1.7087,-1.726,-1.7313,-1.7335,-1.7335,-1.7335,-1.7217,-1.7001,-1.7001,-1.7001,-1.7001,-1.713,-1.7195,-1.726,-1.7389,-1.7453,-1.7582,-1.8908,-1.947,-2.0043,-2.3792,-2.4532,-2.384,-2.5811,-2.6523,-2.6513,-2.6076,-2.5772,-2.5552,-2.5405,-2.4334,-2.3634,-2.5828,-2.5504,-2.4872,-2.6009,-2.6094,-2.5837,-2.5929,-2.5378,-2.4776,-2.4776,-2.4496,-2.4202,-2.4202,-2.4202,-2.4202,-2.4202,-2.3822,-2.3352,-2.2895,-2.2474,-2.2089,-2.1742,-2.1687,-2.1687,-2.1687,-2.1687,-2.1687,-2.1687,-2.165,-2.1467,-2.1126,-2.1071,-2.0869,-2.0466,-2.0411,-2.0374,-2.0374,-2.0338,-2.0338,-2.0374,-2.0351,-2.0327,-2.0364,-2.0171,-1.9738,-0.3185,-0.3372,0.0,0.0,-0.4672,-0.5682,-0.6128,-0.765,-0.925,-1.0348,-1.1717,-1.2986,-1.3821,-1.4016,-1.4208,0.0,-1.4733,-1.4859,-1.5505,-1.5601,-1.558,-1.5548,-1.5289,-1.5278,-1.5655,-1.6075,-1.6334,-1.6387,-1.6764,-1.7001,-1.7001,-1.7001,-1.7001,-1.7001,-1.7141,-1.727,-1.7378,-1.7507,-1.7572,-1.7572,-1.7443,-1.7324,-1.7217,-1.7066,-1.7001,-1.7001,-1.7001,-1.7001,-1.7001,-1.7001,-1.7001,-1.713,-1.846,-1.8524,-1.8267,-2.1923,-2.2937,-2.2721,-2.4422,-2.5,-2.5117,-2.5907,-2.5885,-2.5732,-2.6204,-2.5311,-2.4278,-2.5293,-2.5183,-2.4889,-2.5404,-2.5955,-2.6334,-2.6334,-2.5894,-2.5451,-2.5231,-2.4812,-2.4496,-2.4257,-2.4202,-2.4202,-2.4202,-2.4055,-2.3767,-2.3316,-2.2693,-2.2126,-2.1742,-2.1687,-2.1687,-2.1687,-2.1687,-2.1687,-2.1687,-2.1687,-2.1614,-2.1449,-2.1431,-2.1357,-2.1193,-2.0998,-2.0869,-2.0869,-2.0631,-2.0521,-2.0521,-2.0395,-2.0437,-2.0655,-2.0569,-2.0392,-0.3389,0.0,0.0,-0.4179,-0.5297,-0.6386,-0.6742,-0.8055,-0.9632,-1.0905,-1.208,-1.3215,-1.4182,-1.4261,0.0,-1.5199,-1.4932,-1.4852,-1.5494,-1.5548,-1.5386,-1.5027,-1.463,-1.4471,-1.4557,-1.5451,-1.6054,-1.6201,-1.6678,-1.7001,-1.7001,-1.7001,-1.7033,-1.7109,-1.7281,-1.7443,-1.7572,-1.7744,-1.7819,-1.7819,-1.7583,-1.7443,-1.7367,-1.712,-1.7001,-1.7001,-1.7001,-1.7001,-1.7001,-1.7001,-1.7001,-1.7066,-1.8086,-1.7829,-1.7324,-1.9712,-2.084,-2.1407,-2.3157,-2.373,-2.3932,-2.5101,-2.5255,-2.501,-2.56,-2.4658,-2.361,-2.4535,-2.4556,-2.4445,-2.5128,-2.5971,-2.6591,-2.6591,-2.6261,-2.5911,-2.5506,-2.5051,-2.4666,-2.4293,-2.4202,-2.4202,-2.4202,-2.4202,-2.4055,-2.3553,-2.2986,-2.2437,-2.1925,-2.176,-2.1687,-2.1687,-2.1687,-2.1687,-2.1687,-2.1687,-2.1687,-2.1687,-2.1687,-2.1687,-2.1687,-2.1394,-2.1273,-2.1273,-2.0955,-2.0808,-2.0808,-2.0698,-2.0757,-2.1029,-2.0985,-2.0926,0.0,0.0,-0.3845,-0.3985,-0.522,-0.6425,-0.6492,-0.7782,-0.9399,-1.1061,-1.1648,-1.2408,-1.4253,-1.4805,-1.5027,-1.5255,-1.5521,-1.5649,-1.5618,-1.5408,-1.5027,-1.4555,-1.4352,-1.3846,0.0,-1.432,-1.5655,-1.6634,-1.6872,-1.7001,-1.7001,-1.7001,-1.712,-1.7356,-1.7378,-1.7604,-1.8067,-1.8078,-1.8078,-1.8078,-1.783,-1.7593,-1.7367,-1.712,-1.7001,-1.7001,-1.7001,-1.7001,-1.7001,-1.7001,-1.7001,-1.7001,-1.7066,-1.7066,-1.7001,-1.713,-1.7958,-1.9483,-2.2187,-2.3139,-2.3139,-2.3186,-2.2965,-2.2627,-2.2258,-2.1121,-2.0648,-2.3858,-2.3927,-2.3592,-2.5971,-2.6591,-2.6591,-2.6591,-2.6261,-2.5911,-2.5506,-2.5051,-2.4666,-2.4293,-2.4202,-2.4202,-2.4202,-2.4202,-2.4055,-2.3553,-2.348,-2.3169,-2.2364,-2.1925,-2.1687,-2.1687,-2.1687,-2.1687,-2.1687,-2.1687,-2.1687,-2.1687,-2.1687,-2.1687,-2.1687,-2.1687,-2.1668,-2.1668,-2.1668,-2.165,-2.165,-2.165,-2.1668,-2.1668,-2.1463,-2.1392,0.0,0.0,-0.4462,-0.4406,-0.5649,-0.6901,-0.6868,-0.7744,-0.8979,-1.0245,-1.0408,-1.0717,-1.1924,-1.252,-1.3017,-1.3751,-1.3921,-1.4342,-1.5429,-1.4719,-1.4309,-1.4877,-1.4245,0.0,0.0,0.0,0.0,-1.5235,-1.6204,-1.684,-1.699,-1.7001,-1.712,-1.7367,-1.7529,-1.7766,-1.8089,-1.8239,-1.8326,-1.8315,-1.7916,-1.7604,-1.7367,-1.712,-1.7001,-1.7001,-1.7001,-1.7001,-1.7001,-1.7001,-1.7001,-1.7001,-1.7001,-1.7001,-1.7001,-1.7001,-1.726,-1.7893,-1.9228,-1.9737,-1.9992,-2.1825,-2.2162,-2.2076,-2.3233,-2.2364,-2.1218,-2.2379,-2.2238,-2.1972,-2.2805,-2.3592,-2.439,-2.5238,-2.5298,-2.5323,-2.568,-2.5708,-2.5414,-2.4753,-2.4624,-2.4532,-2.4257,-2.4202,-2.4055,-2.3553,-2.3041,-2.2584,-2.2309,-2.1943,-2.1687,-2.1687,-2.1687,-2.1687,-2.1687,-2.1687,-2.1687,-2.1687,-2.1687,-2.1687,-2.1687,-2.1687,-2.1687,-2.1687,-2.1687,-2.1687,-2.1687,-2.1687,-2.1687,-2.1687,-2.1616,-2.1526,-0.4055,-0.4433,-0.4678,-0.4757,-0.5784,-0.6818,-0.6904,-0.7683,-0.8698,-0.9675,-0.9861,-1.0035,-1.0707,-1.1344,-1.2068,-1.2943,-1.333,-1.4002,-1.5375,-1.474,-1.4331,-1.4866,-1.432,0.0,0.0,0.0,0.0,-1.4748,-1.5795,-1.6536,-1.6614,-1.6624,-1.6894,-1.7486,-1.7647,-1.7884,-1.8218,-1.8358,-1.839,-1.8304,-1.7906,-1.7604,-1.7367,-1.712,-1.6872,-1.6646,-1.6894,-1.6861,-1.6646,-1.6894,-1.7001,-1.7001,-1.7001,-1.7001,-1.7001,-1.7001,-1.7001,-1.7066,-1.7776,-1.7969,-1.8355,-2.0386,-2.0823,-2.0824,-2.1996,-2.1637,-2.0924,-2.1172,-2.1264,-2.1435,-2.1774,-2.241,-2.3199,-2.3999,-2.4167,-2.4399,-2.5164,-2.5344,-2.5235,-2.4871,-2.4776,-2.4647,-2.4275,-2.4202,-2.411,-2.3804,-2.3198,-2.2602,-2.2355,-2.1943,-2.1687,-2.1687,-2.1687,-2.1687,-2.1687,-2.1687,-2.1687,-2.1687,-2.1687,-2.1687,-2.1687,-2.1687,-2.1687,-2.1687,-2.1687,-2.1687,-2.1687,-2.1687,-2.1687,-2.1687,-2.1687,-2.1616,-0.455,-0.4635,-0.453,-0.501,-0.5612,-0.6251,-0.668,-0.757,-0.848,-0.9325,-0.9822,-1.0178,0.0,0.0,-1.1946,-1.2777,-1.3565,-1.4406,-1.5412,-1.5285,-1.4974,0.0,0.0,0.0,0.0,0.0,0.0,-1.521,0.0,-1.605,-1.6061,-1.6061,-1.6527,-1.768,-1.7723,-1.7949,-1.8433,-1.8433,-1.8326,-1.811,-1.7841,-1.7604,-1.7389,-1.712,-1.6635,-1.6104,-1.671,-1.6624,-1.6115,-1.6732,-1.7001,-1.7001,-1.7001,-1.7001,-1.7001,-1.7001,-1.7001,-1.7066,-1.7711,-1.7969,-1.8098,-1.8816,-1.9008,-1.896,-1.8707,-1.905,-1.9658,-2.0305,-2.0953,-2.1627,-2.2575,-2.2821,-2.2805,-2.2862,-2.2934,-2.3135,-2.3972,-2.4122,-2.4257,-2.4618,-2.471,-2.4597,-2.4275,-2.4202,-2.4202,-2.4152,-2.3755,-2.3206,-2.2419,-2.1961,-2.1679,-2.1642,-2.1642,-2.1642,-2.1642,-2.1687,-2.1687,-2.1687,-2.1687,-2.1687,-2.1687,-2.1687,-2.1687,-2.1642,-2.1642,-2.1642,-2.1642,-2.1642,-2.1687,-2.1687,-2.1687,-2.1687,-0.4467,-0.4722,-0.5015,-0.5128,-0.566,-0.6216,-0.6775,-0.7212,-0.7578,-0.7914,-0.7614,-0.7197,0.0,0.0,0.0,-1.0543,-1.1615,0.0,-1.4818,-1.4557,0.0,0.0,0.0,-1.5167,-1.5634,-1.6054,0.0,0.0,-1.6118,-1.6612,-1.6721,-1.6732,-1.7033,-1.7701,-1.7723,-1.7949,-1.8433,-1.8433,-1.8331,-1.8347,-1.7916,-1.769,-1.7615,-1.7195,-1.6904,-1.6743,-1.6926,-1.6904,-1.6754,-1.6926,-1.7001,-1.7001,-1.7001,-1.7001,-1.7001,-1.7001,-1.7001,-1.7001,-1.7195,-1.726,-1.7389,-1.8033,-1.8291,-1.8343,-1.8796,-1.8894,-1.8888,-1.9051,-1.9322,-1.9582,-1.9784,-2.0075,-2.0558,-2.146,-2.181,-2.2172,-2.3079,-2.3432,-2.3472,-2.3069,-2.325,-2.3595,-2.4126,-2.4202,-2.4053,-2.3587,-2.3149,-2.2883,-2.2756,-2.2059,-2.1516,-2.1212,-2.1177,-2.1177,-2.1177,-2.1508,-2.1687,-2.1687,-2.1687,-2.1687,-2.1687,-2.1687,-2.1553,-2.1177,-2.1177,-2.1177,-2.1177,-2.1177,-2.1374,-2.1687,-2.1687,-2.1687,-0.4884,-0.5035,-0.52,-0.5296,-0.5494,-0.5836,-0.6225,-0.6333,-0.6368,-0.6577,-0.6324,0.0,0.0,0.0,0.0,0.0,0.0,0.0,-1.468,-1.4581,-1.4525,0.0,-1.5285,0.0,-1.6398,-1.6678,-1.6646,0.0,-1.6363,-1.6471,-1.6538,-1.6538,-1.6904,-1.769,-1.7723,-1.7949,-1.8433,-1.8433,-1.8433,-1.8363,-1.7949,-1.7723,-1.7701,-1.7217,-1.684,-1.656,0.0,-1.6829,-1.656,-1.6872,-1.7001,-1.7001,-1.7001,-1.7001,-1.7001,-1.7001,-1.7001,-1.7001,-1.7001,-1.7001,-1.7066,-1.7453,-1.7582,-1.7647,-1.8045,-1.8262,-1.8312,-1.8207,-1.8456,-1.8654,-1.8406,-1.853,-1.8861,-1.9417,-1.9685,-2.0103,-2.1174,-2.1678,-2.196,-2.183,-2.2033,-2.2345,-2.267,-2.297,-2.307,-2.297,-2.2746,-2.2582,-2.2487,-2.1766,-2.1136,-2.0734,-2.0862,-2.0997,-2.0997,-2.1419,-2.1687,-2.1687,-2.1508,-2.1419,-2.1419,-2.1195,-2.097,-2.0682,-2.0907,-2.0997,-2.0997,-2.1221,-2.1463,-2.1687,-2.1687,-2.1597,-0.5352,-0.5385,-0.5225,-0.5345,-0.5296,-0.5324,-0.5552,-0.5408,-0.5257,-0.547,0.0,-0.5504,-0.5064,0.0,-0.837,-0.9876,0.0,-1.3087,-1.4545,-1.4866,-1.4966,-1.5124,-1.5461,-1.5924,-1.6635,-1.6797,-1.6904,-1.7001,-1.6431,-1.6147,-1.6147,-1.6147,-1.6592,-1.769,-1.7755,-1.7981,-1.8433,-1.8433,-1.8422,-1.8379,-1.7938,-1.7701,-1.7658,-1.7206,-1.6667,-1.618,-1.6743,0.0,-1.6201,-1.6754,-1.7001,-1.7001,-1.7001,-1.7001,-1.7001,-1.7001,-1.7001,-1.7001,-1.7001,-1.7001,-1.7001,-1.7001,-1.7001,-1.7001,-1.7001,-1.7389,-1.7795,-1.758,-1.792,-1.833,-1.7864,-1.7745,-1.7697,-1.7539,-1.7503,-1.7809,-1.8855,-1.9479,-2.0046,-2.0669,-2.0834,-2.0866,-2.0715,-2.12,-2.1743,-2.2114,-2.2316,-2.2248,-2.1775,-2.1179,-2.0649,-2.032,-2.0671,-2.0907,-2.0907,-2.1374,-2.1687,-2.1687,-2.1266,-2.0997,-2.0997,-2.0564,-2.0292,-2.0201,-2.0591,-2.0817,-2.0817,-2.1239,-2.1463,-2.1508,-2.1508,-2.1284,-0.5026,-0.5124,-0.5345,-0.5284,-0.5364,-0.5474,-0.5492,-0.538,0.0,0.0,0.0,-0.4783,-0.4478,-0.6259,0.0,-0.9155,0.0,0.0,0.0,0.0,-1.4902,0.0,0.0,0.0,0.0,0.0,0.0,0.0,0.0,-1.6818,-1.6818,-1.6818,-1.7098,-1.7701,-1.7916,-1.8164,-1.8433,-1.8433,-1.8336,-1.8153,-1.7852,-1.7615,-1.7432,-1.7141,-1.6937,-1.6829,-1.6947,0.0,-1.6829,-1.6947,-1.7001,-1.7001,-1.7001,-1.7001,-1.7001,-1.7001,-1.7001,-1.7001,-1.7001,-1.7001,-1.7001,-1.7001,-1.7001,-1.7001,-1.7001,-1.7066,-1.7184,-1.7152,-1.73,-1.7399,-1.7307,-1.7456,-1.7539,-1.7491,-1.7648,-1.7804,-1.7809,-1.7877,-1.8184,-1.8951,-1.896,-1.904,-1.9623,-2.0452,-2.0896,-2.0503,-2.1234,-2.1543,-2.0782,-2.0671,-2.0564,-2.0182,-2.028,-2.0428,-2.0428,-2.1195,-2.1687,-2.1687,-2.1266,-2.0997,-2.0997,-2.0564,-2.011,-1.9729,-1.982,-1.982,-1.982,-1.9911,-2.0138,-2.0518,-2.0518,-2.0518,-0.4996,-0.5141,-0.5361,-0.5213,-0.5194,-0.515,-0.4795,0.0,0.0,0.0,0.0,-0.3761,-0.3768,0.0,0.0,0.0,0.0,0.0,0.0,0.0,0.0,0.0,0.0,0.0,0.0,0.0,0.0,0.0,0.0,-1.6614,-1.698,-1.713,-1.7303,-1.754,-1.7776,-1.8013,-1.8261,-1.8132,-1.8067,-1.8089,-1.7723,-1.7486,-1.7367,-1.712,-1.7001,-1.7001,-1.7001,0.0,-1.6484,-1.685,-1.6786,-1.6484,-1.6861,-1.7001,-1.7001,-1.7001,-1.7001,-1.7001,-1.7001,-1.7001,-1.7001,-1.7001,-1.7001,-1.7001,-1.7001,-1.7001,-1.7001,-1.7001,-1.6945,-1.6901,-1.6779,-1.6713,-1.6697,-1.6512,-1.6629,-1.6745,-1.6914,-1.695,-1.7043,-1.7334,-1.746,-1.7559,-1.7752,-1.8787,-1.9627,-1.9576,-2.0534,-2.1116,-2.0686,-2.0618,-2.0427,-2.011,-2.0175,-2.0222,-2.0309,-2.0699,-2.097,-2.097,-2.0546,-2.0275,-2.0275,-1.9774,-1.9425,-1.9196,-1.9455,-1.9592,-1.9592,-1.9866,-2.0065,-2.0292,-2.0292,-2.0155,-0.503,-0.5202,-0.5357,-0.5188,-0.5145,-0.4913,-0.4138,-0.3741,0.0,0.0,-0.2792,-0.2975,-0.3234,0.0,0.0,0.0,0.0,0.0,0.0,0.0,0.0,0.0,0.0,0.0,0.0,0.0,0.0,0.0,0.0,0.0,-1.698,-1.7195,-1.7324,-1.7378,-1.755,-1.7766,-1.8013,-1.7819,-1.7798,-1.7938,-1.7561,-1.7346,-1.7292,-1.7098,-1.7001,-1.7001,-1.7001,0.0,0.0,-1.6774,-1.6655,-1.6082,-1.6796,-1.7066,-1.7001,-1.7001,-1.7001,-1.7001,-1.7001,-1.7001,-1.7001,-1.7001,-1.7001,-1.7001,-1.7001,-1.7001,-1.7001,-1.7001,-1.6807,-1.6549,-1.6366,-1.6097,-1.5888,-1.5645,-1.5601,-1.572,-1.6183,-1.6301,-1.6245,-1.6112,-1.6217,-1.6219,-1.5951,-1.6993,-1.8014,-1.8433,-1.9435,-2.0292,-2.0498,-2.0096,-1.9844,-1.9958,-2.0048,-2.0099,-2.0144,-2.0246,-2.0292,-2.0292,-1.9866,-1.9592,-1.9592,-1.9104,-1.8781,-1.8781,-1.9225,-1.9409,-1.9409,-1.9791,-1.9973,-1.9973,-1.9973,-1.9791,-0.5132,-0.53,-0.5341,-0.5165,-0.5256,-0.5133,-0.4139,0.0,0.0,-0.2772,-0.2771,-0.2974,-0.3158,-0.4714,0.0,0.0,0.0,0.0,0.0,0.0,0.0,0.0,0.0,0.0,0.0,0.0,0.0,0.0,0.0,0.0,-1.7001,-1.7023,-1.7141,-1.7367,-1.74,-1.7518,-1.7755,-1.7733,-1.7626,-1.7443,-1.74,-1.726,-1.7033,-1.7012,-1.7001,-1.7001,-1.7001,0.0,0.0,-1.7039,-1.6907,-1.6082,-1.705,-1.7271,-1.7001,-1.7001,-1.7001,-1.7001,-1.7001,-1.7001,-1.7001,-1.7001,-1.7001,-1.7001,-1.7001,-1.7001,-1.7001,-1.7001,-1.6689,-1.6344,-1.6323,-1.5978,-1.5623,-1.5601,-1.5601,-1.5601,-1.5661,-1.5661,-1.565,-1.5628,-1.5366,-1.5039,-1.5017,-1.5666,-1.6127,-1.618,-1.7173,-1.8237,-1.9228,-1.8471,-1.8264,-1.934,-1.9846,-1.9989,-1.9671,-2.0065,-2.0292,-2.0292,-1.9866,-1.9592,-1.9592,-1.9104,-1.8781,-1.8781,-1.8827,-1.8874,-1.8874,-1.892,-1.892,-1.892,-1.892,-1.892,-0.4884,-0.5168,-0.5337,-0.5153,-0.505,-0.4821,-0.3886,0.0,-0.3135,-0.249,-0.2432,-0.2545,-0.2793,-0.3853,-0.4843,-0.5353,-0.6512,-0.815,0.0,0.0,0.0,0.0,0.0,0.0,0.0,0.0,0.0,0.0,0.0,0.0,-1.7313,-1.7141,-1.7055,-1.7152,-1.7152,-1.727,-1.7507,-1.7367,-1.7324,-1.7378,-1.7227,-1.7098,-1.7001,-1.7001,-1.7001,-1.7001,-1.7001,0.0,0.0,-1.6915,-1.6779,-1.5781,-1.7011,-1.74,-1.7271,-1.7066,-1.7001,-1.7001,-1.7001,-1.7001,-1.7001,-1.7001,-1.7001,-1.7001,-1.7001,-1.7001,-1.7001,-1.7001,-1.6667,-1.6312,-1.6312,-1.5957,-1.5601,-1.5601,-1.5601,-1.5601,-1.5601,-1.5601,-1.5601,-1.5601,-1.5214,-1.488,-1.488,-1.5459,-1.5914,-1.5914,-1.6869,-1.7752,-1.8185,-1.7871,-1.7696,-1.7946,-1.8023,-1.8279,-1.8848,-1.8629,-1.875,-1.9379,-1.9242,-1.9104,-1.9104,-1.892,-1.8535,-1.7917,-1.8488,-1.8488,-1.7917,-1.8488,-1.8781,-1.8781,-1.8781,-1.8781,-0.4644,-0.5031,-0.5372,-0.5108,-0.4942,-0.455,0.0,0.0,-0.2915,-0.2322,-0.2254,-0.2367,-0.2524,-0.3158,-0.3861,-0.4443,-0.5581,-0.7123,-0.9282,0.0,0.0,0.0,0.0,0.0,0.0,0.0,0.0,0.0,0.0,0.0,0.0,-1.74,-1.7195,-1.7001,-1.7001,-1.7087,-1.727,-1.7087,-1.7087,-1.727,-1.7217,-1.7022,-1.6827,-1.7161,-1.7215,-1.6965,-1.7172,0.0,0.0,-1.7207,-1.7044,-1.602,-1.7303,-1.7669,-1.7464,-1.7206,-1.7066,-1.7001,-1.7001,-1.7001,-1.7001,-1.7001,-1.7001,-1.7001,-1.7001,-1.7001,-1.7001,-1.7001,-1.6667,-1.628,-1.614,-1.5849,-1.5601,-1.5601,-1.5601,-1.5601,-1.5601,-1.5601,-1.5601,-1.5601,-1.5214,-1.488,-1.488,-1.5196,-1.5393,-1.5393,-1.6086,-1.6711,-1.7028,-1.6817,-1.674,-1.7145,-1.6596,-1.6738,-1.8082,-1.7911,-1.7917,-1.835,-1.835,-1.821,-1.7932,-1.7932,-1.7731,-1.7296,-1.801,-1.8164,-1.7777,-1.8442,-1.8781,-1.8781,-1.8781,-1.8781,-0.4589,-0.5039,-0.5409,-0.5101,-0.4854,-0.4497,0.0,-0.3409,-0.3086,-0.2352,-0.2414,-0.2555,-0.243,-0.295,-0.363,-0.4304,-0.4809,-0.6109,-0.9005,0.0,0.0,0.0,0.0,0.0,0.0,0.0,0.0,0.0,0.0,0.0,0.0,-1.7969,-1.7711,-1.7001,-1.7001,-1.7001,-1.7001,-1.7001,-1.7001,-1.7012,-1.7335,-1.7089,-1.6343,-1.7501,-1.7571,0.0,0.0,0.0,0.0,-1.8116,-1.7976,-1.7104,-1.8202,-1.8121,-1.7464,-1.7464,-1.7271,-1.7001,-1.7001,-1.7001,-1.7001,-1.7001,-1.7001,-1.7001,-1.7001,-1.7001,-1.7001,-1.7001,-1.6667,-1.6204,-1.5731,-1.5601,-1.5601,-1.5601,-1.5601,-1.5601,-1.5601,-1.5601,-1.5601,-1.5601,-1.5214,-1.488,-1.488,-1.4503,-1.4191,-1.4191,-1.4245,-1.4665,-1.5755,-1.4922,-1.5083,-1.7331,-1.6048,-1.5757,-1.7534,-1.8364,-1.835,-1.739,-1.7343,-1.6875,-1.5886,-1.5839,-1.6311,-1.7296,-1.7296,-1.7824,-1.8781,-1.8781,-1.8781,-1.8781,-1.8781,-1.8781,-0.4088,-0.4307,-0.4414,-0.4108,-0.401,-0.3775,-0.3169,-0.3032,-0.2916,-0.2488,-0.2506,-0.2602,-0.2594,-0.2898,-0.3441,-0.438,-0.4817,0.0,0.0,0.0,0.0,0.0,0.0,0.0,0.0,0.0,0.0,0.0,0.0,0.0,0.0,-1.8173,-1.7776,-1.7335,-1.7335,-1.7335,-1.7335,-1.7335,-1.7464,-1.7711,-1.7776,-1.7456,-1.6767,-1.7639,-1.7571,0.0,0.0,0.0,0.0,-1.8179,-1.8113,-1.743,-1.8265,-1.8442,-1.8249,-1.7916,-1.7776,-1.7711,-1.7711,-1.7518,-1.7335,-1.7335,-1.7206,-1.7001,-1.7001,-1.7001,-1.6937,-1.6624,-1.6431,-1.6204,-1.572,-1.5601,-1.5601,-1.5601,-1.5601,-1.5601,-1.5601,-1.5601,-1.5601,-1.5601,-1.5214,-1.488,-1.488,-1.4503,-1.4191,-1.4191,-1.4331,-1.4538,-1.491,-1.4636,-1.4691,-1.539,-1.5299,-1.5693,-1.6914,-1.6854,-1.6593,-1.6311,-1.6264,-1.6123,-1.5792,-1.6452,-1.664,-1.6264,-1.7638,-1.8149,-1.7777,-1.7777,-1.7777,-1.7777,-1.7777,-1.8149,0.0,-0.3834,-0.3907,-0.3622,-0.354,-0.3423,-0.2976,-0.2841,-0.2773,-0.2616,-0.2639,-0.2722,-0.2771,-0.2936,-0.3331,-0.4116,-0.467,0.0,0.0,0.0,0.0,0.0,0.0,0.0,0.0,0.0,0.0,0.0,0.0,0.0,0.0,-1.8559,-1.8238,-1.7927,-1.7787,-1.7723,-1.7723,-1.7723,-1.7787,-1.7969,-1.8173,-1.7845,-1.7141,-1.8018,-1.8011,0.0,0.0,0.0,0.0,-1.8486,-1.853,-1.8137,-1.8637,-1.8699,-1.8571,-1.8302,-1.8109,-1.7969,-1.7969,-1.784,-1.7723,-1.7723,-1.7518,-1.7367,-1.715,-1.7,-1.6797,-1.642,-1.6247,-1.6086,-1.5698,-1.5601,-1.5601,-1.5601,-1.5601,-1.5601,-1.5601,-1.5601,-1.5601,-1.5601,-1.5214,-1.488,-1.488,-1.4503,-1.4191,-1.4191,-1.4385,-1.448,-1.448,-1.448,-1.4646,-1.5076,-1.5216,-1.5558,-1.6202,-1.6055,-1.5769,-1.5248,-1.5235,-1.5045,-1.4663,-1.527,-1.5507,-1.5235,-1.6466,-1.6983,-1.6734,-1.6734,-1.6922,-1.7296,-1.7296,-1.7824,0.0,-0.35,0.0,0.0,-0.3384,-0.3268,-0.3009,-0.2824,0.0,-0.2685,-0.2802,-0.29,-0.2902,-0.3075,-0.3312,-0.3672,-0.4441,0.0,0.0,0.0,0.0,0.0,0.0,0.0,0.0,0.0,0.0,0.0,0.0,0.0,0.0,-1.9072,-1.8956,-1.8635,-1.8302,-1.8098,-1.8033,-1.8033,-1.8011,-1.8017,-1.8407,-1.8199,-1.7409,-1.856,-1.8638,0.0,0.0,0.0,0.0,-1.9072,-1.9072,-1.9072,-1.9072,-1.8892,-1.8635,-1.8635,-1.8366,-1.8098,-1.8098,-1.8033,-1.8033,-1.8011,-1.7946,-1.7901,-1.7334,-1.6962,-1.6677,-1.6355,-1.6118,-1.5953,-1.5655,-1.5601,-1.5601,-1.5601,-1.5601,-1.5601,-1.5601,-1.5601,-1.5601,-1.5601,-1.5214,-1.488,-1.488,-1.4503,-1.4191,-1.4191,-1.4406,-1.4502,-1.4502,-1.4502,-1.4944,-1.5967,-1.5559,-1.5239,-1.5371,-1.5845,-1.5557,-1.4292,-1.4232,-1.3786,-1.2856,-1.2856,-1.334,-1.4292,-1.4388,-1.4819,-1.5697,-1.5697,-1.617,-1.7109,-1.7109,-1.7638,-0.2282,0.0,-0.2817,-0.274,-0.2752,-0.2732,0.0,-0.2466,-0.2515,-0.242,0.0,0.0,-0.2897,-0.3096,-0.3464,0.0,0.0,0.0,0.0,0.0,0.0,0.0,0.0,0.0,0.0,0.0,0.0,0.0,0.0,0.0,0.0,-1.9072,-1.9072,-1.8956,-1.888,-1.8688,-1.8442,-1.8442,-1.8265,-1.7911,-1.8656,-1.8213,-1.6918,-1.8432,-1.8638,0.0,0.0,0.0,-1.9072,-1.9072,-1.9072,-1.9072,-1.9072,-1.9072,-1.8956,-1.8956,-1.8944,-1.8816,-1.8816,-1.8688,-1.8343,-1.788,-1.7685,-1.7576,-1.7077,-1.7008,-1.6937,-1.6273,-1.605,-1.5953,-1.5655,-1.5601,-1.5601,-1.5601,-1.5601,-1.5601,-1.5601,-1.5601,-1.5601,-1.5601,-1.5214,-1.488,-1.488,-1.4503,-1.4191,-1.4191,-1.4546,-1.4805,-1.4805,-1.4805,-1.4917,-1.5187,-1.4767,-1.4392,-1.4193,-1.4867,-1.476,-1.3485,-1.3364,-1.3188,-1.2818,-1.3534,-1.4052,-1.4292,-1.5045,-1.5188,-1.4675,-1.4675,-1.4771,-1.4997,-1.4997,-1.552,-0.1946,-0.2229,-0.2465,-0.2529,-0.2594,-0.2641,-0.2578,0.0,0.0,0.0,0.0,0.0,0.0,0.0,0.0,0.0,0.0,0.0,0.0,0.0,0.0,0.0,0.0,0.0,0.0,0.0,0.0,0.0,0.0,0.0,0.0,-1.9072,-1.9072,-1.9072,-1.9072,-1.9008,-1.8828,-1.8828,-1.8548,-1.7889,-1.8686,-1.8432,-1.7286,-1.8517,-1.8843,0.0,0.0,0.0,-1.9048,-1.8674,-1.8746,-1.9072,-1.9072,-1.9072,-1.9072,-1.9072,-1.9072,-1.9072,-1.9072,-1.8872,-1.8562,-1.8218,-1.8027,-1.7824,-1.7261,-1.715,-1.7145,-1.6265,-1.5931,-1.5763,-1.5634,-1.5601,-1.5601,-1.5601,-1.5601,-1.5601,-1.5601,-1.5601,-1.5601,-1.5601,-1.5214,-1.488,-1.488,-1.4503,-1.4191,-1.4191,-1.4589,-1.488,-1.488,-1.4977,-1.5052,-1.5052,-1.4632,-1.4299,-1.4105,-1.4451,-1.4207,-1.3186,-1.3104,-1.3007,-1.2818,-1.334,-1.363,-1.363,-1.4148,-1.4148,-1.363,-1.363,-1.3871,-1.4292,-1.4292,-1.4854,-0.1865,-0.2172,-0.245,-0.2581,-0.2702,-0.283,-0.2934,0.0,0.0,0.0,0.0,0.0,0.0,0.0,0.0,0.0,0.0,0.0,0.0,0.0,0.0,0.0,0.0,0.0,0.0,0.0,0.0,0.0,0.0,0.0,0.0,-1.8547,-1.8547,-1.8752,-1.8752,-1.888,-1.9072,-1.9072,-1.8674,-1.7889,-1.8686,-1.865,-1.7961,-1.871,-1.9072,-1.9036,0.0,0.0,-1.9024,-1.8336,-1.8456,-1.9072,-1.9072,-1.9072,-1.9072,-1.9072,-1.9072,-1.9072,-1.9024,-1.8867,-1.8674,-1.8589,-1.8408,-1.8118,-1.7552,-1.7349,-1.7169,-1.6315,-1.5932,-1.572,-1.572,-1.572,-1.572,-1.572,-1.572,-1.572,-1.572,-1.572,-1.5661,-1.5661,-1.5272,-1.488,-1.488,-1.4503,-1.4202,-1.4245,-1.4611,-1.4902,-1.4934,-1.5059,-1.5188,-1.5188,-1.4802,-1.4512,-1.448,-1.4363,-1.3954,-1.3254,-1.3211,-1.3093,-1.2872,-1.2862,-1.2851,-1.2807,-1.2807,-1.2807,-1.2807,-1.2807,-1.3244,-1.4064,-1.4064,-1.4532,-0.1907,-0.2273,-0.2577,-0.2605,-0.2913,-0.3152,-0.2883,0.0,0.0,0.0,0.0,0.0,0.0,0.0,0.0,0.0,0.0,0.0,0.0,0.0,0.0,0.0,0.0,0.0,0.0,0.0,0.0,0.0,0.0,0.0,0.0,-1.6203,-1.6073,-1.7302,-1.7302,-1.7893,-1.9072,-1.9072,-1.8674,-1.7889,-1.8686,-1.865,-1.7961,-1.871,-1.9072,-1.9072,0.0,-1.8963,-1.906,-1.8939,-1.8963,-1.9072,-1.9072,-1.9072,-1.9072,-1.9072,-1.9072,-1.9048,-1.8819,-1.8722,-1.8613,-1.8143,-1.7974,-1.7829,-1.7221,-1.7079,-1.6961,-1.6535,-1.6394,-1.6301,-1.6087,-1.6194,-1.636,-1.636,-1.636,-1.636,-1.636,-1.6194,-1.6028,-1.6028,-1.5445,-1.488,-1.488,-1.4503,-1.4256,-1.4449,-1.4708,-1.4955,-1.5113,-1.5167,-1.5188,-1.5188,-1.4999,-1.4751,-1.4502,-1.4448,-1.4256,-1.3739,-1.3706,-1.3513,-1.3071,-1.305,-1.2964,-1.2818,-1.2807,-1.2807,-1.2807,-1.2807,-1.2856,-1.305,-1.305,-1.3098,-0.1746,-0.2095,-0.2472,-0.2616,-0.2988,-0.3329,-0.3469,-0.3234,0.0,0.0,0.0,0.0,0.0,0.0,0.0,0.0,0.0,0.0,0.0,0.0,0.0,0.0,0.0,0.0,0.0,0.0,0.0,0.0,0.0,0.0,0.0,0.0,-1.5173,-1.5814,-1.5879,-1.6527,-1.7958,-1.7958,-1.796,-1.7889,-1.8686,-1.865,-1.7961,-1.871,-1.9072,-1.9048,0.0,-1.8674,-1.9048,-1.8601,-1.8686,-1.9072,-1.9072,-1.9072,-1.9072,-1.9072,-1.8988,-1.8843,-1.8722,-1.8493,-1.8203,-1.795,-1.7781,-1.7636,-1.735,-1.7256,-1.7197,-1.6844,-1.6655,-1.6478,-1.6371,-1.6419,-1.6478,-1.6478,-1.6478,-1.6478,-1.6478,-1.6419,-1.6253,-1.6146,-1.563,-1.5117,-1.4937,-1.4503,-1.4266,-1.4448,-1.4729,-1.4966,-1.5156,-1.5306,-1.544,-1.544,-1.5225,-1.5042,-1.4877,-1.463,-1.4276,-1.3846,-1.3706,-1.3534,-1.3319,-1.3179,-1.306,-1.2953,-1.2872,-1.2807,-1.2807,-1.2807,-1.2807,-1.2807,-1.2807,-1.2807,-0.1737,-0.2009,-0.2376,-0.2642,0.0,-0.3348,-0.393,-0.3524,0.0,0.0,0.0,0.0,0.0,0.0,0.0,0.0,0.0,0.0,0.0,0.0,0.0,0.0,0.0,0.0,0.0,0.0,0.0,0.0,0.0,0.0,0.0,0.0,-1.4063,-1.439,-1.439,-1.5098,-1.6462,-1.685,-1.7409,-1.8167,-1.8782,-1.8746,-1.8179,-1.8794,-1.9072,-1.9036,-1.842,-1.8505,-1.9024,-1.8408,-1.8517,-1.9072,-1.9072,-1.9036,-1.8988,-1.8988,-1.8819,-1.8589,-1.8517,-1.8215,-1.7865,-1.7805,-1.7648,-1.7479,-1.7479,-1.7479,-1.742,-1.7197,-1.6961,-1.6714,-1.6655,-1.6655,-1.6714,-1.6714,-1.6714,-1.6714,-1.6714,-1.6596,-1.6408,-1.6186,-1.5643,-1.5152,-1.4872,-1.446,-1.4288,-1.4579,-1.4772,-1.4988,-1.5231,-1.5494,-1.5601,-1.5601,-1.544,-1.5253,-1.5199,-1.4748,-1.4319,-1.4008,-1.3771,-1.362,-1.3556,-1.3319,-1.3168,-1.3104,-1.2877,-1.2807,-1.2807,-1.2807,-1.2807,-1.2807,-1.2807,-1.2807,-0.2131,-0.2224,-0.2379,-0.2707,-0.2855,-0.3118,-0.3839,-0.3542,0.0,-0.4377,0.0,0.0,0.0,0.0,0.0,0.0,0.0,0.0,0.0,0.0,0.0,0.0,0.0,0.0,0.0,0.0,0.0,0.0,0.0,0.0,0.0,0.0,0.0,-1.2882,-1.2947,-1.3604,-1.5043,-1.6333,-1.7667,-1.8988,-1.9048,-1.9048,-1.8988,-1.9048,-1.9072,-1.9072,-1.9012,-1.9024,-1.9072,-1.9012,-1.9024,-1.9072,-1.9072,-1.8927,-1.871,-1.871,-1.8553,-1.8287,-1.8022,-1.7901,-1.7829,-1.7587,-1.7503,-1.7479,-1.7479,-1.7479,-1.7479,-1.7479,-1.742,-1.7361,-1.702,-1.7197,-1.742,-1.742,-1.742,-1.742,-1.742,-1.695,-1.641,-1.624,-1.5521,-1.4872,-1.46,-1.4352,-1.4342,-1.4794,-1.4869,-1.5052,-1.5515,-1.5591,-1.5601,-1.5601,-1.558,-1.5483,-1.521,-1.4748,-1.4469,-1.4427,-1.4266,-1.404,-1.3803,-1.3577,-1.334,-1.3114,-1.2877,-1.2807,-1.2807,-1.2807,-1.2807,-1.2807,-1.2807,-1.2807,-0.1933,-0.2084,-0.2412,-0.2805,-0.2985,0.0,0.0,-0.3747,-0.3762,-0.455,-0.4269,0.0,0.0,0.0,0.0,0.0,0.0,0.0,0.0,0.0,0.0,0.0,0.0,0.0,0.0,0.0,0.0,0.0,0.0,0.0,0.0,0.0,0.0,-1.1439,-1.1505,-1.2165,-1.3604,-1.4119,-1.5098,-1.6537,-1.8291,-1.9072,-1.9072,-1.9072,-1.9072,-1.9072,-1.9072,-1.9072,-1.9072,-1.9072,-1.8976,-1.8819,-1.865,-1.8529,-1.8444,-1.8444,-1.8263,-1.8022,-1.7973,-1.7768,-1.7612,-1.7515,-1.7479,-1.7479,-1.7479,-1.7479,-1.7479,-1.7479,-1.7479,-1.7479,-1.7373,-1.742,-1.7479,-1.7479,-1.7479,-1.7479,-1.7479,-1.7183,-1.6796,-1.6529,-1.5954,-1.5421,-1.5099,-1.4712,-1.4614,-1.5097,-1.4993,-1.5063,-1.5537,-1.5601,-1.5601,-1.5601,-1.5601,-1.5505,-1.521,-1.5027,-1.4791,-1.4502,-1.432,-1.4148,-1.4051,-1.3825,-1.3642,-1.3556,-1.3168,-1.2974,-1.2974,-1.2883,-1.2807,-1.2807,-1.2807,-1.2807,-0.1899,-0.2088,-0.2427,-0.2822,0.0,0.0,-0.392,-0.3952,-0.3997,-0.461,-0.4479,0.0,0.0,0.0,0.0,0.0,0.0,0.0,0.0,0.0,0.0,0.0,0.0,0.0,0.0,0.0,0.0,0.0,0.0,0.0,0.0,0.0,0.0,0.0,-1.0582,-1.1033,-1.2003,-1.2506,-1.3223,-1.4125,-1.6583,-1.7953,-1.8419,-1.8419,-1.8676,-1.9072,-1.8988,-1.8951,-1.8951,-1.8867,-1.8722,-1.8541,-1.836,-1.8239,-1.8155,-1.8155,-1.7986,-1.7744,-1.7744,-1.7636,-1.7479,-1.7479,-1.7479,-1.7479,-1.7479,-1.7479,-1.7479,-1.7479,-1.7479,-1.7479,-1.7479,-1.7479,-1.7479,-1.7479,-1.7479,-1.7479,-1.7479,-1.7216,-1.6884,-1.6572,-1.6095,-1.567,-1.5304,-1.4982,-1.4853,-1.5278,-1.5165,-1.5196,-1.5555,-1.5609,-1.5642,-1.5649,-1.5607,-1.5537,-1.5317,-1.5231,-1.5049,-1.4727,-1.4536,-1.4342,-1.4202,-1.3954,-1.3814,-1.3814,-1.3351,-1.3104,-1.3104,-1.2926,-1.2807,-1.2807,-1.2807,-1.2807,-0.2152,-0.2308,-0.2471,0.0,0.0,0.0,-0.4071,-0.4076,-0.4051,-0.4493,0.0,0.0,0.0,0.0,0.0,0.0,0.0,0.0,0.0,0.0,0.0,0.0,0.0,0.0,0.0,0.0,0.0,0.0,0.0,0.0,0.0,0.0,0.0,-1.0283,-1.0283,-1.0283,-1.0283,-1.1818,-1.2514,-1.2398,-1.3916,-1.5465,-1.6969,-1.6969,-1.7753,-1.9048,-1.8794,-1.8674,-1.8662,-1.8396,-1.8287,-1.8287,-1.8287,-1.8118,-1.7865,-1.7865,-1.7708,-1.7479,-1.7479,-1.7479,-1.7479,-1.7479,-1.7479,-1.7479,-1.7479,-1.7479,-1.7479,-1.7479,-1.7479,-1.7479,-1.7479,-1.7479,-1.7479,-1.7479,-1.7479,-1.7479,-1.7479,-1.7029,-1.6539,-1.6348,-1.58,-1.5327,-1.5022,-1.4987,-1.5121,-1.5372,-1.5407,-1.5443,-1.5648,-1.5682,-1.5727,-1.5676,-1.5627,-1.5601,-1.5601,-1.5386,-1.5199,-1.5188,-1.502,-1.4676,-1.4213,-1.3954,-1.3825,-1.3825,-1.3351,-1.3104,-1.3104,-1.2877,-1.2807,-1.2818,-1.2807,-1.2807,-0.2284,-0.2505,0.0,0.0,0.0,0.0,0.0,-0.401,0.0,0.0,0.0,0.0,0.0,0.0,0.0,0.0,0.0,0.0,0.0,0.0,0.0,0.0,0.0,0.0,0.0,0.0,0.0,0.0,0.0,0.0,0.0,0.0,-0.9721,-1.0276,-1.0283,-1.0283,-1.0283,-1.0764,-1.0955,-1.0904,-1.1393,-1.2893,-1.5216,-1.5216,-1.5972,-1.7173,-1.7106,-1.758,-1.8384,-1.8118,-1.7998,-1.7986,-1.7793,-1.7672,-1.7599,-1.7599,-1.7551,-1.7479,-1.7479,-1.7479,-1.7479,-1.7479,-1.7479,-1.7479,-1.7479,-1.7479,-1.7479,-1.7479,-1.7479,-1.7479,-1.7479,-1.7479,-1.7479,-1.7479,-1.7479,-1.743,-1.7249,-1.6939,-1.6618,-1.6342,-1.6024,-1.5713,-1.5642,-1.547,-1.5456,-1.5646,-1.5516,-1.5443,-1.5648,-1.5716,-1.5678,-1.5687,-1.5627,-1.5601,-1.5601,-1.5537,-1.5429,-1.5199,-1.5124,-1.4866,-1.4449,-1.4309,-1.4245,-1.4083,-1.361,-1.3362,-1.3362,-1.3013,-1.2894,-1.2996,-1.2883,-1.2894,-0.2539,0.0,0.0,0.0,0.0,0.0,0.0,0.0,0.0,0.0,0.0,0.0,0.0,0.0,0.0,0.0,0.0,0.0,0.0,0.0,0.0,0.0,0.0,0.0,0.0,0.0,0.0,0.0,0.0,0.0,0.0,-0.9032,-0.9317,-0.9718,-0.9975,-1.01,-1.01,-1.0161,-1.0161,-1.01,-1.0161,-1.1025,-1.2679,-1.3893,-1.5401,-1.7145,-1.7043,-1.7378,-1.7962,-1.7793,-1.772,-1.7708,-1.7539,-1.7479,-1.7479,-1.7479,-1.7479,-1.7479,-1.7479,-1.7479,-1.7479,-1.7479,-1.7479,-1.7479,-1.7479,-1.7479,-1.7479,-1.7479,-1.7406,-1.7322,-1.7322,-1.7249,-1.7201,-1.7298,-1.7322,-1.7249,-1.6996,-1.6718,-1.6489,-1.6308,-1.6066,-1.5885,-1.5885,-1.5791,-1.569,-1.5832,-1.5693,-1.5623,-1.5724,-1.5694,-1.5713,-1.5687,-1.5627,-1.5601,-1.5601,-1.5601,-1.5553,-1.5431,-1.5246,-1.5042,-1.4723,-1.4591,-1.4428,-1.4202,-1.3717,-1.348,-1.348,-1.3045,-1.2877,-1.3104,-1.2964,-1.3028,-0.2838,0.0,0.0,0.0,0.0,0.0,0.0,0.0,0.0,0.0,0.0,0.0,0.0,0.0,0.0,0.0,0.0,0.0,0.0,0.0,0.0,0.0,0.0,0.0,0.0,0.0,0.0,0.0,0.0,0.0,0.0,-0.8543,-0.9092,-0.8793,-0.9457,-0.9822,-0.9822,-0.9896,-0.9896,-0.9822,-0.9903,-0.9958,-1.0072,-1.2696,-1.535,-1.7897,-1.7889,-1.7708,-1.7479,-1.7479,-1.7479,-1.7479,-1.7479,-1.7479,-1.7479,-1.7479,-1.7479,-1.7479,-1.7479,-1.7479,-1.7479,-1.7479,-1.7479,-1.7479,-1.7455,-1.7443,-1.7443,-1.7418,-1.7237,-1.7056,-1.7056,-1.6875,-1.6754,-1.6972,-1.7032,-1.6984,-1.6718,-1.6465,-1.6272,-1.6247,-1.6054,-1.5885,-1.5885,-1.5885,-1.5885,-1.5885,-1.5885,-1.5875,-1.5842,-1.5779,-1.5682,-1.5736,-1.5664,-1.5601,-1.5601,-1.5601,-1.5612,-1.571,-1.5409,-1.5145,-1.5011,-1.4701,-1.4428,-1.4202,-1.375,-1.3502,-1.348,-1.3067,-1.291,-1.3136,-1.3114,-1.3254,0.0,-0.3147,0.0,0.0,0.0,0.0,0.0,0.0,0.0,0.0,0.0,0.0,0.0,0.0,0.0,0.0,0.0,0.0,0.0,0.0,0.0,0.0,0.0,0.0,0.0,0.0,0.0,0.0,0.0,0.0,-0.7388,-0.8177,-0.8665,-0.8793,-0.9457,-0.9822,-0.9822,-0.9856,-0.9856,0.0,-0.9856,-1.0336,-1.1269,-1.0921,-1.2222,-1.4821,-1.6747,-1.7539,-1.7479,-1.7479,-1.7479,-1.7479,-1.7479,-1.7479,-1.7479,-1.7479,-1.7479,-1.7479,-1.7479,-1.7479,-1.7479,-1.7479,-1.7479,-1.7443,-1.7237,-1.7177,-1.7129,-1.6923,-1.6827,-1.6791,-1.6791,-1.6742,-1.6658,-1.6489,-1.6622,-1.6718,-1.6453,-1.6344,-1.6235,-1.6018,-1.5934,-1.5885,-1.5885,-1.5885,-1.5885,-1.5885,-1.5885,-1.591,-1.5863,-1.5822,-1.5768,-1.577,-1.5674,-1.5601,-1.5601,-1.5601,-1.5649,-1.5689,-1.561,-1.5432,-1.5011,-1.4701,-1.4428,-1.4202,-1.39,-1.3653,-1.348,-1.3179,-1.3157,-1.3394,-1.32,-1.334,0.0,0.0,0.0,0.0,0.0,0.0,0.0,0.0,0.0,0.0,0.0,0.0,0.0,0.0,0.0,0.0,0.0,0.0,0.0,0.0,0.0,0.0,0.0,0.0,0.0,0.0,0.0,0.0,0.0,-0.7016,-0.7388,-0.8055,-0.8482,-0.8604,-0.9214,-0.964,-0.9822,-0.9822,-0.9822,-0.9822,-0.9822,-1.0126,-1.0785,-1.1382,-1.2406,-1.3784,-1.5747,-1.6585,-1.6644,-1.7244,-1.7479,-1.7479,-1.7479,-1.7479,-1.7479,-1.7479,-1.7479,-1.7479,-1.7479,-1.7406,-1.7298,-1.7298,-1.7213,-1.708,-1.6948,-1.6911,-1.6875,-1.6742,-1.661,-1.6501,-1.6501,-1.6404,-1.6272,-1.6127,-1.6308,-1.6429,-1.6163,-1.6115,-1.6066,-1.5922,-1.5885,-1.5885,-1.5885,-1.5885,-1.5885,-1.5885,-1.5885,-1.5885,-1.5885,-1.5893,-1.5822,-1.5735,-1.5692,-1.5663,-1.5663,-1.5663,-1.5678,-1.5761,-1.5569,-1.53,-1.4986,-1.4691,-1.4418,-1.4202,-1.4113,-1.398,-1.3901,-1.3489,-1.35,-1.3849,-1.3496,-1.3545,0.0,0.0,0.0,0.0,0.0,0.0,0.0,0.0,0.0,0.0,0.0,0.0,0.0,0.0,0.0,0.0,0.0,0.0,0.0,0.0,0.0,0.0,0.0,0.0,0.0,0.0,0.0,0.0,0.0,-0.7266,-0.7205,-0.7878,-0.8236,-0.8231,-0.8835,-0.9338,-0.9781,-0.9781,-0.9795,-0.9822,-0.9822,-0.9822,-0.9883,-1.2045,-1.3126,-1.3426,-1.4738,-1.5273,-1.5332,-1.6408,-1.682,-1.682,-1.682,-1.682,-1.682,-1.6833,-1.6821,-1.6809,-1.7008,-1.6912,-1.6791,-1.6963,-1.6875,-1.6694,-1.6646,-1.6634,-1.6622,-1.6573,-1.6392,-1.6211,-1.6211,-1.6054,-1.5885,-1.5885,-1.6054,-1.6151,-1.5934,-1.5885,-1.5885,-1.5885,-1.5885,-1.5885,-1.5885,-1.5885,-1.5885,-1.5885,-1.5885,-1.5885,-1.5885,-1.5885,-1.5851,-1.5735,-1.5725,-1.5725,-1.5725,-1.5725,-1.5768,-1.5838,-1.5496,-1.5272,-1.5053,-1.486,-1.4602,-1.4353,-1.4369,-1.4372,-1.4294,-1.3863,-1.3824,-1.4242,-1.3765,-1.3771,0.0,0.0,0.0,0.0,0.0,0.0,0.0,0.0,0.0,0.0,0.0,0.0,0.0,0.0,0.0,0.0,0.0,0.0,0.0,0.0,0.0,0.0,0.0,0.0,0.0,0.0,0.0,0.0,0.0,-0.6568,-0.6273,-0.7156,-0.7685,-0.7626,-0.8266,-0.8908,-0.9639,-0.9639,-0.97,-0.9822,-0.9822,-0.9822,-0.9822,-1.0179,-1.0906,-1.2053,-1.3366,-1.3963,-1.3963,-1.4143,-1.4202,-1.4202,-1.4202,-1.4202,-1.4173,-1.3986,-1.3966,-1.4063,-1.5031,-1.5285,-1.5422,-1.6405,-1.673,-1.6658,-1.6404,-1.6332,-1.6284,-1.6066,-1.597,-1.5946,-1.5946,-1.5922,-1.5885,-1.5885,-1.5922,-1.5934,-1.5897,-1.5885,-1.5885,-1.5885,-1.5885,-1.5885,-1.5885,-1.5885,-1.5885,-1.5885,-1.5885,-1.5885,-1.5885,-1.5885,-1.5868,-1.5887,-1.5887,-1.5887,-1.5887,-1.5887,-1.5875,-1.5904,-1.5851,-1.5612,-1.5309,-1.5301,-1.5149,-1.488,-1.49,-1.4726,-1.4282,-1.4234,-1.4131,-1.3946,-1.38,-1.3922,0.0,0.0,0.0,0.0,0.0,0.0,0.0,0.0,0.0,0.0,0.0,0.0,0.0,0.0,0.0,0.0,0.0,0.0,0.0,0.0,0.0,0.0,0.0,0.0,0.0,0.0,0.0,0.0,0.0,-0.6642,-0.6637,-0.6876,-0.711,-0.728,-0.7863,-0.8476,-0.9007,-0.9307,-0.951,-0.9578,-0.9578,-0.9578,-0.9578,-0.9578,-0.9965,-1.0725,-1.1985,-1.2525,-1.2548,-1.3249,-1.3468,-1.3422,-1.3422,-1.3422,-1.3413,-1.3317,-1.3749,-1.437,-1.4845,-1.5345,-1.5788,-1.6299,-1.6368,-1.6223,-1.6103,-1.6066,-1.603,-1.5922,-1.5885,-1.5885,-1.5885,-1.5885,-1.5885,-1.5885,-1.5885,-1.5885,-1.5885,-1.5885,-1.5885,-1.5885,-1.5885,-1.5885,-1.5885,-1.5885,-1.5885,-1.5885,-1.5885,-1.5885,-1.5885,-1.5885,-1.5885,-1.5885,-1.5885,-1.5885,-1.5885,-1.5885,-1.5885,-1.5885,-1.5885,-1.5832,-1.563,-1.5522,-1.5371,-1.5267,-1.5256,-1.5029,-1.4504,-1.4514,-1.441,-1.4101,-1.4096,-1.4113,0.0,0.0,0.0,0.0,0.0,0.0,0.0,0.0,0.0,0.0,0.0,0.0,0.0,0.0,0.0,0.0,0.0,0.0,0.0,0.0,0.0,0.0,0.0,0.0,0.0,0.0,0.0,0.0,0.0,-0.6498,-0.6729,-0.6671,-0.6734,-0.6902,-0.7478,-0.8014,-0.8454,-0.9071,-0.9381,-0.9381,-0.9381,-0.9381,-0.9381,-0.9381,-0.9503,-0.9767,-1.0726,-1.1066,-1.1059,-1.1987,-1.2307,-1.2232,-1.2232,-1.2232,-1.2223,-1.2179,-1.2956,-1.3974,-1.4249,-1.4955,-1.5794,-1.6121,-1.6054,-1.5885,-1.5885,-1.5885,-1.5885,-1.5885,-1.5885,-1.5885,-1.5885,-1.5885,-1.5885,-1.5885,-1.5885,-1.5885,-1.5885,-1.5885,-1.5885,-1.5885,-1.5885,-1.5885,-1.5885,-1.5885,-1.5885,-1.5885,-1.5885,-1.5885,-1.5885,-1.5885,-1.5885,-1.5885,-1.5885,-1.5885,-1.5885,-1.5885,-1.5885,-1.5885,-1.5885,-1.5885,-1.5885,-1.5684,-1.5589,-1.5589,-1.5518,-1.5282,-1.4885,-1.4833,-1.4717,-1.4507,-1.447,-1.4445,0.0,0.0,0.0,0.0,0.0,0.0,0.0,0.0,0.0,0.0,0.0,0.0,0.0,0.0,0.0,0.0,0.0,0.0,0.0,0.0,0.0,0.0,0.0,0.0,0.0,0.0,0.0,0.0,0.0,-0.5837,-0.5893,-0.6396,-0.6563,-0.6335,-0.6948,-0.7567,-0.8319,-0.9025,-0.9381,-0.9381,-0.9381,-0.9381,-0.9381,-0.9381,-0.9388,-0.9401,-0.946,-0.9518,-0.9511,-0.9562,-0.962,-0.9613,-0.9613,-0.9613,-0.9592,-0.9446,-1.0119,-1.1268,-1.2192,-1.3315,-1.4504,-1.5589,-1.5897,-1.5885,-1.5885,-1.5885,-1.5885,-1.5885,-1.5885,-1.5885,-1.5885,-1.5885,-1.5885,-1.5885,-1.5885,-1.5885,-1.5885,-1.5885,-1.5885,-1.5885,-1.5885,-1.5885,-1.5885,-1.5885,-1.5885,-1.5885,-1.5885,-1.5885,-1.5885,-1.5885,-1.5885,-1.5885,-1.5885,-1.5885,-1.5885,-1.5885,-1.5885,-1.5885,-1.5885,-1.5885,-1.5885,-1.5897,-1.5885,-1.5885,-1.5644,-1.5511,-1.5447,-1.5187,-1.507,-1.5082,-1.501,-1.4976,0.0,0.0,0.0,0.0,0.0,0.0,0.0,0.0,0.0,0.0,0.0,0.0,0.0,0.0,0.0,0.0,0.0,0.0,0.0,0.0,0.0,0.0,0.0,0.0,0.0,0.0,0.0,0.0,0.0,-0.5463,-0.5755,-0.5696,-0.584,-0.6311,-0.6487,-0.712,-0.8121,-0.8389,-0.8702,-0.9096,-0.9096,-0.9096,-0.9096,-0.9096,-0.9096,-0.9096,-0.9096,-0.915,-0.9296,-0.9296,-0.9178,-0.9096,-0.9096,-0.9096,-0.9089,-0.9035,-0.9787,-1.0816,-1.119,-1.2091,-1.3122,-1.3501,-1.4159,-1.4676,-1.4004,-1.4765,-1.5761,-1.5104,-1.5414,-1.5885,-1.5885,-1.5885,-1.5885,-1.5885,-1.5885,-1.5885,-1.5885,-1.5885,-1.5885,-1.5885,-1.5885,-1.5885,-1.5885,-1.5885,-1.5885,-1.5885,-1.5885,-1.5885,-1.5885,-1.5885,-1.5885,-1.5885,-1.5885,-1.5885,-1.5885,-1.5885,-1.5885,-1.5885,-1.5885,-1.5885,-1.5885,-1.5885,-1.5885,-1.5885,-1.5632,-1.5447,-1.5227,-1.5123,-1.503,-1.4833,-1.5193,-1.5202,-0.0595,0.0,0.0,0.0,0.0,0.0,0.0,0.0,0.0,0.0,0.0,0.0,0.0,0.0,0.0,0.0,0.0,0.0,0.0,0.0,0.0,0.0,0.0,0.0,0.0,0.0,0.0,0.0,0.0,0.0,-0.5926,-0.5692,-0.5889,-0.6589,-0.6432,-0.6765,-0.7709,-0.7931,-0.8214,-0.8602,-0.883,-0.8885,-0.8885,-0.8885,-0.8885,-0.8885,-0.8885,-0.8994,-0.9083,-0.9083,-0.9022,-0.8885,-0.8885,-0.8885,-0.8885,-0.8885,-0.9644,-1.0726,-1.0726,-1.1437,-1.2427,-1.2448,-1.3024,-1.3556,-1.2879,-1.3739,-1.4746,-1.4068,-1.4614,-1.5414,-1.5414,-1.5624,-1.5885,-1.5885,-1.5885,-1.5885,-1.5885,-1.5885,-1.5885,-1.5885,-1.5885,-1.5885,-1.5885,-1.5885,-1.5885,-1.5885,-1.5885,-1.5885,-1.5885,-1.5885,-1.5885,-1.5885,-1.5885,-1.5885,-1.5885,-1.5885,-1.5885,-1.5885,-1.5885,-1.5885,-1.5885,-1.5885,-1.5885,-1.5885,-1.5716,-1.5579,-1.5357,-1.5274,-1.5182,-1.5118,-1.5453,-1.5523,0.0,0.0,0.0,0.0,0.0,0.0,0.0,0.0,0.0,0.0,0.0,0.0,0.0,0.0,0.0,0.0,0.0,0.0,0.0,0.0,0.0,0.0,0.0,0.0,0.0,0.0,0.0,0.0,-0.5806,-0.5922,-0.627,-0.6548,-0.6826,-0.7154,-0.6599,-0.6599,-0.721,-0.7709,-0.7992,-0.8048,-0.8602,-0.8885,-0.8885,-0.8885,-0.8885,-0.8892,-0.8885,-0.8885,-0.8892,-0.8885,-0.8885,-0.8885,-0.8885,-0.8885,-0.8885,-0.8885,-0.9644,-1.0672,-1.0625,-1.1391,-1.2356,-1.2451,-1.2516,-1.2609,-1.2757,-1.2861,-1.2861,-1.287,-1.3565,-1.4348,-1.4348,-1.5061,-1.5803,-1.5803,-1.5856,-1.5856,-1.5856,-1.5897,-1.5885,-1.5885,-1.5885,-1.5885,-1.5885,-1.5885,-1.5885,-1.5885,-1.5885,-1.5885,-1.5885,-1.5885,-1.5885,-1.5885,-1.5885,-1.5885,-1.5885,-1.5885,-1.5885,-1.5885,-1.5885,-1.5885,-1.5885,-1.5885,-1.5885,-1.5885,-1.5885,-1.5885,-1.5885,-1.562,-1.5632,-1.5885,-1.5885,-1.5885,-0.0092,0.0,0.0,0.0,0.0,0.0,0.0,0.0,0.0,0.0,0.0,0.0,0.0,0.0,0.0,0.0,0.0,0.0,0.0,0.0,0.0,0.0,0.0,0.0,0.0,0.0,0.0,0.0,-0.5378,-0.5549,-0.5868,-0.6393,-0.6437,-0.5935,-0.6599,-0.7043,-0.721,-0.7709,-0.8214,-0.8657,-0.883,-0.8885,-0.8885,-0.8885,-0.8994,-0.9089,-0.8981,-0.8994,-0.9083,-0.8981,-0.8885,-0.8885,-0.8885,-0.8885,-0.8885,-0.8885,-0.9099,-0.9445,-0.9552,-0.9812,-1.0122,-1.0231,-1.0857,-1.1405,-1.072,-1.1603,-1.2717,-1.1936,-1.2475,-1.3286,-1.3286,-1.3529,-1.3704,-1.3704,-1.4124,-1.4437,-1.4437,-1.519,-1.5885,-1.5885,-1.5885,-1.5885,-1.5885,-1.5885,-1.5885,-1.5885,-1.5885,-1.5885,-1.5885,-1.5885,-1.5885,-1.5885,-1.5885,-1.5885,-1.5885,-1.5885,-1.5885,-1.5885,-1.5885,-1.5885,-1.5885,-1.5885,-1.5885,-1.5885,-1.5885,-1.5885,-1.5885,-1.562,-1.5632,-1.5885,-1.5885,-1.5885,-0.0224,-0.021,0.0,0.0,0.0,0.0,0.0,0.0,0.0,0.0,0.0,0.0,0.0,0.0,0.0,0.0,0.0,0.0,0.0,0.0,0.0,0.0,0.0,0.0,0.0,0.0,0.0,-0.532,-0.5374,-0.5487,-0.5661,-0.6053,-0.6086,-0.565,-0.6344,-0.6858,-0.7133,-0.7686,-0.8159,-0.8546,-0.8768,-0.8885,-0.8885,-0.8885,-0.8988,-0.9055,-0.8974,-0.9022,-0.92,-0.9062,-0.8994,-0.8892,-0.9008,-0.8994,-0.8885,-0.8885,-0.8974,-0.9042,-0.918,-0.9255,-0.933,-0.9429,-0.9945,-1.0376,-0.9831,-1.0576,-1.151,-1.0844,-1.1451,-1.2338,-1.2765,-1.2918,-1.2956,-1.3249,-1.3622,-1.4034,-1.4625,-1.5371,-1.5885,-1.5885,-1.5885,-1.5885,-1.5885,-1.5885,-1.5885,-1.5885,-1.5885,-1.5885,-1.5885,-1.5885,-1.5885,-1.5885,-1.5885,-1.5885,-1.5885,-1.5885,-1.5885,-1.5885,-1.5885,-1.5885,-1.5885,-1.5885,-1.5885,-1.5885,-1.5885,-1.5885,-1.5885,-1.5741,-1.5741,-1.5885,-1.5885,-1.5885,-0.0304,-0.0217,-0.0077,0.0,0.0,0.0,-0.1696,-0.2585,0.0,0.0,0.0,0.0,0.0,0.0,0.0,0.0,0.0,0.0,0.0,0.0,0.0,0.0,0.0,0.0,0.0,-0.5492,-0.5492,-0.5492,-0.5558,-0.5571,-0.5589,-0.5589,-0.5695,-0.5902,-0.6046,-0.6364,-0.6899,-0.7567,-0.7913,-0.7968,-0.854,-0.883,-0.8885,-0.8885,-0.8892,-0.8905,-0.8892,-0.9022,-0.9207,-0.9207,-0.9089,-0.9001,-0.913,-0.9103,-0.8932,-0.8932,-0.9069,-0.9234,-0.9255,-0.9337,-0.9408,-0.9557,-0.9598,-0.9605,-0.9734,-0.9774,-0.9774,-0.9795,-1.0412,-1.1318,-1.2281,-1.2581,-1.2726,-1.3296,-1.3436,-1.375,-1.4974,-1.5244,-1.5244,-1.5244,-1.5582,-1.5885,-1.5885,-1.5885,-1.5885,-1.5885,-1.5885,-1.5885,-1.5885,-1.5885,-1.5885,-1.5885,-1.5885,-1.5885,-1.5885,-1.5885,-1.5885,-1.5885,-1.5885,-1.5885,-1.5885,-1.5885,-1.5885,-1.5885,-1.5885,-1.5885,-1.5885,-1.5885,-1.5885,-1.5885,-1.5885,-1.5885,-0.0183,-0.0313,-0.0443,-0.025,0.0,0.0,0.0,-0.1096,0.0,0.0,0.0,0.0,0.0,0.0,0.0,0.0,0.0,0.0,0.0,0.0,0.0,0.0,0.0,0.0,0.0,-0.4938,-0.4938,-0.4938,-0.5265,-0.55,-0.5576,-0.558,-0.5479,-0.5267,-0.5762,-0.609,-0.6197,-0.684,-0.7442,-0.7937,-0.8103,-0.8436,-0.8885,-0.8885,-0.9001,-0.9103,-0.8988,-0.9022,-0.9207,-0.9207,-0.9268,-0.93,-0.9327,-0.932,-0.9293,-0.9293,-0.9313,-0.9354,-0.9476,-0.9456,-0.9408,-0.9557,-0.953,-0.9429,-0.9456,-0.9469,-0.949,-0.9618,-0.9804,-0.9975,-1.0307,-1.0388,-1.0441,-1.0539,-1.0591,-1.0644,-1.0948,-1.0999,-1.0999,-1.0999,-1.3658,-1.5885,-1.5885,-1.5885,-1.5885,-1.5885,-1.5885,-1.5885,-1.5885,-1.5885,-1.5885,-1.5885,-1.5885,-1.5885,-1.5885,-1.5885,-1.5885,-1.5885,-1.5885,-1.5885,-1.5885,-1.5885,-1.5885,-1.5885,-1.5885,-1.5885,-1.5885,-1.5885,-1.5885,-1.5885,-1.5885,-1.5885,-0.0227,-0.0284,-0.0285,-0.0221,0.0,0.0,0.0,0.0,0.0,0.0,0.0,0.0,0.0,0.0,0.0,0.0,0.0,0.0,0.0,0.0,0.0,0.0,0.0,0.0,0.0,-0.4885,-0.4784,-0.4784,-0.4981,-0.5129,-0.5171,-0.5227,-0.5124,-0.4973,-0.5586,-0.5927,-0.5927,-0.6616,-0.7102,-0.7428,-0.7442,-0.7725,-0.8224,-0.8348,-0.8585,-0.8867,-0.8912,-0.9022,-0.9207,-0.9207,-0.9303,-0.9381,-0.9381,-0.9334,-0.933,-0.9354,-0.9429,-0.9438,-0.9137,-0.9255,-0.9438,-0.9137,-0.9208,-0.9323,-0.9026,-0.8736,-0.8574,-0.8942,-0.9078,-0.917,-0.9613,-0.9693,-0.97,-0.9795,-0.9822,-0.9822,-0.9822,-0.9822,-0.9822,-0.9822,-1.1443,-1.2861,-1.2861,-1.2861,-1.3565,-1.5582,-1.5885,-1.5885,-1.5885,-1.5885,-1.5885,-1.5885,-1.5885,-1.5885,-1.5885,-1.5885,-1.5885,-1.5885,-1.5885,-1.5885,-1.5885,-1.5885,-1.5885,-1.5885,-1.5885,-1.5885,-1.5885,-1.5885,-1.5885,-1.5885,-1.5885,-1.5885,0.0,0.0,0.0,0.0,0.0,-0.0203,0.0,0.0,0.0,-0.1842,0.0,0.0,0.0,0.0,0.0,0.0,0.0,0.0,0.0,0.0,0.0,0.0,0.0,0.0,0.0,-0.4793,-0.4691,-0.4776,-0.4736,-0.4732,-0.478,-0.4784,-0.4784,-0.4784,-0.5366,-0.5663,-0.5663,-0.624,-0.6611,-0.6716,-0.6776,-0.6996,-0.7385,-0.7725,-0.806,-0.8336,-0.8589,-0.8778,-0.8884,-0.8884,-0.89,-0.9012,-0.9296,-0.9249,-0.9097,-0.916,-0.9222,-0.913,-0.854,-0.8676,-0.9091,-0.8503,-0.8621,-0.889,-0.8423,-0.7904,-0.7616,-0.8165,-0.8292,-0.8439,-0.9052,-0.9393,-0.9618,-0.9781,-0.9822,-0.9822,-0.9822,-0.9822,-0.9822,-0.9822,-0.9822,-0.9822,-0.9822,-0.9822,-1.0999,-1.457,-1.5104,-1.5201,-1.5329,-1.5329,-1.5329,-1.5329,-1.5498,-1.5582,-1.5582,-1.5815,-1.5885,-1.5885,-1.5885,-1.5885,-1.5885,-1.5885,-1.5885,-1.5885,-1.5885,-1.5885,-1.5885,-1.5885,-1.5885,-1.5885,-1.5885,-1.5885,0.0,0.0,0.0,0.0,-0.032,0.0,0.0,0.0,-0.0329,-0.0354,0.0,0.0,0.0,0.0,0.0,0.0,0.0,0.0,0.0,0.0,0.0,0.0,0.0,0.0,0.0,-0.4328,-0.441,-0.4756,-0.4566,-0.4538,-0.4772,-0.4784,-0.4784,-0.4784,-0.4897,-0.4901,-0.4901,-0.5094,-0.5507,-0.6024,-0.608,-0.6399,-0.6987,-0.7379,-0.7599,-0.766,-0.7938,-0.7998,-0.7794,-0.7794,-0.7633,-0.7556,-0.8871,-0.9078,-0.8594,-0.8613,-0.8276,-0.7816,-0.7746,-0.7679,-0.7663,-0.7532,-0.7511,-0.7416,-0.736,-0.7304,-0.727,-0.7499,-0.7527,-0.7555,-0.7788,-0.8813,-0.9795,-0.9815,-0.9822,-0.9822,-0.9822,-0.9822,-0.9822,-0.9822,-0.9822,-0.9822,-0.9822,-0.9822,-1.0395,-1.211,-1.2356,-1.259,-1.3145,-1.3239,-1.3239,-1.3239,-1.4023,-1.457,-1.457,-1.5371,-1.5885,-1.5885,-1.5885,-1.5885,-1.5885,-1.5885,-1.5885,-1.5885,-1.5885,-1.5885,-1.5885,-1.5885,-1.5885,-1.5885,-1.5885,-1.5885,0.0,0.0,0.0,0.0,0.0,0.0,-0.0238,0.0,-0.0108,0.0,0.0,0.0,0.0,0.0,0.0,0.0,0.0,0.0,0.0,0.0,0.0,0.0,0.0,0.0,0.0,0.0,0.0,0.0,-0.4373,-0.4377,-0.4546,-0.4699,-0.4784,-0.4784,-0.4784,-0.4784,-0.4784,-0.4871,-0.4993,-0.5247,-0.5348,-0.5656,-0.6026,-0.6452,-0.6861,-0.7251,-0.758,-0.7755,-0.7826,-0.7826,-0.7771,-0.7721,-0.8339,-0.8262,-0.7881,-0.7951,-0.7799,-0.7555,-0.7085,-0.7148,-0.7385,-0.7308,-0.7025,-0.6654,-0.6654,-0.6432,-0.6223,-0.6654,-0.6781,-0.6863,-0.7377,-0.772,-0.8003,-0.8102,-0.8995,-0.9822,-0.9822,-0.9822,-0.9822,-0.9822,-0.9822,-0.9822,-0.9822,-0.9822,-1.0229,-1.1661,-1.1862,-1.216,-1.2822,-1.2918,-1.2918,-1.2918,-1.3296,-1.3519,-1.3519,-1.4437,-1.5018,-1.5018,-1.5594,-1.5885,-1.5885,-1.5885,-1.5885,-1.5885,-1.5885,-1.5885,-1.5885,-1.5885,-1.5885,-1.5885,-1.5885,-1.5885,0.0,0.0,0.0,0.0,0.0,0.0,0.0,0.0,0.0,0.0,0.0,0.0,0.0,0.0,0.0,0.0,0.0,0.0,0.0,0.0,0.0,0.0,0.0,0.0,0.0,0.0,0.0,0.0,0.0,-0.4144,-0.4376,-0.4619,-0.476,-0.4784,-0.4784,-0.4784,-0.4784,-0.4784,-0.4784,-0.4784,-0.4904,-0.5039,-0.5248,-0.5656,-0.6109,-0.661,-0.7056,-0.7357,-0.7497,-0.7587,-0.7604,-0.7549,-0.7549,-0.7382,-0.7131,-0.7268,-0.7237,-0.6997,-0.6408,-0.6497,-0.6822,-0.674,-0.6432,-0.6042,-0.6042,-0.5768,-0.5493,-0.5931,-0.6042,-0.6172,-0.6699,-0.6551,-0.6293,-0.6455,-0.7566,-0.8569,-0.8569,-0.9226,-0.9822,-0.9822,-0.9822,-0.9822,-0.9822,-0.9822,-1.0116,-1.104,-1.1243,-1.1428,-1.1857,-1.1954,-1.1954,-1.1954,-1.2188,-1.2323,-1.2323,-1.3259,-1.3967,-1.4297,-1.5013,-1.5565,-1.5885,-1.5885,-1.5885,-1.5885,-1.5885,-1.5885,-1.5885,-1.5885,-1.5885,-1.5885,-1.5885,-1.5885,0.0,0.0,0.0,-0.0038,0.0,0.0,0.0,0.0,-0.0152,0.0,0.0,0.0,0.0,0.0,0.0,0.0,0.0,0.0,0.0,0.0,0.0,0.0,0.0,0.0,0.0,0.0,0.0,0.0,0.0,0.0,-0.436,-0.461,-0.4749,-0.478,-0.4784,-0.4784,-0.4784,-0.4784,-0.4784,-0.4784,-0.4788,-0.4788,-0.4843,-0.5244,-0.5446,-0.5512,-0.6289,-0.6438,-0.6181,-0.6559,-0.6604,-0.633,-0.633,-0.633,-0.6391,-0.6614,-0.6335,-0.5833,-0.5553,-0.5442,-0.5442,-0.5437,-0.5437,-0.5437,-0.5437,-0.5437,-0.5382,-0.5437,-0.5437,-0.5437,-0.5442,-0.5437,-0.5437,-0.5442,-0.5506,-0.5566,-0.5566,-0.778,-0.9822,-0.9822,-0.9822,-0.9822,-0.9822,-0.9822,-0.9774,-0.9685,-0.9664,-0.961,-0.9518,-0.9497,-0.9497,-0.9497,-1.0379,-1.0956,-1.0956,-1.189,-1.297,-1.4126,-1.4223,-1.4761,-1.5832,-1.5885,-1.5885,-1.5885,-1.5885,-1.5885,-1.5885,-1.5885,-1.5885,-1.5885,-1.5885,-1.5885,0.0,0.0,-0.01,0.0,0.0,0.0,0.0,0.0,0.0,0.0,0.0,0.0,0.0,0.0,-0.0139,-0.0134,-0.0233,0.0,0.0,0.0,0.0,0.0,0.0,0.0,0.0,0.0,0.0,0.0,-0.3287,0.0,0.0,-0.4255,-0.4493,-0.4522,-0.4691,-0.4784,-0.4784,-0.4784,-0.4784,-0.4784,-0.4784,-0.4784,-0.4784,-0.4918,-0.5171,-0.5395,-0.5666,-0.6037,-0.6438,-0.6587,-0.6754,-0.6882,-0.6882,-0.6882,-0.6882,-0.6548,-0.633,-0.6102,-0.5768,-0.5545,-0.5382,-0.5382,-0.5382,-0.5382,-0.5382,-0.5382,-0.5382,-0.5382,-0.5382,-0.5382,-0.5382,-0.5382,-0.5382,-0.5382,-0.5382,-0.5382,-0.5382,-0.6214,-0.6882,-0.6882,-0.6882,-0.6882,-0.6882,-0.7699,-0.8639,-0.9432,-0.9496,-0.9442,-0.9388,-0.9381,-0.9381,-0.9381,-0.968,-0.9932,-0.9932,-1.0843,-1.1852,-1.2916,-1.3014,-1.3555,-1.4708,-1.4761,-1.5137,-1.5885,-1.5885,-1.5885,-1.5885,-1.5885,-1.5885,-1.5885,-1.5885,-1.5885,0.0,0.0,0.0,0.0,0.0,0.0,-0.0115,0.0,0.0,0.0,0.0,0.0,0.0,0.0,-0.012,-0.014,-0.0053,0.0,0.0,0.0,0.0,0.0,0.0,0.0,0.0,0.0,-0.2441,-0.2934,0.0,0.0,0.0,0.0,-0.4356,-0.4388,-0.4647,-0.4784,-0.4784,-0.4784,-0.4784,-0.4784,-0.4784,-0.4784,-0.4784,-0.4784,-0.4918,-0.5184,-0.5321,-0.5793,-0.6383,-0.6526,-0.6827,-0.721,-0.721,-0.721,-0.7154,-0.6604,-0.633,-0.6102,-0.588,-0.5601,-0.5382,-0.5382,-0.5382,-0.5382,-0.5382,-0.5382,-0.5382,-0.5382,-0.5382,-0.5382,-0.5382,-0.5382,-0.5382,-0.5382,-0.5382,-0.5382,-0.5382,-0.5382,-0.5382,-0.5382,-0.5382,-0.5382,-0.5382,-0.6549,-0.7893,-0.9267,-0.9422,-0.934,-0.9239,-0.9225,-0.9225,-0.9225,-0.9225,-0.9225,-0.9225,-0.9807,-1.0635,-1.1719,-1.1819,-1.2309,-1.3511,-1.3565,-1.3889,-1.4643,-1.5164,-1.5425,-1.5425,-1.5869,-1.603,-1.603,-1.5934,-1.5885]}]]